[[{"header":{"parameterUnit":"m.s-1","parameterCategory":1,"la1":31.0,"la2":29.5877,"lo1":-88.7671,"lo2":-86.6584,"dy":0.0162,"dx":0.0185,"nx":115,"ny":88,"refTime":"2026-04-20T00:00:00:Z","depth":0,"parameterNumber":2,"parameterNumberName":"U-component_of_WINDS"},"data":[0.0,0.0,0.0,0.0,0.0,0.0,0.0,0.0,0.0,0.0,0.0,0.0,0.0,0.0,0.0,0.0,0.0,0.0,0.0,0.0,0.0,0.0,0.0,0.0,0.0,0.0,0.0,0.0,0.0,0.0,0.0,0.0,0.0,0.0,0.0,0.0,0.0,0.0,0.0,0.0,0.0,0.0,0.0,0.0,0.0,0.0,0.0,0.0,0.0,0.0,0.0,0.0,0.0,0.0,0.0,0.0,0.0,0.0,0.0,0.0,0.0,0.0,0.0,0.0,0.0,0.0,0.0,0.0,0.0,0.0,0.0,0.0,0.0,0.0,0.0,0.0,0.0,0.0,0.0,0.0,0.0,0.0,0.0,0.0,0.0,0.0,0.0,0.0,0.0,0.0,0.0,0.0,0.0,0.0,0.0,0.0,0.0,0.0,0.0,0.0,0.0,0.0,0.0,0.0,0.0,0.0,0.0,0.0,0.0,0.0,0.0,0.0,0.0,0.0,0.0,0.0,0.0,0.0,0.0,0.0,0.0,0.0,0.0,0.0,0.0,0.0,0.0,0.0,0.0,0.0,0.0,0.0,0.0,0.0,0.0,0.0,0.0,0.0,0.0,0.0,0.0,0.0,0.0,0.0,0.0,0.0,0.0,0.0,0.0,0.0,0.0,0.0,0.0,0.0,0.0,0.0,0.0,0.0,0.0,0.0,0.0,0.0,0.0,0.0,0.0,0.0,0.0,0.0,0.0,0.0,0.0,0.0,0.0,0.0,0.0,0.0,0.0,0.0,0.0,0.0,0.0,0.0,0.0,0.0,0.0,0.0,0.0,0.0,0.0,0.0,0.0,0.0,0.0,0.0,0.0,0.0,0.0,0.0,0.0,0.0,0.0,0.0,0.0,0.0,0.0,0.0,0.0,0.0,0.0,0.0,0.0,0.0,0.0,0.0,0.0,0.0,0.0,0.0,0.0,0.0,0.0,0.0,0.0,0.0,0.0,0.0,0.0,0.0,0.0,0.0,0.0,0.0,0.0,0.0,0.0,0.0,0.0,0.0,0.0,0.0,0.0,0.0,0.0,0.0,0.0,0.0,0.0,0.0,0.0,0.0,0.0,0.0,0.0,0.0,0.0,0.0,0.0,0.0,0.0,0.0,0.0,0.0,0.0,0.0,0.0,0.0,0.0,0.0,0.0,0.0,0.0,0.0,0.0,0.0,0.0,0.0,0.0,0.0,0.0,0.0,0.0,0.0,0.0,0.0,0.0,0.0,0.0,0.0,0.0,0.0,0.0,0.0,0.0,0.0,0.0,0.0,0.0,0.0,0.0,0.0,0.0,0.0,0.0,0.0,0.0,0.0,0.0,0.0,0.0,0.0,0.0,0.0,0.0,0.0,0.0,0.0,0.0,0.0,0.0,0.0,0.0,0.0,0.0,0.0,0.0,0.0,0.0,0.0,0.0,0.0,0.0,0.0,0.0,0.0,0.0,0.0,0.0,0.0,0.0,0.0,0.0,0.0,0.0,0.0,0.0,0.0,0.0,0.0,0.0,0.0,0.0,0.0,0.0,0.0,0.0,0.0,0.0,0.0,0.0,0.0,0.0,0.0,0.0,0.0,0.0,0.0,0.0,0.0,0.0,0.0,0.0,0.0,0.0,0.0,0.0,0.0,0.0,0.0,0.0,0.0,0.0,0.0,0.0,0.0,0.0,0.0,0.0,0.0,0.0,0.0,0.0,0.0,0.0,0.0,0.0,0.0,0.0,0.0,0.0,0.0,0.0,0.0,0.0,0.0,0.0,0.0,0.0,0.0,0.0,0.0,0.0,0.0,0.0,0.0,0.0,0.0,0.0,0.0,0.0,0.0,0.0,0.0,0.0,0.0,0.0,0.0,0.0,0.0,0.0,0.0,0.0,0.0,0.0,0.0,0.0,0.0,0.0,0.0,0.0,0.0,0.0,0.0,0.0,0.0,0.0,0.0,0.0,0.0,0.0,0.0,0.0,0.0,0.0,0.0,0.0,0.0,0.0,0.0,0.0,0.0,0.0,0.0,0.0,0.0,0.0,0.0,0.0,0.0,0.0,0.0,0.0,0.0,0.0,0.0,0.0,0.0,0.0,0.0,0.0,0.0,0.0,0.0,0.0,0.0,0.0,0.0,0.0,0.0,0.0,0.0,0.0,0.0,0.0,0.0,0.0,0.0,0.0,0.0,0.0,0.0,0.0,0.0,0.0,0.0,0.0,0.0,0.0,0.0,0.0,0.0,0.0,0.0,0.0,0.0,0.0,0.0,0.0,0.0,0.0,0.0,0.0,0.0,0.0,0.0,0.0,0.0,0.0,0.0,0.0,0.0,0.0,0.0,0.0,0.0,0.0,0.0,0.0,0.0,0.0,0.0,0.0,0.0,0.0,0.0,0.0,0.0,0.0,0.0,0.0,0.0,0.0,0.0,0.0,0.0,0.0,0.0,0.0,0.0,0.0,0.0,0.0,0.0,0.0,0.0,0.0,0.0,0.0,0.0,0.0,0.0,0.0,0.0,0.0,0.0,0.0,0.0,0.0,0.0,0.0,0.0,0.0,0.0,0.0,0.0,0.0,0.0,0.0,0.0,0.0,0.0,0.0,0.0,0.0,0.0,0.0,0.0,0.0,0.0,0.0,0.0,0.0,0.0,0.0,0.0,0.0,0.0,0.0,0.0,0.0,0.0,0.0,0.0,0.0,0.0,0.0,0.0,0.0,0.0,0.0,0.0,0.0,0.0,0.0,0.0,0.0,0.0,0.0,0.0,0.0,0.0,0.0,0.0,0.0,0.0,0.0,0.0,0.0,0.0,0.0,0.0,0.0,0.0,0.0,0.0,0.0,0.0,0.0,0.0,0.0,0.0,0.0,0.0,0.0,0.0,0.0,0.0,0.0,0.0,0.0,0.0,0.0,0.0,0.0,0.0,0.0,0.0,0.0,0.0,0.0,0.0,0.0,0.0,0.0,0.0,0.0,0.0,0.0,0.0,0.0,0.0,0.0,0.0,0.0,0.0,0.0,0.0,0.0,0.0,0.0,0.0,0.0,0.0,0.0,0.0,0.0,0.0,0.0,0.0,0.0,0.0,0.0,0.0,0.0,0.0,0.0,0.0,0.0,0.0,0.0,0.0,0.0,0.0,0.0,0.0,0.0,0.0,0.0,0.0,0.0,0.0,0.0,0.0,0.0,0.0,0.0,0.0,0.0,0.0,0.0,0.0,0.0,0.0,0.0,0.0,0.0,0.0,0.0,0.0,0.0,0.0,0.0,0.0,0.0,0.0,0.0,0.0,0.0,0.0,0.0,0.0,0.0,0.0,0.0,0.0,0.0,0.0,0.0,0.0,0.0,0.0,0.0,0.0,0.0,0.0,0.0,0.0,0.0,0.0,0.0,0.0,0.0,0.0,0.0,0.0,0.0,0.0,0.0,0.0,0.0,0.0,0.0,0.0,0.0,0.0,0.0,0.0,0.0,0.0,0.0,0.0,0.0,0.0,0.0,0.0,0.0,0.0,0.0,0.0,0.0,0.0,0.0,0.0,0.0,0.0,0.0,0.0,0.0,0.0,0.0,0.0,0.0,0.0,0.0,0.0,0.0,0.0,0.0,0.0,0.0,0.0,0.0,0.0,0.0,0.0,0.0,0.0,0.0,0.0,0.0,0.0,0.0,0.0,0.0,0.0,0.0,0.0,0.0,0.0,0.0,0.0,0.0,0.0,0.0,0.0,0.0,0.0,0.0,0.0,0.0,0.0,0.0,0.0,0.0,0.0,0.0,0.0,0.0,0.0,0.0,0.0,0.0,0.0,0.0,0.0,0.0,0.0,0.0,0.0,0.0,0.0,0.0,0.0,0.0,0.0,0.0,0.0,0.0,0.0,0.0,0.0,0.0,0.0,0.0,0.0,0.0,0.0,0.0,0.0,0.0,0.0,0.0,0.0,0.0,0.0,0.0,0.0,0.0,0.0,0.0,0.0,0.0,0.0,0.0,0.0,0.0,0.0,0.0,0.0,0.0,0.0,0.0,0.0,0.0,0.0,0.0,0.0,0.0,0.0,0.0,0.0,0.0,0.0,0.0,0.0,0.0,0.0,0.0,0.0,0.0,0.0,0.0,0.0,0.0,0.0,0.0,0.0,0.0,0.0,0.0,0.0,0.0,0.0,0.0,0.0,0.0,0.0,0.0,0.0,0.0,0.0,0.0,0.0,0.0,0.0,0.0,0.0,0.0,0.0,0.0,0.0,0.0,0.0,0.0,0.0,0.0,0.0,2.3282,0.0,0.0,0.0,0.0,0.0,0.0,0.0,0.0,0.0,0.0,0.0,0.0,0.0,0.0,0.0,0.0,0.0,0.0,0.0,0.0,0.0,0.0,0.0,0.0,0.0,0.0,0.0,0.0,0.0,0.0,0.0,0.0,0.0,0.0,0.0,0.0,0.0,0.0,0.0,0.0,0.0,0.0,0.0,0.0,0.0,0.0,0.0,0.0,0.0,0.0,0.0,0.0,0.0,0.0,0.0,0.0,0.0,0.0,0.0,0.0,0.0,0.0,0.0,0.0,0.0,0.0,0.0,0.0,0.0,0.0,0.0,0.0,0.0,0.0,0.0,0.0,0.0,0.0,0.0,0.0,0.0,0.0,0.0,0.0,0.0,0.0,0.0,0.0,0.0,0.0,0.0,0.0,0.0,0.0,0.0,0.0,0.0,0.0,0.0,0.0,0.0,0.0,0.0,0.0,0.0,0.0,0.0,0.0,0.0,0.0,2.4429,2.4797,2.4552,2.4247,2.3836,0.0,0.0,0.0,0.0,0.0,0.0,0.0,0.0,0.0,0.0,0.0,0.0,0.0,0.0,0.0,0.0,0.0,0.0,0.0,0.0,0.0,0.0,0.0,0.0,0.0,0.0,0.0,0.0,0.0,0.0,0.0,0.0,0.0,0.0,0.0,0.0,0.0,0.0,0.0,0.0,0.0,0.0,0.0,0.0,0.0,0.0,0.0,0.0,0.0,0.0,0.0,0.0,0.0,0.0,0.0,0.0,0.0,0.0,0.0,0.0,0.0,0.0,0.0,0.0,0.0,0.0,0.0,0.0,0.0,0.0,0.0,0.0,0.0,0.0,0.0,0.0,0.0,0.0,0.0,0.0,0.0,0.0,0.0,0.0,0.0,0.0,0.0,0.0,0.0,0.0,0.0,0.0,0.0,0.0,0.0,0.0,0.0,0.0,0.0,0.0,0.0,0.0,0.0,0.0,0.0,0.0,0.0,0.0,0.0,0.0,0.0,0.0,2.5329,2.486,2.4089,0.0,0.0,0.0,0.0,0.0,0.0,0.0,0.0,0.0,0.0,0.0,0.0,0.0,0.0,0.0,0.0,0.0,0.0,0.0,0.0,0.0,0.0,0.0,0.0,0.0,0.0,0.0,0.0,0.0,0.0,0.0,0.0,0.0,0.0,0.0,0.0,0.0,0.0,0.0,0.0,0.0,0.0,0.0,0.0,0.0,0.0,0.0,0.0,0.0,0.0,0.0,0.0,0.0,0.0,0.0,0.0,0.0,0.0,0.0,0.0,0.0,0.0,0.0,0.0,0.0,0.0,0.0,0.0,0.0,0.0,0.0,0.0,0.0,0.0,0.0,0.0,0.0,0.0,0.0,0.0,0.0,0.0,0.0,0.0,0.0,0.0,0.0,0.0,0.0,0.0,0.0,0.0,0.0,0.0,0.0,0.0,0.0,0.0,0.0,0.0,0.0,0.0,0.0,0.0,0.0,0.0,0.0,0.0,0.0,0.0,2.5569,2.6268,2.6031,0.0,2.3626,0.0,0.0,0.0,0.0,0.0,0.0,0.0,0.0,0.0,0.0,0.0,0.0,0.0,0.0,0.0,0.0,0.0,0.0,0.0,0.0,0.0,0.0,0.0,0.0,0.0,0.0,0.0,0.0,0.0,0.0,0.0,0.0,0.0,0.0,0.0,0.0,0.0,0.0,0.0,0.0,0.0,0.0,0.0,0.0,0.0,0.0,0.0,0.0,0.0,0.0,0.0,0.0,0.0,0.0,0.0,0.0,0.0,0.0,0.0,0.0,0.0,0.0,0.0,0.0,0.0,0.0,0.0,0.0,0.0,0.0,0.0,0.0,0.0,0.0,0.0,0.0,0.0,0.0,0.0,0.0,0.0,0.0,0.0,0.0,0.0,0.0,0.0,0.0,0.0,0.0,0.0,0.0,0.0,0.0,0.0,0.0,0.0,0.0,0.0,0.0,0.0,0.0,0.0,0.0,0.0,0.0,0.0,0.0,0.0,0.0,0.0,2.6873,2.6386,2.5459,0.0,0.0,0.0,0.0,0.0,0.0,0.0,0.0,0.0,0.0,0.0,0.0,0.0,0.0,0.0,0.0,0.0,0.0,0.0,0.0,0.0,0.0,0.0,0.0,0.0,0.0,0.0,0.0,0.0,0.0,0.0,0.0,0.0,0.0,0.0,0.0,0.0,0.0,0.0,0.0,0.0,0.0,0.0,0.0,0.0,0.0,0.0,0.0,0.0,0.0,0.0,0.0,0.0,0.0,0.0,0.0,0.0,0.0,0.0,0.0,0.0,0.0,0.0,0.0,0.0,0.0,0.0,0.0,0.0,0.0,0.0,0.0,0.0,0.0,0.0,0.0,0.0,0.0,0.0,0.0,0.0,0.0,0.0,0.0,0.0,0.0,0.0,0.0,0.0,0.0,0.0,0.0,0.0,0.0,0.0,0.0,0.0,0.0,0.0,0.0,0.0,0.0,0.0,0.0,0.0,0.0,0.0,0.0,0.0,0.0,2.6318,0.0,2.7362,2.6805,2.5771,2.4355,0.0,0.0,0.0,0.0,0.0,0.0,0.0,0.0,0.0,0.0,0.0,0.0,0.0,0.0,0.0,0.0,0.0,0.0,0.0,0.0,0.0,0.0,0.0,0.0,0.0,0.0,0.0,0.0,0.0,0.0,0.0,0.0,0.0,0.0,0.0,0.0,0.0,0.0,0.0,0.0,0.0,0.0,0.0,0.0,0.0,0.0,0.0,0.0,0.0,0.0,0.0,0.0,0.0,0.0,0.0,0.0,0.0,0.0,0.0,0.0,0.0,0.0,0.0,0.0,0.0,0.0,0.0,0.0,0.0,0.0,0.0,0.0,0.0,0.0,0.0,0.0,0.0,0.0,0.0,0.0,0.0,0.0,0.0,0.0,0.0,0.0,0.0,0.0,0.0,0.0,0.0,0.0,0.0,0.0,0.0,0.0,0.0,0.0,0.0,0.0,0.0,0.0,0.0,0.0,0.0,0.0,0.0,0.0,0.0,2.7007,2.7554,2.7929,2.7446,2.6267,0.0,0.0,0.0,0.0,0.0,0.0,0.0,0.0,0.0,0.0,0.0,0.0,0.0,0.0,0.0,0.0,0.0,0.0,0.0,0.0,0.0,0.0,0.0,0.0,0.0,0.0,0.0,0.0,0.0,0.0,0.0,0.0,0.0,0.0,0.0,0.0,0.0,0.0,0.0,0.0,0.0,0.0,0.0,0.0,0.0,0.0,0.0,0.0,0.0,0.0,0.0,0.0,0.0,0.0,0.0,0.0,0.0,0.0,0.0,0.0,0.0,0.0,0.0,0.0,0.0,0.0,0.0,0.0,0.0,0.0,0.0,0.0,0.0,0.0,0.0,0.0,0.0,0.0,0.0,0.0,0.0,0.0,0.0,0.0,0.0,0.0,0.0,0.0,0.0,0.0,0.0,0.0,0.0,0.0,0.0,0.0,0.0,0.0,0.0,0.0,0.0,0.0,0.0,0.0,0.0,0.0,0.0,0.0,0.0,2.6369,2.7678,2.8414,2.8347,2.784,2.6604,0.0,0.0,0.0,0.0,0.0,0.0,0.0,0.0,0.0,0.0,0.0,0.0,0.0,0.0,0.0,0.0,0.0,0.0,0.0,0.0,0.0,0.0,0.0,0.0,0.0,0.0,0.0,0.0,0.0,0.0,0.0,0.0,0.0,0.0,0.0,0.0,0.0,0.0,0.0,0.0,0.0,0.0,0.0,0.0,0.0,0.0,0.0,0.0,0.0,0.0,0.0,0.0,0.0,0.0,0.0,0.0,0.0,0.0,0.0,0.0,0.0,0.0,0.0,0.0,0.0,0.0,0.0,0.0,0.0,0.0,0.0,0.0,0.0,0.0,0.0,0.0,0.0,0.0,0.0,0.0,0.0,0.0,0.0,0.0,0.0,0.0,0.0,0.0,0.0,0.0,0.0,0.0,0.0,0.0,0.0,0.0,0.0,0.0,0.0,0.0,0.0,0.0,0.0,0.0,0.0,0.0,0.0,0.0,0.0,2.7213,0.0,2.9064,0.0,2.8014,2.6767,0.0,0.0,0.0,0.0,0.0,0.0,0.0,0.0,0.0,0.0,0.0,0.0,0.0,0.0,0.0,0.0,0.0,0.0,0.0,0.0,0.0,0.0,0.0,0.0,0.0,0.0,0.0,0.0,0.0,0.0,0.0,0.0,0.0,0.0,0.0,0.0,0.0,0.0,0.0,0.0,0.0,0.0,0.0,0.0,0.0,0.0,0.0,0.0,0.0,0.0,0.0,0.0,0.0,0.0,0.0,0.0,0.0,0.0,0.0,0.0,0.0,0.0,0.0,0.0,0.0,0.0,0.0,0.0,0.0,0.0,0.0,0.0,0.0,0.0,0.0,0.0,0.0,0.0,0.0,0.0,0.0,0.0,0.0,0.0,0.0,0.0,0.0,0.0,0.0,0.0,0.0,0.0,0.0,0.0,0.0,0.0,0.0,0.0,0.0,0.0,0.0,0.0,0.0,0.0,0.0,0.0,0.0,0.0,2.7869,2.8978,2.9385,2.9545,2.9322,2.8103,2.6777,0.0,0.0,0.0,0.0,0.0,0.0,0.0,0.0,0.0,0.0,0.0,0.0,0.0,0.0,0.0,0.0,0.0,0.0,0.0,0.0,0.0,0.0,0.0,0.0,0.0,0.0,0.0,0.0,0.0,0.0,0.0,0.0,0.0,0.0,0.0,0.0,0.0,0.0,0.0,0.0,0.0,0.0,0.0,0.0,0.0,0.0,0.0,0.0,0.0,0.0,0.0,0.0,0.0,0.0,0.0,0.0,0.0,0.0,0.0,0.0,0.0,0.0,0.0,0.0,0.0,0.0,0.0,0.0,0.0,0.0,0.0,0.0,0.0,0.0,0.0,0.0,0.0,0.0,0.0,0.0,0.0,0.0,0.0,0.0,0.0,0.0,0.0,0.0,0.0,0.0,0.0,0.0,0.0,0.0,0.0,0.0,0.0,0.0,0.0,0.0,0.0,0.0,0.0,0.0,0.0,0.0,0.0,0.0,0.0,3.1357,3.1364,3.1338,3.1235,2.9588,2.7898,0.0,0.0,0.0,0.0,0.0,0.0,0.0,0.0,0.0,0.0,0.0,0.0,0.0,0.0,0.0,0.0,0.0,0.0,0.0,0.0,0.0,0.0,0.0,0.0,0.0,0.0,0.0,0.0,0.0,0.0,0.0,0.0,0.0,0.0,0.0,0.0,0.0,0.0,0.0,0.0,0.0,0.0,0.0,0.0,0.0,0.0,0.0,0.0,0.0,0.0,0.0,0.0,0.0,0.0,0.0,0.0,0.0,0.0,0.0,0.0,0.0,0.0,0.0,0.0,0.0,0.0,0.0,0.0,0.0,0.0,0.0,0.0,0.0,0.0,0.0,0.0,0.0,0.0,0.0,0.0,0.0,0.0,0.0,0.0,0.0,0.0,0.0,0.0,0.0,0.0,0.0,0.0,0.0,0.0,0.0,0.0,0.0,0.0,0.0,0.0,0.0,0.0,0.0,0.0,0.0,0.0,0.0,0.0,0.0,3.5012,3.4305,3.3699,3.3266,3.1366,2.9345,2.7264,0.0,0.0,0.0,0.0,0.0,0.0,0.0,0.0,0.0,0.0,0.0,0.0,0.0,0.0,0.0,0.0,0.0,0.0,0.0,0.0,0.0,0.0,0.0,0.0,0.0,0.0,0.0,0.0,0.0,0.0,0.0,0.0,0.0,0.0,0.0,0.0,0.0,0.0,0.0,0.0,0.0,0.0,0.0,0.0,0.0,0.0,0.0,0.0,0.0,0.0,0.0,0.0,0.0,0.0,0.0,0.0,0.0,0.0,0.0,0.0,0.0,0.0,0.0,0.0,0.0,0.0,0.0,0.0,0.0,0.0,0.0,0.0,0.0,0.0,0.0,0.0,0.0,0.0,0.0,0.0,0.0,0.0,0.0,0.0,0.0,0.0,0.0,0.0,0.0,0.0,0.0,0.0,0.0,0.0,0.0,0.0,0.0,0.0,0.0,0.0,0.0,0.0,0.0,0.0,0.0,0.0,0.0,0.0,3.9755,3.8186,3.6713,3.5423,3.3394,3.1119,0.0,0.0,0.0,0.0,0.0,0.0,0.0,0.0,0.0,0.0,0.0,0.0,0.0,0.0,0.0,0.0,0.0,0.0,0.0,0.0,0.0,0.0,0.0,0.0,0.0,0.0,0.0,0.0,0.0,0.0,0.0,0.0,0.0,0.0,0.0,0.0,0.0,0.0,0.0,0.0,0.0,0.0,0.0,0.0,0.0,0.0,0.0,0.0,0.0,0.0,0.0,0.0,0.0,0.0,0.0,0.0,0.0,0.0,0.0,0.0,0.0,0.0,0.0,0.0,0.0,0.0,0.0,0.0,0.0,0.0,0.0,0.0,0.0,0.0,0.0,0.0,0.0,0.0,0.0,0.0,0.0,0.0,0.0,0.0,0.0,0.0,0.0,0.0,0.0,0.0,0.0,0.0,0.0,0.0,0.0,0.0,0.0,0.0,0.0,0.0,0.0,0.0,0.0,0.0,0.0,0.0,0.0,0.0,0.0,4.3253,4.3574,4.2387,3.9706,3.6386,3.3501,0.0,0.0,0.0,0.0,0.0,0.0,0.0,0.0,0.0,0.0,0.0,0.0,0.0,0.0,0.0,0.0,0.0,0.0,0.0,0.0,0.0,0.0,0.0,0.0,0.0,0.0,0.0,0.0,0.0,0.0,0.0,0.0,0.0,0.0,0.0,0.0,0.0,0.0,0.0,0.0,0.0,0.0,0.0,0.0,0.0,0.0,0.0,0.0,0.0,0.0,0.0,0.0,0.0,0.0,0.0,0.0,0.0,0.0,0.0,0.0,0.0,0.0,0.0,0.0,0.0,0.0,0.0,0.0,0.0,0.0,0.0,0.0,0.0,0.0,0.0,0.0,0.0,0.0,0.0,0.0,0.0,0.0,0.0,0.0,0.0,0.0,0.0,0.0,0.0,0.0,0.0,0.0,0.0,0.0,0.0,0.0,0.0,0.0,0.0,0.0,0.0,0.0,0.0,0.0,0.0,0.0,0.0,0.0,4.2353,4.5458,4.7134,4.6828,4.4494,3.9888,3.5913,0.0,0.0,0.0,0.0,0.0,0.0,0.0,0.0,0.0,0.0,0.0,0.0,0.0,0.0,0.0,0.0,0.0,0.0,0.0,0.0,0.0,0.0,0.0,0.0,0.0,0.0,0.0,0.0,0.0,0.0,0.0,0.0,0.0,0.0,0.0,0.0,0.0,0.0,0.0,0.0,0.0,0.0,0.0,0.0,0.0,0.0,0.0,0.0,0.0,0.0,0.0,0.0,0.0,0.0,0.0,0.0,0.0,0.0,0.0,0.0,0.0,0.0,0.0,0.0,0.0,0.0,0.0,0.0,0.0,0.0,0.0,0.0,0.0,0.0,0.0,0.0,0.0,0.0,0.0,0.0,0.0,0.0,0.0,0.0,0.0,0.0,0.0,0.0,0.0,0.0,0.0,0.0,0.0,0.0,0.0,0.0,0.0,0.0,0.0,0.0,0.0,0.0,0.0,0.0,0.0,0.0,0.0,0.0,4.4437,4.6965,4.9303,5.009,4.9024,4.3515,3.8366,0.0,0.0,0.0,0.0,0.0,0.0,0.0,0.0,0.0,0.0,0.0,0.0,0.0,0.0,0.0,0.0,0.0,0.0,0.0,0.0,0.0,0.0,0.0,0.0,0.0,0.0,0.0,0.0,0.0,0.0,0.0,0.0,0.0,0.0,0.0,0.0,0.0,0.0,0.0,0.0,0.0,0.0,0.0,0.0,0.0,0.0,0.0,0.0,0.0,0.0,0.0,0.0,0.0,0.0,0.0,0.0,0.0,0.0,0.0,0.0,0.0,0.0,0.0,0.0,0.0,0.0,0.0,0.0,0.0,0.0,0.0,0.0,0.0,0.0,0.0,0.0,0.0,0.0,0.0,0.0,0.0,0.0,0.0,0.0,0.0,0.0,0.0,0.0,0.0,0.0,0.0,0.0,0.0,0.0,0.0,0.0,0.0,0.0,0.0,0.0,0.0,0.0,0.0,0.0,0.0,0.0,0.0,0.0,4.6134,5.0159,5.0587,5.0948,5.1354,4.5947,4.1037,0.0,0.0,0.0,0.0,0.0,0.0,0.0,0.0,0.0,0.0,0.0,0.0,0.0,0.0,0.0,0.0,0.0,0.0,0.0,0.0,0.0,0.0,0.0,0.0,0.0,0.0,0.0,0.0,0.0,0.0,0.0,0.0,0.0,0.0,0.0,0.0,0.0,0.0,0.0,0.0,0.0,0.0,0.0,0.0,0.0,0.0,0.0,0.0,3.2977,0.0,0.0,0.0,0.0,0.0,0.0,0.0,0.0,0.0,0.0,0.0,0.0,0.0,0.0,0.0,0.0,0.0,0.0,0.0,0.0,0.0,0.0,0.0,0.0,0.0,0.0,0.0,0.0,0.0,0.0,0.0,0.0,0.0,0.0,0.0,0.0,0.0,0.0,0.0,0.0,0.0,0.0,0.0,0.0,0.0,0.0,0.0,0.0,0.0,0.0,0.0,0.0,0.0,0.0,0.0,0.0,0.0,0.0,0.0,4.7376,5.1068,5.175,5.183,5.1344,4.7632,4.336,0.0,0.0,0.0,0.0,0.0,0.0,0.0,0.0,0.0,0.0,0.0,0.0,0.0,0.0,0.0,0.0,0.0,0.0,0.0,0.0,0.0,0.0,0.0,0.0,0.0,0.0,0.0,0.0,0.0,0.0,0.0,0.0,0.0,0.0,0.0,0.0,0.0,0.0,0.0,0.0,0.0,0.0,0.0,0.0,0.0,0.0,0.0,0.0,0.0,0.0,0.0,0.0,0.0,0.0,0.0,0.0,0.0,0.0,0.0,0.0,0.0,0.0,0.0,0.0,0.0,0.0,0.0,0.0,0.0,0.0,0.0,0.0,0.0,0.0,0.0,0.0,0.0,0.0,0.0,0.0,0.0,0.0,0.0,0.0,0.0,0.0,0.0,0.0,0.0,0.0,0.0,0.0,0.0,0.0,0.0,0.0,0.0,0.0,0.0,0.0,0.0,0.0,0.0,0.0,0.0,0.0,0.0,4.4906,4.8479,5.1245,5.2593,5.2525,5.0973,4.8728,4.5055,3.9749,0.0,0.0,0.0,0.0,0.0,0.0,0.0,0.0,0.0,0.0,0.0,0.0,0.0,0.0,0.0,0.0,0.0,0.0,0.0,0.0,0.0,0.0,0.0,0.0,0.0,0.0,0.0,0.0,0.0,0.0,0.0,0.0,0.0,0.0,0.0,0.0,0.0,0.0,3.2225,3.3385,0.0,0.0,0.0,0.0,0.0,0.0,0.0,0.0,3.5503,0.0,0.0,0.0,0.0,0.0,0.0,0.0,0.0,0.0,0.0,0.0,0.0,0.0,0.0,0.0,0.0,0.0,0.0,0.0,0.0,0.0,0.0,0.0,0.0,0.0,0.0,0.0,0.0,0.0,0.0,0.0,0.0,0.0,0.0,0.0,0.0,0.0,0.0,0.0,0.0,0.0,0.0,0.0,0.0,0.0,0.0,0.0,0.0,0.0,0.0,0.0,0.0,0.0,0.0,0.0,0.0,4.1485,4.604,4.9717,5.2351,5.2499,5.2406,5.2069,4.8966,4.5131,4.0533,0.0,0.0,0.0,0.0,0.0,0.0,0.0,0.0,0.0,0.0,0.0,0.0,0.0,0.0,0.0,0.0,0.0,0.0,0.0,0.0,0.0,0.0,0.0,0.0,0.0,0.0,0.0,0.0,0.0,0.0,0.0,0.0,0.0,0.0,0.0,0.0,0.0,0.0,0.0,3.4806,3.526,0.0,0.0,0.0,0.0,0.0,0.0,0.0,0.0,3.6351,0.0,0.0,0.0,0.0,0.0,0.0,0.0,0.0,0.0,0.0,0.0,0.0,0.0,0.0,0.0,0.0,0.0,0.0,0.0,0.0,0.0,0.0,0.0,0.0,0.0,0.0,0.0,0.0,0.0,0.0,0.0,0.0,0.0,0.0,0.0,0.0,0.0,0.0,0.0,0.0,0.0,0.0,0.0,0.0,0.0,0.0,0.0,0.0,0.0,0.0,0.0,0.0,0.0,0.0,0.0,4.2385,4.6995,5.0433,5.2512,5.2849,5.2506,5.1474,4.8807,4.5185,0.0,0.0,0.0,0.0,0.0,0.0,0.0,0.0,0.0,0.0,0.0,0.0,0.0,0.0,0.0,0.0,0.0,0.0,0.0,0.0,0.0,0.0,0.0,0.0,0.0,0.0,0.0,0.0,0.0,0.0,0.0,0.0,0.0,0.0,0.0,0.0,0.0,0.0,0.0,0.0,3.6454,3.6945,3.6839,0.0,0.0,0.0,0.0,0.0,0.0,3.9374,3.8892,0.0,0.0,0.0,0.0,0.0,0.0,0.0,0.0,0.0,0.0,0.0,0.0,0.0,0.0,0.0,0.0,0.0,0.0,0.0,0.0,0.0,0.0,0.0,0.0,0.0,0.0,0.0,0.0,0.0,0.0,0.0,0.0,0.0,0.0,0.0,0.0,0.0,0.0,0.0,0.0,0.0,0.0,0.0,0.0,0.0,0.0,0.0,0.0,0.0,0.0,0.0,0.0,0.0,0.0,0.0,4.3218,4.7871,5.1006,5.2502,5.3128,5.2481,5.0544,4.8562,4.5073,0.0,0.0,0.0,0.0,0.0,0.0,0.0,0.0,0.0,0.0,0.0,0.0,0.0,0.0,0.0,0.0,0.0,0.0,0.0,0.0,0.0,0.0,0.0,0.0,0.0,0.0,0.0,0.0,0.0,0.0,0.0,0.0,0.0,0.0,0.0,0.0,0.0,0.0,0.0,0.0,0.0,3.8574,3.8781,3.84,0.0,0.0,0.0,0.0,4.0968,4.1707,0.0,0.0,0.0,0.0,0.0,0.0,0.0,0.0,0.0,0.0,0.0,0.0,0.0,0.0,0.0,0.0,0.0,0.0,0.0,0.0,0.0,0.0,0.0,0.0,0.0,0.0,0.0,0.0,0.0,0.0,0.0,0.0,0.0,0.0,0.0,0.0,0.0,0.0,0.0,0.0,0.0,0.0,0.0,0.0,0.0,0.0,0.0,0.0,0.0,0.0,0.0,0.0,0.0,0.0,0.0,0.0,4.4236,4.8592,5.1423,5.271,5.2999,5.225,5.0293,4.8191,4.4483,0.0,0.0,0.0,0.0,0.0,0.0,0.0,0.0,0.0,0.0,0.0,0.0,0.0,0.0,0.0,0.0,0.0,0.0,0.0,0.0,0.0,0.0,0.0,0.0,0.0,0.0,0.0,0.0,0.0,0.0,0.0,0.0,0.0,0.0,0.0,0.0,0.0,0.0,0.0,0.0,0.0,3.9753,4.0571,4.0911,4.0901,0.0,0.0,4.2668,4.2722,4.307,0.0,0.0,0.0,0.0,0.0,0.0,0.0,0.0,0.0,0.0,0.0,0.0,0.0,0.0,0.0,0.0,0.0,0.0,0.0,0.0,0.0,0.0,0.0,0.0,0.0,0.0,0.0,0.0,0.0,0.0,0.0,0.0,0.0,0.0,0.0,0.0,0.0,0.0,0.0,0.0,0.0,0.0,0.0,0.0,0.0,0.0,0.0,0.0,0.0,0.0,0.0,0.0,0.0,0.0,0.0,4.0616,4.4531,4.8674,5.123,5.2187,5.2827,5.2105,4.9858,4.7522,4.3914,0.0,0.0,0.0,0.0,0.0,0.0,0.0,0.0,0.0,0.0,0.0,0.0,0.0,0.0,0.0,0.0,0.0,0.0,0.0,0.0,0.0,0.0,0.0,0.0,0.0,0.0,0.0,0.0,0.0,0.0,0.0,0.0,0.0,0.0,0.0,0.0,0.0,0.0,0.0,0.0,0.0,0.0,4.2413,4.2888,0.0,0.0,0.0,4.5763,4.6516,0.0,0.0,0.0,0.0,0.0,0.0,0.0,0.0,0.0,0.0,0.0,0.0,0.0,0.0,0.0,0.0,0.0,0.0,0.0,0.0,0.0,0.0,0.0,0.0,0.0,0.0,0.0,0.0,0.0,0.0,0.0,0.0,0.0,0.0,0.0,0.0,0.0,0.0,0.0,0.0,0.0,0.0,0.0,0.0,0.0,0.0,0.0,0.0,0.0,0.0,0.0,0.0,0.0,0.0,0.0,0.0,0.0,4.4947,4.8681,5.0939,5.1708,5.2461,5.1693,4.9228,4.7091,0.0,0.0,0.0,0.0,0.0,0.0,0.0,0.0,0.0,0.0,0.0,0.0,0.0,0.0,0.0,0.0,0.0,0.0,0.0,0.0,0.0,0.0,0.0,0.0,0.0,0.0,0.0,2.5981,0.0,0.0,0.0,0.0,0.0,0.0,0.0,0.0,0.0,0.0,0.0,0.0,0.0,0.0,4.2944,4.4359,4.5155,4.5891,0.0,0.0,4.8581,4.9488,4.8895,4.7478,0.0,0.0,0.0,0.0,0.0,0.0,0.0,0.0,0.0,0.0,0.0,0.0,0.0,0.0,0.0,0.0,0.0,0.0,0.0,0.0,0.0,0.0,0.0,0.0,0.0,0.0,0.0,0.0,0.0,0.0,0.0,0.0,0.0,0.0,0.0,0.0,0.0,0.0,0.0,0.0,0.0,0.0,0.0,0.0,0.0,0.0,0.0,0.0,0.0,0.0,0.0,0.0,0.0,0.0,0.0,4.5721,4.8719,5.0711,5.1743,5.1852,5.0739,4.8356,4.7153,4.4105,0.0,0.0,0.0,0.0,0.0,0.0,0.0,0.0,0.0,0.0,0.0,0.0,0.0,0.0,0.0,0.0,0.0,0.0,0.0,0.0,0.0,0.0,0.0,0.0,0.0,0.0,0.0,0.0,0.0,0.0,0.0,0.0,0.0,0.0,0.0,0.0,0.0,0.0,0.0,0.0,0.0,4.4698,4.645,4.8081,4.91,0.0,0.0,5.0769,5.0208,4.9481,4.8124,4.5782,0.0,0.0,0.0,0.0,0.0,0.0,0.0,0.0,0.0,0.0,0.0,0.0,0.0,0.0,0.0,0.0,0.0,0.0,0.0,0.0,0.0,0.0,0.0,0.0,0.0,0.0,0.0,0.0,0.0,0.0,0.0,0.0,0.0,0.0,0.0,0.0,0.0,0.0,0.0,0.0,0.0,0.0,0.0,0.0,0.0,0.0,0.0,0.0,0.0,0.0,0.0,0.0,0.0,4.091,4.61,4.8872,5.0624,5.1338,5.1657,5.0634,4.8255,4.6366,4.3616,0.0,0.0,0.0,0.0,0.0,0.0,0.0,0.0,0.0,0.0,0.0,0.0,0.0,0.0,0.0,0.0,0.0,0.0,0.0,0.0,0.0,0.0,0.0,0.0,0.0,0.0,0.0,0.0,3.1636,3.1979,3.2349,0.0,0.0,0.0,0.0,0.0,0.0,0.0,0.0,0.0,0.0,4.6461,4.7658,4.917,0.0,0.0,5.1496,5.2039,5.2476,5.0914,4.8989,4.6877,4.3574,0.0,0.0,0.0,0.0,0.0,0.0,0.0,0.0,0.0,0.0,0.0,0.0,0.0,0.0,0.0,0.0,0.0,0.0,0.0,0.0,0.0,0.0,0.0,0.0,0.0,0.0,0.0,0.0,0.0,0.0,0.0,0.0,0.0,0.0,0.0,0.0,0.0,0.0,0.0,0.0,0.0,0.0,0.0,0.0,0.0,0.0,0.0,0.0,0.0,0.0,0.0,0.0,4.095,4.608,4.8769,5.0314,5.0862,5.12,5.0316,4.8051,4.6095,4.373,0.0,0.0,0.0,0.0,0.0,0.0,0.0,0.0,0.0,0.0,0.0,0.0,0.0,0.0,0.0,0.0,0.0,0.0,0.0,0.0,0.0,0.0,0.0,0.0,0.0,0.0,0.0,0.0,3.3162,3.2966,3.2865,0.0,0.0,0.0,0.0,0.0,0.0,0.0,0.0,0.0,0.0,4.841,4.9399,5.0857,5.2067,5.2623,5.2913,5.3161,5.3529,5.1674,4.9519,4.76,0.0,0.0,0.0,0.0,0.0,0.0,0.0,0.0,0.0,0.0,0.0,0.0,0.0,0.0,0.0,0.0,0.0,0.0,0.0,0.0,0.0,0.0,0.0,0.0,0.0,0.0,0.0,2.9996,0.0,0.0,2.8333,0.0,0.0,0.0,0.0,0.0,0.0,0.0,0.0,0.0,0.0,0.0,0.0,0.0,0.0,0.0,0.0,0.0,0.0,0.0,0.0,0.0,0.0,4.089,4.5727,4.8335,4.987,5.043,5.0404,4.9543,4.7686,4.6617,4.4773,4.198,0.0,0.0,0.0,0.0,0.0,0.0,0.0,0.0,0.0,0.0,0.0,0.0,0.0,0.0,0.0,0.0,0.0,0.0,0.0,0.0,0.0,0.0,0.0,0.0,0.0,0.0,3.4879,3.4615,3.4213,0.0,0.0,0.0,0.0,0.0,0.0,0.0,0.0,0.0,0.0,4.8223,5.0553,5.1914,5.357,5.4381,5.398,5.4338,5.421,5.2877,5.1404,4.9744,0.0,0.0,0.0,0.0,0.0,0.0,0.0,0.0,0.0,0.0,0.0,0.0,0.0,0.0,0.0,0.0,0.0,0.0,0.0,0.0,0.0,0.0,0.0,0.0,0.0,0.0,0.0,3.3413,3.2888,0.0,0.0,0.0,0.0,0.0,0.0,0.0,0.0,0.0,0.0,0.0,4.237,4.143,0.0,0.0,0.0,0.0,0.0,0.0,0.0,0.0,0.0,0.0,0.0,0.0,4.1764,4.6234,4.8541,4.9907,5.0384,5.036,4.95,4.7666,4.6894,4.4798,4.1061,0.0,0.0,0.0,0.0,0.0,0.0,0.0,0.0,0.0,0.0,0.0,0.0,0.0,0.0,0.0,0.0,0.0,0.0,0.0,0.0,0.0,0.0,0.0,0.0,0.0,3.5093,0.0,0.0,0.0,0.0,0.0,0.0,0.0,0.0,0.0,0.0,0.0,4.5796,4.8263,5.0735,5.2395,5.2754,5.3648,5.4229,0.0,0.0,0.0,0.0,0.0,0.0,0.0,0.0,0.0,0.0,0.0,0.0,0.0,0.0,4.8428,4.5773,4.6619,4.7887,4.8173,0.0,0.0,0.0,0.0,0.0,0.0,0.0,0.0,0.0,0.0,0.0,0.0,0.0,0.0,3.633,3.5809,3.492,0.0,0.0,0.0,0.0,0.0,0.0,0.0,0.0,4.4095,4.5428,4.6473,4.5557,4.4877,0.0,4.2552,4.0004,0.0,0.0,0.0,0.0,0.0,0.0,0.0,0.0,4.2728,4.7107,4.8986,5.0148,5.0611,5.0508,4.9559,4.7921,4.7143,4.5205,4.1871,4.0038,3.7585,0.0,0.0,0.0,0.0,0.0,0.0,0.0,0.0,0.0,0.0,0.0,0.0,0.0,0.0,0.0,0.0,0.0,0.0,0.0,0.0,0.0,0.0,0.0,3.6137,0.0,0.0,0.0,0.0,0.0,0.0,0.0,0.0,0.0,4.3889,4.6074,4.8384,5.0517,5.2293,5.3488,5.3739,0.0,0.0,0.0,0.0,0.0,0.0,0.0,5.1666,5.109,5.093,5.1111,5.1675,5.2714,5.3784,5.4653,0.0,0.0,5.1762,5.2433,5.364,5.3961,5.4354,5.4689,5.4844,5.5386,5.5921,0.0,0.0,0.0,0.0,0.0,0.0,0.0,0.0,3.9561,3.9394,0.0,3.8269,0.0,0.0,0.0,0.0,3.9492,4.1282,0.0,0.0,4.7774,4.8897,4.9885,4.9389,4.8949,4.8511,4.6989,4.5448,4.3716,3.9086,0.0,0.0,0.0,0.0,0.0,0.0,4.3765,4.8025,4.9516,5.0544,5.1063,5.0629,4.9763,4.846,4.7347,4.6025,4.4405,4.246,3.9971,3.6996,3.5003,0.0,0.0,0.0,0.0,0.0,0.0,0.0,0.0,0.0,0.0,0.0,0.0,0.0,0.0,0.0,0.0,0.0,0.0,0.0,0.0,3.7606,0.0,0.0,0.0,0.0,0.0,0.0,0.0,0.0,0.0,0.0,4.6417,4.8284,5.0273,5.2203,0.0,0.0,0.0,0.0,5.5837,5.58,5.58,5.5432,5.4365,5.4752,5.4819,5.3885,0.0,0.0,5.6066,5.6424,5.6924,5.7389,5.9247,5.9825,5.7069,5.7116,5.7561,5.7633,5.8115,5.8334,5.8422,5.9415,5.9861,4.1203,0.0,0.0,0.0,0.0,4.0696,4.1657,4.2466,4.2108,4.2214,4.2553,4.1205,0.0,0.0,0.0,0.0,0.0,0.0,4.7201,4.8988,5.0551,5.1492,5.1864,5.1357,5.0875,5.0397,4.9534,4.8273,4.6674,4.4995,4.1854,3.7397,0.0,0.0,0.0,0.0,4.4493,4.7608,4.8821,4.9908,5.0998,5.0285,4.9545,4.886,4.8218,4.7404,4.6461,4.5485,4.357,4.0529,3.8171,0.0,0.0,0.0,0.0,0.0,0.0,0.0,0.0,0.0,0.0,0.0,0.0,0.0,0.0,0.0,0.0,0.0,0.0,0.0,3.9421,3.9818,3.9891,0.0,0.0,0.0,0.0,0.0,0.0,0.0,0.0,0.0,5.2269,5.2604,5.3401,0.0,0.0,5.6714,5.641,5.6816,5.6956,5.6295,5.6263,0.0,5.6231,5.6072,5.6111,5.6522,5.7876,5.892,5.9069,6.0062,6.1024,6.1467,6.2384,6.2806,6.2489,6.2696,6.3224,6.3914,6.4424,6.4704,6.4796,6.5291,6.5479,4.5412,4.2621,4.2471,4.2671,4.3222,4.4061,4.4933,4.5758,4.54,4.5437,4.5662,4.4658,4.4176,4.4159,4.4071,0.0,0.0,0.0,4.9941,5.1179,5.2469,5.3213,5.3509,5.3389,5.2995,5.2425,5.1705,5.0681,4.9359,4.8443,4.6118,4.2481,0.0,0.0,4.1763,4.3756,4.5922,4.8317,4.9117,5.0055,5.1265,5.0449,4.9841,4.9531,4.907,4.8571,4.7993,4.7295,4.5698,4.3068,4.0909,3.858,0.0,0.0,0.0,0.0,0.0,0.0,0.0,0.0,0.0,0.0,0.0,3.2139,0.0,0.0,0.0,0.0,3.884,4.0575,4.2326,4.2438,0.0,0.0,0.0,0.0,0.0,0.0,0.0,4.9913,5.2599,5.4716,5.5477,5.5959,5.6456,5.703,5.7492,5.7694,5.7384,0.0,5.7438,5.7319,5.7158,5.7199,5.7656,5.781,5.8225,5.9254,6.0224,6.088,6.0975,6.1885,6.2677,6.3012,6.3542,6.4114,6.4353,6.4814,6.5335,6.6069,6.6429,6.6643,6.6924,6.746,6.7784,4.9215,4.861,4.7335,4.7117,4.7579,4.787,4.8365,4.8946,4.8946,4.8697,4.8299,4.8294,4.8013,4.7515,4.8238,0.0,4.9503,5.0888,5.2084,5.3084,5.3729,5.4289,5.4839,5.5175,5.4985,5.4274,5.3471,5.2636,5.168,5.0146,4.8935,4.801,4.5841,4.458,4.4234,4.5901,4.7711,4.9466,4.9881,5.059,5.1545,5.0816,5.037,5.0305,4.9972,4.9533,4.902,4.8125,4.6734,4.4857,4.3136,4.1055,3.8527,0.0,0.0,0.0,0.0,0.0,0.0,0.0,0.0,0.0,0.0,0.0,0.0,0.0,0.0,0.0,4.2368,0.0,4.5715,4.5546,0.0,0.0,0.0,4.9087,5.2744,5.2771,5.3019,5.4439,0.0,0.0,5.6666,5.831,5.9136,5.8134,5.7666,5.7616,5.8066,5.7778,5.779,5.8621,5.8453,5.8344,5.8909,5.9715,6.0558,6.1472,6.1876,6.1761,6.1782,6.2187,6.2478,6.2523,6.3322,6.3939,6.3939,6.4314,6.4819,6.5304,6.5434,6.5608,6.6097,6.6837,6.7338,5.1009,5.0547,5.0605,5.0019,4.9111,4.942,4.99,5.0371,5.0396,5.0455,5.0622,5.0955,5.1012,5.0879,5.162,5.1852,5.1817,5.3469,5.4051,5.3844,5.472,5.5049,5.4962,5.465,5.4454,5.426,5.4028,5.3081,5.1574,5.1657,5.0942,4.9425,4.9084,4.793,4.6072,4.6491,4.7458,4.8916,4.9032,4.9635,5.0589,5.0466,5.024,4.9936,5.0114,4.9847,4.9049,4.8767,4.7896,4.6321,4.4487,4.2469,4.0192,3.7271,0.0,0.0,0.0,0.0,0.0,0.0,0.0,0.0,0.0,3.5963,3.8352,0.0,4.0765,0.0,4.5341,4.8027,5.0926,5.0807,0.0,0.0,5.3083,5.3343,5.5079,5.6582,5.7189,5.6542,5.8535,5.9698,5.8928,5.927,5.9612,5.9726,5.9647,5.9471,5.9288,5.947,5.9605,5.9473,5.9652,6.0056,6.0479,6.109,6.1526,6.1853,6.1607,6.1382,6.1382,6.1786,6.2055,6.21,6.2858,6.3434,6.3522,6.388,6.4388,6.4856,6.5209,6.5621,6.6148,6.6478,6.6597,5.3009,5.2946,5.3156,5.2746,5.1946,5.1369,5.1524,5.2173,5.2584,5.2861,5.3076,5.3569,5.3777,5.3753,5.4021,5.4014,5.3939,5.4767,5.4938,5.4549,5.4929,5.4809,5.4439,5.456,5.4259,5.3645,5.3791,5.3103,5.1819,5.1745,5.1274,5.0422,4.9976,4.9236,4.8209,4.812,4.8386,4.8967,4.9652,5.0067,5.0224,5.0514,5.0274,4.9501,4.9474,4.9049,4.8143,4.79,4.7403,4.6571,4.5272,4.3903,4.2367,3.9813,3.7828,0.0,0.0,0.0,0.0,0.0,0.0,0.0,0.0,0.0,0.0,0.0,4.5428,4.8025,4.9859,5.1808,5.4005,5.4512,5.5533,5.7503,5.7462,5.7847,5.9111,6.0155,6.0172,5.8766,6.0045,6.0633,5.9479,5.9682,5.9971,6.0124,6.0278,6.0224,5.9991,6.006,6.0083,6.0036,6.0083,6.0293,6.0799,6.1072,6.1276,6.1271,6.1206,6.1209,6.1232,6.2009,6.2603,6.2693,6.355,6.4331,6.4356,6.4752,6.5181,6.5416,6.5718,6.5986,6.6264,6.6525,6.6697,5.4634,5.4929,5.4889,5.4916,5.4891,5.334,5.3107,5.3914,5.4856,5.5385,5.5492,5.5926,5.5978,5.5791,5.5564,5.5466,5.5453,5.5225,5.5136,5.5159,5.4692,5.4245,5.3814,5.4424,5.3994,5.2801,5.2992,5.2725,5.1922,5.1104,5.0882,5.1121,4.9846,4.9505,5.0123,4.9878,4.9637,4.936,5.0706,5.1032,5.0375,5.077,5.0366,4.9125,4.8687,4.8003,4.706,4.6618,4.6365,4.6284,4.5775,4.5283,4.4788,4.3073,4.1703,0.0,4.0349,0.0,0.0,0.0,0.0,0.0,0.0,0.0,0.0,4.8838,5.0727,5.3518,5.458,5.5462,5.6239,5.7489,5.8917,6.0616,6.0949,6.157,6.2713,6.2641,6.1851,6.0462,6.0696,6.045,5.917,5.976,6.0211,5.9834,6.0106,6.0387,6.0362,6.0158,6.0161,6.0514,6.0258,6.0413,6.0725,6.0773,6.0821,6.0776,6.1097,6.1327,6.1327,6.2502,6.3495,6.3563,6.4474,6.5382,6.55,6.5822,6.6191,6.6189,6.6242,6.6354,6.6367,6.6692,6.7115,5.4387,5.4192,5.4517,5.4895,5.5197,5.4493,5.4375,5.4734,5.5766,5.6695,5.7378,5.7098,5.635,5.5387,5.5679,5.539,5.4719,5.5041,5.5148,5.5074,5.4612,5.4294,5.406,5.3066,5.2556,5.2377,5.1986,5.1406,5.0706,5.1168,5.1278,5.1008,5.0331,5.015,5.0511,0.0,0.0,0.0,5.0362,5.0891,5.1151,5.0988,5.0484,4.9633,4.913,0.0,4.71,4.6918,4.6845,4.6746,4.6311,0.0,0.0,0.0,0.0,0.0,0.0,0.0,0.0,0.0,0.0,0.0,5.1816,5.1125,5.0332,5.1675,5.3583,5.5836,5.6604,5.7839,5.9945,6.0375,6.0695,6.1064,6.1155,6.1097,6.0927,6.0858,6.0494,5.9778,6.0114,6.0048,5.9098,5.9715,6.0091,5.9723,6.0093,6.039,6.0426,6.0679,6.1077,6.1576,6.1469,6.1573,6.1716,6.1646,6.1623,6.1717,6.181,6.1832,6.1948,6.2758,6.3496,6.3566,6.4342,6.5056,6.505,6.5456,6.5818,6.5826,6.6179,6.6463,6.6465,6.6536,6.6773,5.4933,5.4955,5.496,5.5111,0.0,5.4818,5.4801,5.521,5.6425,5.7498,5.8304,5.7306,5.6621,5.6151,5.5932,5.5622,5.5159,5.5093,5.4919,5.4622,5.3833,5.3304,5.2855,5.177,5.127,5.1292,5.1117,5.083,5.0435,5.0824,5.1074,5.1056,4.9947,4.9724,5.0397,4.9872,4.9753,5.0008,5.0552,5.0774,5.0617,5.0465,4.9872,4.886,4.8666,0.0,0.0,0.0,0.0,0.0,0.0,0.0,0.0,0.0,0.0,4.9646,4.9962,5.0849,5.2511,5.3317,5.4574,5.6554,5.6235,5.5248,5.3851,5.5297,5.6548,5.7402,5.8366,5.9314,6.0045,6.073,6.0959,6.0547,6.0858,6.0825,6.0088,6.0385,6.0319,5.9613,5.9719,5.9547,5.8831,5.9179,5.9535,5.9623,5.981,6.0223,6.069,6.0783,6.0919,6.116,6.1461,6.1597,6.1654,6.1844,6.2012,6.2038,6.2199,6.2431,6.2687,6.3549,6.4248,6.4295,6.5017,6.5581,6.5095,6.5353,6.5607,6.5423,6.5526,6.5852,6.6063,6.6299,6.6577,5.5234,5.5546,5.5283,5.5257,5.5383,5.4868,5.4887,5.5358,5.6663,0.0,0.0,5.6985,5.6416,5.6457,5.5649,5.5255,5.5214,5.4707,5.4212,5.3807,5.286,5.2024,5.129,5.0602,5.0218,5.0081,5.0177,5.0264,5.0241,5.0245,5.0477,5.0779,4.944,4.9216,5.0009,4.9864,4.9911,5.0212,5.0835,5.0811,5.0025,4.9954,4.9409,4.8282,4.8211,4.8057,4.774,4.8211,4.8722,4.9147,4.9752,5.0527,5.1402,5.1335,5.1643,5.2553,5.3045,5.4388,5.6829,5.6822,5.7592,5.9749,5.9079,5.8084,5.6955,5.8069,5.8735,5.8457,5.9632,5.9976,5.9193,6.0198,6.0538,5.9511,6.0184,6.0289,5.9378,5.9898,5.9984,5.937,5.9237,5.9079,5.8637,5.8759,5.8934,5.9328,5.9638,6.0038,6.0897,6.0951,6.0863,6.0889,6.1356,6.1556,6.1553,6.2013,6.2233,6.2359,6.2636,6.3007,6.35,6.4342,6.4882,6.4717,6.5683,6.5823,6.5243,6.5399,6.5518,6.5102,6.5116,6.5302,6.586,6.6324,6.663,5.3965,5.4054,5.4435,5.505,5.5771,5.5267,5.5021,5.5151,5.6201,5.7008,5.7442,5.6339,5.5158,5.4001,5.341,5.3112,5.3024,5.2526,5.2382,5.2546,5.1898,5.1099,5.0277,4.9599,4.9311,4.9222,4.8847,4.8799,4.9082,4.934,4.9673,5.0126,4.9847,4.9662,4.9673,4.93,4.9382,4.997,5.0937,5.1229,5.0762,5.0522,5.0174,4.9714,4.8994,4.8672,4.8762,4.9277,4.9713,5.0166,5.1047,5.2122,5.3402,5.4206,5.5286,5.6582,5.7147,5.7802,5.857,5.7862,5.7524,5.7941,5.8897,5.8934,5.7524,5.7984,5.8545,5.8851,5.9464,5.98,5.9633,6.0032,5.982,5.8536,5.9078,5.9198,5.8159,5.8161,5.8428,5.8623,5.856,5.8459,5.8289,5.8799,5.9145,5.9047,5.962,6.0415,6.0992,6.149,6.1705,6.1828,6.2192,6.2435,6.237,6.2942,6.3111,6.3302,6.3302,6.3347,6.3536,6.4286,6.4802,6.4417,6.5241,6.5511,6.507,6.5328,6.551,6.5453,6.5684,6.6147,6.6627,6.6871,6.7104,5.345,5.3653,5.3914,5.44,5.5004,5.4419,5.4121,5.4086,5.4298,5.4809,5.5422,5.4424,5.3767,5.3306,5.2804,5.2346,5.198,5.1971,5.1663,5.1101,5.0702,5.0203,4.9537,4.8649,4.8478,4.8902,4.8242,4.8227,4.8832,4.8901,4.9167,4.9583,4.9475,4.9318,4.9176,4.9283,4.9511,4.989,5.0394,5.0575,5.0479,5.0364,5.0122,4.9841,4.9669,4.9906,5.0283,5.1062,5.1709,5.2246,5.2915,5.3688,5.4622,5.5102,5.596,5.7377,5.7489,5.7806,5.8514,5.8169,5.7867,5.7915,5.8777,5.8781,5.7518,5.8471,5.8912,5.8628,5.9446,5.9518,5.8552,5.896,5.8846,5.7605,5.8033,5.8192,5.7797,5.7904,5.8232,5.8676,5.8769,5.8765,5.8644,5.9055,5.9321,5.9157,5.9809,6.0463,6.0941,6.1265,6.1381,6.1234,6.1564,6.1999,6.2288,6.272,6.3151,6.3461,6.3508,6.3623,6.3807,6.4369,6.4528,6.4656,6.5204,6.5382,6.5024,6.5273,6.5411,6.5158,6.5277,6.5669,6.6113,6.6726,6.7286,5.3038,5.319,5.3337,5.3597,5.3867,5.3518,5.3192,5.2801,5.2412,5.2565,5.2934,5.2469,5.2469,5.2756,5.2176,5.1593,5.1289,5.127,5.0826,4.9898,4.9613,4.9262,4.8815,4.7999,4.7999,4.8562,4.7884,4.7958,4.8628,4.8563,4.8752,4.9223,4.9092,4.9024,4.9047,4.9263,4.9513,4.9825,4.9807,5.0027,5.0421,5.0329,5.023,5.0247,5.0626,5.1138,5.1756,5.2635,5.3425,5.3951,5.4428,5.483,5.5094,5.533,5.5944,5.6836,5.6897,5.7061,5.7772,5.8178,5.8288,5.8176,5.8863,5.8906,5.8132,5.8896,5.9239,5.86,5.9285,5.922,5.8006,5.8185,5.8107,5.7127,5.733,5.7511,5.7433,5.7713,5.8125,5.8601,5.8792,5.8944,5.9066,5.9202,5.9346,5.9567,6.0027,6.0506,6.0906,6.1036,6.0971,6.0784,6.1068,6.1632,6.2003,6.2507,6.3009,6.3446,6.3491,6.36,6.3899,6.4085,6.4307,6.4706,6.5061,6.5172,6.4961,6.5217,6.5312,6.5093,6.5159,6.536,6.5933,6.6894,6.7467,5.2468,5.2158,5.2606,5.2741,5.2734,5.2999,5.2528,5.1566,5.1446,5.0886,5.034,5.1111,5.1584,5.1518,5.0621,5.0299,5.0395,4.9478,4.9061,4.9084,4.8854,4.846,4.8088,4.8257,4.8322,4.8153,4.7733,4.776,4.8164,4.7843,4.8284,4.9364,4.9265,4.9299,4.9652,4.9032,4.8938,4.9584,4.9619,5.0215,5.1255,5.1005,5.1124,5.1677,5.184,5.2218,5.2812,5.3425,5.3951,5.4449,5.4925,5.502,5.4735,5.5446,5.5824,5.5609,5.6274,5.6724,5.6881,5.8025,5.8642,5.8161,5.9406,5.9868,5.9293,5.9253,5.9169,5.8818,5.8796,5.8746,5.8476,5.8418,5.7907,5.6989,5.7164,5.7269,5.6897,5.6723,5.6956,5.7468,5.8165,5.8439,5.8597,5.9036,5.9533,5.9935,6.0248,6.0641,6.091,6.1254,6.1438,6.1237,6.1786,6.2206,6.2164,6.2731,6.3214,6.338,6.3398,6.3447,6.3609,6.3847,6.4264,6.4449,6.4646,6.4849,6.5018,6.514,6.5473,6.5479,6.5685,6.6195,6.6835,6.7566,6.8008,5.1768,5.1796,5.1998,5.1973,5.1804,5.1868,5.1461,5.0722,5.0988,5.0863,5.0526,5.1001,5.0779,5.0047,5.0042,4.9708,4.8945,4.8915,4.8472,4.7833,4.7845,4.7893,4.7752,4.787,4.801,4.8046,4.7553,4.7458,4.7792,4.7925,4.8357,4.9014,4.9288,4.9393,4.9443,4.938,4.9432,4.9584,4.9885,5.069,5.1781,5.1524,5.1448,5.1815,5.2227,5.2758,5.3298,5.3663,5.3999,5.4497,5.4735,5.4838,5.4896,5.53,5.5712,5.6081,5.7004,5.7537,5.7464,5.8871,5.965,5.9438,6.0225,6.0277,5.919,5.8942,5.8672,5.8242,5.8366,5.8294,5.767,5.7688,5.7475,5.6899,5.702,5.7168,5.7007,5.7187,5.7536,5.7818,5.8293,5.8717,5.886,5.9333,5.9751,6.0032,6.025,6.0417,6.0768,6.1284,6.1533,6.1618,6.2342,6.2744,6.2471,6.2581,6.3033,6.3281,6.338,6.3375,6.3384,6.349,6.3789,6.4384,6.4657,6.506,6.5649,6.5685,6.5874,6.5889,6.5911,6.6318,6.6516,6.7177,6.7461,5.1617,5.1771,5.1594,5.1188,5.0736,5.0776,5.0437,5.0004,5.0472,5.0634,5.0472,5.0579,4.9919,4.8928,4.9438,4.9131,4.8306,4.8256,4.7861,4.713,4.7179,4.7377,4.7611,4.7601,4.7776,4.7966,4.741,4.7108,4.7255,4.782,4.8228,4.8529,4.9035,4.9305,4.9303,4.9801,5.0033,5.001,5.0383,5.1172,5.2274,5.2011,5.1968,5.2386,5.3016,5.348,5.3802,5.4059,5.4327,5.4662,5.471,5.4917,5.5331,5.5421,5.5773,5.653,5.7277,5.7746,5.7852,5.8981,5.9691,5.9741,6.0069,5.982,5.8721,5.8295,5.8063,5.7668,5.7901,5.7719,5.7389,5.7256,5.7206,5.6968,5.7226,5.7383,5.7402,5.7695,5.7878,5.8111,5.8505,5.9033,5.9303,5.9706,6.002,6.002,6.0041,6.0093,6.0542,6.1021,6.1412,6.1648,6.2346,6.2684,6.2634,6.2806,6.2963,6.3185,6.3351,6.3334,6.332,6.3357,6.371,6.4451,6.4695,6.5102,6.5795,6.6127,6.6195,6.6217,6.6217,6.6195,6.6271,6.6698,6.723,5.2261,5.1924,5.1342,5.0438,4.9434,4.9971,4.9804,4.919,4.972,4.9682,4.9386,4.9606,4.9096,4.8299,4.8516,4.8683,4.8645,4.7352,4.6967,4.7252,4.6878,4.6975,4.7569,4.7601,4.7776,4.7998,4.7394,4.6816,4.6275,4.709,4.764,4.7914,4.859,4.9074,4.9595,5.0203,5.0597,5.0738,5.0921,5.1577,5.2581,5.2501,5.2929,5.4011,5.4564,5.467,5.4479,5.4897,5.5165,5.5145,5.5165,5.5372,5.5786,5.5869,5.6125,5.6568,5.67,5.6928,5.7331,5.7967,5.8223,5.8098,5.8653,5.848,5.7907,5.7724,5.7581,5.7448,5.7411,5.754,5.7868,5.7545,5.7432,5.7711,5.7847,5.7832,5.7887,5.7984,5.7926,5.8046,5.8435,5.9073,5.9756,5.9988,5.9936,5.9988,5.9988,6.0041,6.0145,6.0542,6.1052,6.1393,6.1703,6.1876,6.2459,6.2633,6.2967,6.312,6.3011,6.3302,6.347,6.3681,6.414,6.4621,6.4984,6.5443,6.5977,6.6195,6.6217,6.6164,6.6164,6.6164,6.6164,6.6644,6.7124,5.1039,5.0295,5.031,4.9818,4.9199,4.9588,4.9668,4.9457,5.0026,5.011,4.9817,4.986,4.9627,4.9093,4.8414,4.7941,4.7621,4.7274,4.6897,4.659,4.6291,4.66,4.7204,4.7267,4.7442,4.7664,4.7341,4.694,4.6728,4.7356,4.7918,4.8529,4.9386,4.9996,5.0272,5.0769,5.118,5.1405,5.1765,5.2437,5.3306,5.3328,5.4045,5.5457,5.5175,5.5072,5.5311,5.5494,5.5641,5.5669,5.5621,5.5828,5.6332,5.6594,5.6801,5.7016,5.7285,5.7543,5.7729,5.8394,5.8686,5.8304,5.8643,5.8484,5.7793,5.7714,5.7691,5.7427,5.7545,5.7878,5.8148,5.7922,5.775,5.7851,5.8125,5.8301,5.8359,5.8515,5.8613,5.8372,5.8402,5.878,5.9557,5.9649,5.9569,5.9936,5.9988,5.9988,6.0093,6.0438,6.0886,6.1094,6.1353,6.1673,6.1854,6.2051,6.2232,6.2335,6.2438,6.2868,6.3188,6.3672,6.4168,6.4897,6.5356,6.5639,6.6108,6.6217,6.6164,6.6164,6.6164,6.6164,6.6164,6.6484,6.6804,5.022,4.9587,4.9717,4.9434,4.8973,4.9377,4.948,4.9386,4.9839,4.9989,4.9819,4.973,4.9546,4.9219,4.8521,4.7802,4.7195,4.7307,4.6999,4.6377,4.6362,4.6679,4.714,4.7124,4.7251,4.7532,4.7355,4.7227,4.7218,4.7618,4.8216,4.9035,4.983,5.0424,5.0886,5.1454,5.1856,5.2071,5.2588,5.3307,5.4067,5.407,5.4837,5.6129,5.5748,5.5588,5.602,5.626,5.6205,5.6128,5.635,5.6738,5.7194,5.7504,5.7608,5.7484,5.7759,5.7833,5.7737,5.8231,5.8387,5.8005,5.8136,5.7952,5.7482,5.7603,5.7639,5.7656,5.7871,5.8262,5.8555,5.8457,5.8356,5.832,5.8574,5.873,5.8769,5.9004,5.9037,5.8866,5.8848,5.9168,5.9629,5.9663,5.9807,6.003,5.9988,5.9988,6.0041,6.0281,6.0647,6.0782,6.0886,6.1094,6.1207,6.1228,6.1582,6.1737,6.1892,6.2386,6.3115,6.36,6.4325,6.5106,6.5596,6.5836,6.6011,6.6142,6.6164,6.6164,6.6164,6.6164,6.6164,6.6164,6.6644,4.9846,4.9734,4.9658,4.9279,4.8835,4.9292,4.9236,4.8914,4.9122,4.9307,4.9215,4.8994,4.8825,4.8541,4.8474,4.8151,4.7648,4.7367,4.7176,4.7023,4.6981,4.7172,4.7521,4.7335,4.7361,4.7674,4.7574,4.7584,4.7802,4.7993,4.8551,4.9441,4.983,5.0522,5.155,5.2127,5.2572,5.2847,5.3356,5.4158,5.4941,5.4805,5.5325,5.6575,5.629,5.617,5.654,5.69,5.6835,5.6575,5.7276,5.8054,5.8323,5.8426,5.8323,5.7911,5.7822,5.7567,5.7189,5.7084,5.7113,5.6926,5.6739,5.6938,5.7075,5.7197,5.7514,5.808,5.8441,5.8711,5.9043,5.9082,5.9043,5.916,5.9101,5.9101,5.914,5.916,5.9246,5.9351,5.9608,5.9962,6.0001,6.01,6.0233,6.0122,6.003,5.9988,5.9988,6.0093,6.0281,6.049,6.0542,6.049,6.049,6.0438,6.0855,6.1219,6.1447,6.1834,6.288,6.362,6.4442,6.5209,6.5814,6.6055,6.6055,6.6164,6.6164,6.6164,6.6164,6.6164,6.6164,6.6271,6.6751,4.8866,4.855,4.9279,4.9258,4.8791,4.9138,4.92,4.9066,4.9039,4.8882,4.8751,4.8668,4.8432,4.8254,4.826,4.8126,4.795,4.7823,4.7537,4.7198,4.7076,4.7283,4.7548,4.764,4.7859,4.8007,4.7842,4.7941,4.8456,4.883,4.9497,5.0217,5.1045,5.1436,5.1712,5.2558,5.3289,5.3782,5.4719,5.5537,5.6129,5.6136,5.6366,5.6741,5.6394,5.6302,5.6781,5.6913,5.6943,5.6738,5.7444,5.8068,5.8448,5.8264,5.7976,5.7823,5.7442,5.7128,5.6957,5.6869,5.6742,5.6587,5.6772,5.672,5.6635,5.7387,5.7918,5.8075,5.8511,5.9062,5.916,5.9199,5.9199,5.9199,5.9199,5.9199,5.9199,5.9255,5.9177,5.9243,5.9466,5.9752,5.9975,6.0258,6.03,6.0432,6.0216,6.003,6.0009,6.0009,5.9988,6.0177,6.0041,6.0041,6.0145,6.0218,6.0448,6.0762,6.097,6.1692,6.2694,6.3521,6.4417,6.5383,6.5914,6.6164,6.6164,6.6164,6.6164,6.6164,6.6164,6.6164,6.6164,6.6431,6.6751,4.844,4.8551,4.9052,4.912,4.892,4.9116,4.9171,4.9055,4.8833,4.8668,4.8516,4.8386,4.8271,4.8152,4.8125,4.8125,4.8125,4.8125,4.7887,4.7521,4.7458,4.7585,4.7755,4.7919,4.8073,4.8337,4.8439,4.8774,4.9386,4.9978,5.0604,5.1228,5.1942,5.2327,5.2325,5.3202,5.3914,5.4367,5.5292,5.6043,5.6379,5.6623,5.6742,5.6767,5.6445,5.655,5.7021,5.6916,5.6889,5.7206,5.767,5.8219,5.8706,5.8312,5.7919,5.7673,5.7358,5.7049,5.6873,5.6919,5.6762,5.648,5.6738,5.6972,5.6857,5.774,5.7971,5.8327,5.8781,5.9199,5.9199,5.9199,5.9199,5.9199,5.9199,5.9199,5.9235,5.9403,5.9495,5.9639,6.0016,6.0292,6.0427,6.0707,6.0605,6.0867,6.0547,6.0257,6.0216,6.0113,6.003,5.9988,5.9988,5.9988,5.9988,6.003,6.0071,6.0302,6.0479,6.158,6.2645,6.3174,6.3908,6.5342,6.6164,6.6164,6.6164,6.6164,6.6164,6.6164,6.6164,6.6164,6.6164,6.6164,6.6538,4.8495,4.9441,4.8958,4.8937,4.9166,4.9171,4.9008,4.885,4.8576,4.8464,4.8412,4.8244,4.8093,4.8125,4.8125,4.8125,4.8125,4.8243,4.8227,4.8222,4.8265,4.8367,4.8414,4.8453,4.8587,4.8872,4.9452,5.0023,5.0647,5.1239,5.1759,5.2269,5.2452,5.2745,5.3336,5.3939,5.4318,5.4801,5.559,5.6043,5.6121,5.6507,5.665,5.661,5.6591,5.6784,5.7084,5.6905,5.7018,5.7551,5.7949,5.8354,5.8804,5.8548,5.7949,5.7575,5.7462,5.7104,5.6906,5.6913,5.6793,5.6375,5.6747,5.6981,5.7356,5.7773,5.8227,5.8786,5.9104,5.9199,5.9199,5.9199,5.9255,5.9235,5.9347,5.9347,5.9291,5.9754,6.0032,6.0254,6.101,6.1624,6.1162,6.1529,6.1586,6.1363,6.0961,6.0651,6.0506,6.0299,6.005,6.0009,6.005,6.0195,6.0257,6.0485,6.0547,6.0589,6.08,6.1621,6.2804,6.3388,6.374,6.5099,6.6057,6.611,6.611,6.6057,6.611,6.6164,6.6164,6.6164,6.6164,6.6164,6.6538,4.8646,4.8958,4.9043,4.9116,4.9115,4.8857,4.8635,4.8551,4.835,4.8201,4.819,4.8136,4.8125,4.8125,4.8125,4.8125,4.8243,4.8655,4.8848,4.889,4.9301,4.9589,4.9741,4.9756,5.0087,5.0658,5.0898,5.146,5.2076,5.2564,5.2972,5.3157,5.331,5.364,5.4185,5.4256,5.487,5.5906,5.6313,5.6695,5.6899,5.707,5.7009,5.6635,5.6582,5.6689,5.6849,5.7043,5.7236,5.7382,5.7568,5.7913,5.8337,5.7913,5.7482,5.7336,5.7037,5.6699,5.6498,5.6569,5.6489,5.6533,5.7284,5.7682,5.7306,5.8441,5.8816,5.8904,5.89,5.9199,5.9199,5.9235,5.9403,5.9698,5.981,5.981,5.9865,6.031,6.0642,6.0753,6.1361,6.1685,6.1782,6.1809,6.1963,6.1769,6.1251,6.0734,6.0671,6.0299,5.9988,6.0133,6.0216,6.0402,6.0609,6.0878,6.0991,6.1074,6.1349,6.1922,6.3089,6.4146,6.436,6.4961,6.552,6.5703,6.581,6.5864,6.5971,6.6229,6.6251,6.6273,6.6207,6.6217,6.6751,4.8786,4.8898,4.9116,4.9102,4.8906,4.8585,4.8438,4.8307,4.819,4.8125,4.8184,4.842,4.8537,4.8537,4.8773,4.889,4.8933,4.9301,4.9477,4.9594,5.0063,5.028,5.0271,5.0294,5.0782,5.1507,5.1901,5.2377,5.2977,5.3556,5.3817,5.3874,5.4155,5.4542,5.4817,5.5093,5.5529,5.6363,5.6658,5.6826,5.7043,5.7062,5.6902,5.6635,5.6582,5.6582,5.6689,5.7116,5.7488,5.7575,5.7382,5.7222,5.7435,5.6796,5.6446,5.6548,5.6317,5.6132,5.6262,5.6478,5.6753,5.6986,5.7854,5.8159,5.814,5.8898,5.9065,5.8865,5.9012,5.918,5.9235,5.9383,5.9829,6.031,6.0587,6.0642,6.0421,6.0919,6.1216,6.1436,6.1767,6.2152,6.2131,6.2233,6.2294,6.2141,6.1541,6.1168,6.0941,6.0402,6.0009,6.0113,6.0361,6.0589,6.0816,6.1065,6.1404,6.1529,6.1984,6.2486,6.3117,6.4273,6.4638,6.4799,6.509,6.5402,6.5639,6.5919,6.6199,6.6404,6.6404,6.6338,6.6273,6.6324,6.6858,4.8898,4.9087,4.9115,4.8906,4.8567,4.8464,4.8307,4.8136,4.8109,4.8184,4.8361,4.8848,4.9083,4.92,4.9594,4.9929,4.9929,4.9988,5.0296,5.053,5.0938,5.1062,5.0895,5.0891,5.1291,5.1893,5.2416,5.3136,5.3809,5.4259,5.4447,5.4595,5.4968,5.5339,5.5616,5.612,5.6475,5.6782,5.6904,5.6924,5.6982,5.6982,5.6929,5.6929,5.6758,5.6743,5.6777,5.7059,5.7394,5.802,5.7107,5.6685,5.6504,5.5574,5.5348,5.5687,5.5801,5.5863,5.6171,5.6814,5.7306,5.7458,5.8215,5.8691,5.8843,5.9049,5.9178,5.9107,5.9199,5.9235,5.9383,5.9698,6.0254,6.0864,6.1436,6.1492,6.1326,6.1602,6.1877,6.1932,6.2406,6.2625,6.2679,6.2679,6.2659,6.2452,6.1872,6.1479,6.1127,6.063,6.0237,6.003,6.0361,6.0775,6.1003,6.1251,6.1686,6.2017,6.2558,6.2933,6.2949,6.3755,6.4389,6.482,6.5003,6.5413,6.5952,6.6233,6.6525,6.6601,6.6601,6.647,6.6392,6.6475,6.6858,4.8851,4.8516,4.8637,4.8618,4.8506,4.8297,4.8163,4.8125,4.8125,4.8361,4.8848,4.9083,4.9376,4.9829,4.9988,4.9988,5.0163,5.0572,5.1229,5.2216,5.2274,5.2621,5.2661,5.2424,5.2597,5.3177,5.3829,5.4441,5.4953,5.5011,5.5216,5.5274,5.5543,5.6085,5.6815,5.6819,5.7307,5.7811,5.7738,5.7519,5.7554,5.75,5.75,5.7426,5.7172,5.6995,5.6843,5.665,5.6541,5.6532,5.6491,5.6324,5.6115,5.5863,5.5738,5.587,5.5908,5.6025,5.6385,5.6986,5.7495,5.7814,5.8634,5.9169,5.8956,5.9352,5.9384,5.9297,5.918,5.9347,5.9698,5.9921,6.0532,6.1326,6.1712,6.1987,6.2241,6.2406,6.2406,6.2515,6.257,6.2679,6.2679,6.2679,6.2659,6.2597,6.2265,6.1735,6.1334,6.0878,6.0589,6.032,6.0754,6.121,6.1375,6.1624,6.2038,6.2307,6.2753,6.3062,6.3079,6.3526,6.4324,6.4658,6.4787,6.5348,6.6115,6.6591,6.6885,6.6841,6.6797,6.6666,6.6567,6.666,6.6911,4.8381,4.8383,4.8138,4.8163,4.8265,4.8163,4.8125,4.8125,4.8125,4.8495,4.9083,4.9376,4.9887,5.0455,5.0747,5.0921,5.0921,5.1212,5.1868,5.2621,5.2794,5.314,5.3641,5.3698,5.3871,5.4158,5.4426,5.4902,5.5377,5.5491,5.5454,5.5605,5.6159,5.6798,5.74,5.7573,5.7989,5.8249,5.8105,5.7906,5.7906,5.7906,5.7707,5.7414,5.6982,5.6654,5.6514,5.638,5.6183,5.6005,5.6023,5.5927,5.5633,5.5468,5.5451,5.5731,5.5805,5.6309,5.685,5.734,5.7853,5.8479,5.9169,5.9321,5.9374,5.9635,5.9553,5.9316,5.9235,5.9403,5.9921,6.0345,6.0919,6.1602,6.2097,6.2351,6.2625,6.2679,6.2679,6.2679,6.2679,6.2679,6.2679,6.2679,6.2679,6.2638,6.2327,6.1818,6.1694,6.1334,6.1065,6.0961,6.1301,6.1611,6.1756,6.2058,6.2431,6.2576,6.2672,6.2789,6.2836,6.3489,6.4291,6.4593,6.4894,6.5585,6.6342,6.6766,6.7234,6.7256,6.7169,6.6928,6.6828,6.6886,6.7137,4.785,4.8183,4.7765,4.778,4.8093,4.8125,4.8125,4.8066,4.8189,4.8634,4.9275,4.9803,5.0379,5.1055,5.1561,5.1851,5.1909,5.2025,5.2447,5.2967,5.3198,5.3659,5.41,5.4502,5.4673,5.473,5.4788,5.513,5.5377,5.5491,5.5491,5.5719,5.6741,5.7231,5.755,5.8179,5.8597,5.8633,5.8379,5.8128,5.7999,5.7999,5.7724,5.7172,5.6651,5.6339,5.6304,5.6136,5.5952,5.5786,5.5729,5.5618,5.5339,5.4985,5.4851,5.5603,5.5886,5.6654,5.754,5.7998,5.8479,5.9456,5.9532,5.9548,5.9635,5.9592,5.9492,5.9336,5.9235,5.9495,6.0088,6.0532,6.114,6.1877,6.2406,6.2625,6.2679,6.2679,6.2679,6.2679,6.2679,6.2679,6.2679,6.2679,6.2679,6.2638,6.2307,6.2004,6.188,6.1715,6.1425,6.126,6.1549,6.1942,6.2162,6.2245,6.2638,6.2741,6.2721,6.2913,6.2968,6.3892,6.4643,6.4796,6.5207,6.6039,6.6766,6.7365,6.7671,6.7693,6.7551,6.7267,6.7187,6.7082,6.7492,4.7838,4.7033,4.7742,4.8019,4.8109,4.8125,4.8125,4.8173,4.8352,4.903,4.9819,5.0226,5.0864,5.1571,5.1793,5.1909,5.1967,5.2332,5.291,5.3468,5.3871,5.4444,5.4959,5.513,5.5263,5.5377,5.532,5.5377,5.5434,5.5491,5.5548,5.5776,5.6741,5.7382,5.7757,5.8411,5.8968,5.8873,5.8756,5.855,5.8216,5.7992,5.7769,5.7171,5.6664,5.6403,5.6291,5.6048,5.5767,5.5572,5.5552,5.5756,5.598,5.5921,5.6048,5.6271,5.6817,5.7534,5.8312,5.886,5.9208,5.9494,5.9644,5.9559,5.9453,5.9316,5.9297,5.9258,5.9291,5.9551,6.0642,6.0809,6.1416,6.2131,6.257,6.2679,6.2679,6.2679,6.2679,6.2679,6.2679,6.2679,6.2679,6.2679,6.2679,6.2679,6.2534,6.2286,6.2141,6.1942,6.1777,6.1673,6.1673,6.2141,6.2514,6.2534,6.27,6.2783,6.29,6.3382,6.3719,6.4558,6.5092,6.5472,6.6048,6.6821,6.7507,6.7977,6.8151,6.8173,6.7901,6.7638,6.7677,6.7678,6.7969,4.717,4.7417,4.759,4.783,4.8066,4.8125,4.8125,4.8141,4.83,4.8977,4.9794,5.0228,5.0872,5.1653,5.1909,5.1909,5.2025,5.2505,5.314,5.3698,5.433,5.4902,5.5434,5.5491,5.5491,5.5491,5.5491,5.5491,5.5491,5.5491,5.5662,5.6174,5.6986,5.7551,5.8002,5.8712,5.8956,5.8844,5.8676,5.8451,5.7833,5.7607,5.7212,5.6911,5.6403,5.6063,5.5968,5.5799,5.563,5.5548,5.575,5.6123,5.6611,5.7059,5.7242,5.7395,5.7776,5.8523,5.9272,5.9859,5.9918,6.0244,6.0024,5.9709,5.9512,5.9375,5.9199,5.918,5.9235,5.9515,6.031,6.0698,6.1306,6.2022,6.2515,6.2679,6.2679,6.2679,6.2679,6.2679,6.2679,6.2679,6.2679,6.2679,6.2679,6.2679,6.2679,6.2534,6.2327,6.2245,6.2087,6.2162,6.212,6.2286,6.2659,6.2741,6.2845,6.2928,6.3203,6.3666,6.4337,6.5112,6.5862,6.6462,6.7133,6.7638,6.7868,6.8217,6.8414,6.8622,6.8493,6.8393,6.8342,6.8382,6.8596,4.6739,4.7889,4.7535,4.7653,4.8066,4.8125,4.8125,4.8141,4.822,4.8912,4.9887,5.0145,5.0789,5.1636,5.1909,5.1909,5.1967,5.2621,5.3313,5.3756,5.4502,5.5073,5.5377,5.5491,5.5491,5.5491,5.5491,5.5491,5.5548,5.5719,5.6079,5.6533,5.7156,5.7664,5.8114,5.8564,5.8564,5.8339,5.8114,5.7814,5.7212,5.6721,5.6362,5.6306,5.5776,5.553,5.5605,5.5715,5.5715,5.588,5.6215,5.678,5.735,5.8065,5.8556,5.8766,5.8766,5.9599,6.0241,6.0535,6.0534,6.0861,6.0294,6.0,5.9707,5.9433,5.9199,5.918,5.9383,5.9662,6.031,6.0753,6.1381,6.1987,6.246,6.2679,6.2679,6.2679,6.2679,6.2679,6.2679,6.2679,6.2679,6.2679,6.2679,6.2679,6.2679,6.2679,6.2514,6.2555,6.2514,6.2555,6.2576,6.2576,6.2741,6.2886,6.3011,6.3176,6.3535,6.3971,6.4777,6.5564,6.634,6.7131,6.7741,6.8162,6.8315,6.8402,6.862,6.8831,6.9076,6.9063,6.8867,6.8838,6.9049,4.7149,4.7357,4.7771,4.8007,4.8125,4.8125,4.8125,4.8157,4.8411,4.9106,5.0021,5.0344,5.0939,5.1687,5.1943,5.1926,5.2274,5.302,5.3637,5.3946,5.4806,5.5377,5.5491,5.5491,5.5491,5.5491,5.5491,5.5491,5.5605,5.6003,5.6419,5.6816,5.7495,5.8002,5.7833,5.817,5.8058,5.7607,5.7513,5.7231,5.6721,5.6354,5.607,5.5754,5.5605,5.5528,5.5601,5.586,5.6082,5.6307,5.7043,5.7646,5.8156,5.8716,5.9602,6.0163,6.0531,6.0609,6.0823,6.0903,6.0921,6.1113,6.0644,6.0215,5.9824,5.9453,5.9235,5.9235,5.9607,6.0143,6.0698,6.1306,6.1932,6.2317,6.257,6.2679,6.2679,6.2679,6.2679,6.2679,6.2679,6.2679,6.2679,6.2679,6.2679,6.2679,6.27,6.2741,6.2824,6.2928,6.2969,6.3031,6.3073,6.3052,6.3114,6.3197,6.3383,6.3528,6.3908,6.4352,6.5203,6.6016,6.6766,6.7497,6.8076,6.8432,6.8497,6.8584,6.8848,6.9095,6.9363,6.9338,6.9249,6.9393,6.9692,4.7417,4.7712,4.8007,4.8125,4.8125,4.8125,4.8125,4.8216,4.8639,4.933,4.9979,5.0563,5.1189,5.1844,5.2056,5.2289,5.2592,5.3524,5.4124,5.4308,5.5034,5.5491,5.5491,5.5491,5.5491,5.5491,5.5491,5.5491,5.5719,5.6174,5.676,5.7438,5.7683,5.7889,5.7721,5.7776,5.7438,5.7042,5.6795,5.6565,5.6353,5.6215,5.597,5.5528,5.5509,5.5619,5.5896,5.6025,5.6531,5.6946,5.7741,5.8487,5.9256,5.9894,6.0474,6.1116,6.1291,6.1291,6.133,6.1407,6.1387,6.1328,6.1015,6.0527,5.9941,5.9453,5.9328,5.9662,5.9865,6.0421,6.114,6.1602,6.2097,6.246,6.2679,6.2679,6.2679,6.2679,6.2679,6.2679,6.27,6.2721,6.2824,6.3011,6.3052,6.3052,6.3218,6.3445,6.3507,6.3666,6.3666,6.3625,6.3646,6.3569,6.3632,6.3714,6.3942,6.4108,6.4253,6.4809,6.5614,6.6431,6.6925,6.7249,6.7508,6.7966,6.841,6.8746,6.8836,6.9216,6.9595,6.9681,6.9856,7.0532,7.0749,4.7771,4.8318,4.8279,4.83,4.8379,4.8241,4.8327,4.8548,4.888,4.9552,5.0221,5.088,5.1479,5.1844,5.2149,5.2306,5.2598,5.3776,5.4249,5.4628,5.5164,5.5601,5.5528,5.5491,5.5491,5.5491,5.5491,5.5662,5.5889,5.6306,5.6929,5.7833,5.7948,5.7835,5.7797,5.7704,5.7286,5.6733,5.6535,5.6399,5.6268,5.6192,5.6006,5.5805,5.575,5.5896,5.6302,5.6696,5.7266,5.7702,5.8696,5.9506,6.0166,6.0708,6.1116,6.1544,6.1602,6.1602,6.1602,6.168,6.1719,6.1562,6.1191,6.0566,6.0078,5.9531,5.9459,5.9921,6.0179,6.0809,6.1547,6.1932,6.2296,6.2515,6.2679,6.2679,6.2679,6.2679,6.2679,6.2679,6.2721,6.2824,6.299,6.3342,6.3466,6.3445,6.3673,6.4025,6.4164,6.4184,6.4101,6.3998,6.3956,6.3956,6.4019,6.4108,6.4397,6.4625,6.477,6.5049,6.5716,6.6182,6.6543,6.6791,6.713,6.7658,6.8276,6.8578,6.8914,6.9427,6.9894,7.0245,7.0655,7.1234,7.1376,4.842,4.8998,4.8712,4.882,4.9043,4.8745,4.8883,4.9305,4.9196,4.9829,5.088,5.1462,5.1793,5.1885,5.2012,5.2104,5.2175,5.3584,5.4169,5.4617,5.5228,5.5708,5.5676,5.5491,5.5491,5.5491,5.5491,5.5833,5.6249,5.6306,5.659,5.674,5.7685,5.776,5.7664,5.7451,5.7216,5.6831,5.6651,5.6486,5.6321,5.6247,5.6211,5.6174,5.6192,5.6358,5.6761,5.7504,5.8193,5.8481,5.9561,6.0337,6.0824,6.1252,6.1602,6.166,6.1719,6.1719,6.1719,6.1719,6.1719,6.1484,6.1035,6.045,6.0216,5.959,5.9574,6.0068,6.0532,6.114,6.1767,6.2262,6.2515,6.2625,6.2679,6.2679,6.2679,6.2679,6.2679,6.2679,6.2804,6.299,6.3362,6.3735,6.388,6.3859,6.4149,6.4501,6.4397,6.4377,6.4294,6.4211,6.417,6.4149,6.4226,6.4397,6.4749,6.4972,6.5153,6.5277,6.5578,6.5982,6.6585,6.6713,6.7087,6.7616,6.8065,6.8224,6.8594,6.9572,7.027,7.0632,7.0896,7.1259,7.1116,4.896,4.9407,4.9671,4.9493,4.9116,4.8987,4.9057,4.932,4.9543,5.0355,5.1503,5.1793,5.1909,5.196,5.2183,5.266,5.341,5.4169,5.4744,5.5255,5.587,5.5896,5.5676,5.5491,5.5491,5.5491,5.5491,5.5548,5.5833,5.6249,5.6135,5.6474,5.7286,5.7417,5.726,5.7194,5.7031,5.6933,5.678,5.6615,5.6358,5.6468,5.6468,5.6229,5.6523,5.7012,5.7615,5.8034,5.8844,5.9677,6.0453,6.0862,6.1252,6.1602,6.166,6.1719,6.1719,6.1719,6.1719,6.1719,6.1719,6.1543,6.0976,6.0449,6.0448,5.993,6.002,6.0532,6.103,6.1602,6.2241,6.2515,6.2679,6.2679,6.2679,6.2679,6.2679,6.2679,6.2872,6.2968,6.3183,6.3397,6.3756,6.419,6.4253,6.4315,6.4646,6.4874,6.477,6.4729,6.4687,6.4667,6.4646,6.477,6.4811,6.4977,6.5143,6.5339,6.5593,6.5686,6.5841,6.6472,6.696,6.7031,6.696,6.7345,6.7617,6.7707,6.8296,6.9361,7.0314,7.1064,7.1236,7.1298,7.1116,4.9153,4.9718,4.9971,4.9853,4.9433,4.9454,4.9539,4.9624,5.0054,5.0863,5.1909,5.1909,5.1909,5.1995,5.2382,5.2973,5.3859,5.4613,5.5294,5.5725,5.5925,5.5857,5.5676,5.5491,5.5491,5.5491,5.5491,5.5548,5.5605,5.6003,5.5889,5.5962,5.6334,5.6749,5.6858,5.6939,5.6982,5.6982,5.6816,5.6706,5.6468,5.6486,5.6936,5.6752,5.7006,5.7652,5.8359,5.8956,5.9442,6.0298,6.0998,6.131,6.1544,6.1719,6.1719,6.1719,6.1719,6.1719,6.1719,6.1719,6.1719,6.1621,6.0918,6.0584,6.0519,6.0343,6.0239,6.1105,6.1602,6.2022,6.257,6.2679,6.2679,6.2679,6.2679,6.2679,6.2679,6.27,6.3064,6.3299,6.3507,6.37,6.4353,6.4715,6.4779,6.4806,6.4977,6.5163,6.5163,6.5163,6.5205,6.5205,6.5225,6.5391,6.5577,6.5453,6.5484,6.5993,6.6164,6.6155,6.6417,6.6953,6.7059,6.6811,6.6851,6.7067,6.7402,6.7724,6.8364,6.9183,7.0204,7.1251,7.1249,7.1305,7.1437,4.889,4.9887,4.9451,4.9531,5.0072,5.0352,5.0424,5.0426,5.078,5.127,5.1851,5.1909,5.1984,5.2117,5.2534,5.3189,5.3899,5.4744,5.5323,5.5594,5.598,5.5839,5.5676,5.5491,5.5491,5.5491,5.5491,5.5491,5.5491,5.5662,5.5548,5.5621,5.5974,5.6326,5.636,5.7018,5.7327,5.7272,5.6927,5.6798,5.6615,5.6504,5.7049,5.7461,5.7525,5.8077,5.9088,5.9476,6.0003,6.0803,6.1368,6.1602,6.166,6.1719,6.1719,6.1719,6.1719,6.1719,6.1719,6.1719,6.1893,6.1796,6.1167,6.0831,6.0955,6.0719,6.0532,6.1492,6.1822,6.2152,6.246,6.2679,6.2679,6.2679,6.2679,6.2679,6.2679,6.2919,6.3283,6.3677,6.3771,6.3955,6.473,6.5286,6.5284,6.5334,6.5386,6.5412,6.5412,6.5412,6.5412,6.5495,6.5515,6.5702,6.5784,6.5697,6.5848,6.6436,6.6935,6.7122,6.713,6.7404,6.7233,6.6843,6.6994,6.7495,6.7683,6.7927,6.8565,6.926,7.0447,7.1261,7.1281,7.128,7.1359,4.9243,4.9988,4.977,5.0078,5.057,5.0294,5.042,5.0814,5.128,5.1677,5.1851,5.1909,5.2158,5.2447,5.2829,5.3467,5.4538,5.4766,5.5287,5.5865,5.6077,5.5839,5.5601,5.5491,5.5491,5.5491,5.5491,5.5491,5.5491,5.5491,5.5491,5.5564,5.575,5.6061,5.6504,5.6927,5.6908,5.6706,5.6651,5.6706,5.6504,5.678,5.7246,5.7735,5.7797,5.8455,5.9726,5.9844,6.0314,6.1135,6.166,6.166,6.1719,6.1719,6.1719,6.1719,6.1719,6.1952,6.2301,6.2591,6.2785,6.2276,6.1609,6.1323,6.1771,6.1478,6.1558,6.1767,6.2152,6.2406,6.2625,6.2679,6.2679,6.2679,6.2679,6.2679,6.2734,6.3137,6.3569,6.4014,6.4275,6.4641,6.5244,6.5406,6.5466,6.5438,6.5391,6.5412,6.5412,6.5412,6.5432,6.5557,6.566,6.5888,6.6049,6.6222,6.677,6.7424,6.8135,6.8579,6.8485,6.806,6.8056,6.7939,6.7903,6.7886,6.8093,6.8345,6.8729,6.9449,7.0337,7.0911,7.0929,7.0963,7.1018,4.9243,4.9929,4.977,5.0296,5.1038,5.0572,5.0647,5.1229,5.1694,5.1909,5.1967,5.21,5.2476,5.2934,5.3401,5.4053,5.5338,5.5334,5.5579,5.6156,5.5988,5.5786,5.5546,5.5491,5.5491,5.5491,5.5491,5.5491,5.5491,5.5491,5.5491,5.5491,5.5509,5.5823,5.6208,5.6355,5.6504,5.6376,5.6449,5.6559,5.6615,5.689,5.7429,5.786,5.8159,5.8681,5.9667,6.0138,6.0373,6.131,6.1719,6.1719,6.1719,6.1719,6.1719,6.1719,6.201,6.2379,6.2959,6.3228,6.3344,6.3362,6.2294,6.2044,6.2275,6.1979,6.1965,6.2131,6.2536,6.2625,6.2679,6.2679,6.2679,6.2679,6.2843,6.2864,6.3083,6.3485,6.3963,6.441,6.4756,6.5194,6.5497,6.5468,6.5478,6.5438,6.5412,6.5412,6.5412,6.5412,6.5432,6.5536,6.5862,6.621,6.667,6.7146,6.7682,6.8498,6.9049,6.9646,6.9116,6.8621,6.8824,6.886,6.8281,6.7986,6.8412,6.8763,6.8962,6.9216,6.9671,7.0171,7.0447,7.0796,7.1104,4.889,4.9871,4.9376,5.0238,5.1561,5.1154,5.127,5.1868,5.1909,5.1909,5.1909,5.2447,5.2876,5.3451,5.4128,5.4844,5.549,5.5497,5.5763,5.5915,5.5786,5.5564,5.5509,5.5491,5.5491,5.5491,5.5491,5.5491,5.5491,5.5491,5.5491,5.5491,5.5491,5.5619,5.5805,5.597,5.608,5.6061,5.6358,5.6541,5.6725,5.6963,5.7617,5.8067,5.8407,5.9077,5.9844,6.0255,6.0725,6.1252,6.1719,6.1719,6.1719,6.1719,6.1719,6.1893,6.2379,6.3075,6.3537,6.3748,6.4036,6.4127,6.3229,6.2937,6.2858,6.2709,6.2562,6.2612,6.2866,6.2762,6.2679,6.2679,6.2679,6.2864,6.3137,6.3246,6.341,6.3812,6.4376,6.4761,6.4967,6.5276,6.5518,6.5537,6.5468,6.5401,6.5412,6.5412,6.5412,6.5412,6.5432,6.5495,6.592,6.6549,6.7109,6.7729,6.8668,6.9467,6.9774,7.0113,6.9573,6.9153,6.9166,6.896,6.8217,6.8163,6.8832,6.9007,6.8985,6.9295,6.9893,6.9838,7.0281,7.1131,7.1499,4.9536,5.0513,5.0004,5.0572,5.1793,5.1677,5.1735,5.1909,5.1909,5.1909,5.1909,5.2083,5.2823,5.361,5.3867,5.4682,5.5216,5.5523,5.5582,5.5564,5.5621,5.5509,5.5491,5.5491,5.5491,5.5491,5.5491,5.5491,5.5491,5.5491,5.5491,5.5491,5.5491,5.5491,5.5546,5.5619,5.5768,5.5915,5.6321,5.6615,5.6963,5.7275,5.7856,5.8174,5.8562,5.9254,5.9902,6.0431,6.0901,6.1485,6.1719,6.1719,6.1719,6.1719,6.1835,6.2495,6.3306,6.4114,6.4286,6.4611,6.4897,6.495,6.4286,6.4173,6.4019,6.3704,6.332,6.3224,6.3176,6.3114,6.299,6.2928,6.2928,6.3092,6.3333,6.3497,6.3661,6.4065,6.4543,6.4836,6.5073,6.5384,6.5581,6.5478,6.5443,6.5391,6.5412,6.5412,6.5412,6.5412,6.5432,6.5474,6.6035,6.6723,6.7645,6.8367,6.9451,7.0355,7.0604,7.0668,7.0274,6.9864,6.9593,6.9212,6.8898,6.8998,6.944,6.9583,6.9605,7.0026,7.0525,7.0281,7.0281,7.1199,7.1885,5.0004,5.0822,5.0513,5.0996,5.1793,5.1909,5.1909,5.1909,5.1909,5.1909,5.1967,5.243,5.3078,5.3911,5.434,5.4972,5.5708,5.5601,5.5509,5.5509,5.5491,5.5491,5.5491,5.5491,5.5491,5.5491,5.5491,5.5491,5.5491,5.5491,5.5491,5.5491,5.5491,5.5491,5.5546,5.575,5.5841,5.5988,5.6302,5.6706,5.7147,5.7551,5.783,5.8347,5.8781,5.9313,6.0079,6.0666,6.1076,6.1602,6.1719,6.1719,6.1777,6.1952,6.2611,6.3326,6.3941,6.4516,6.4803,6.5126,6.5298,6.535,6.5163,6.5003,6.4693,6.4321,6.3983,6.3749,6.3708,6.3625,6.3383,6.3238,6.3259,6.3314,6.348,6.3645,6.3941,6.4271,6.4544,6.4833,6.5155,6.542,6.5493,6.5458,6.5412,6.5412,6.5412,6.5412,6.5412,6.5412,6.5412,6.5453,6.617,6.6953,6.7934,6.8979,7.0023,7.087,7.1306,7.1269,7.0926,7.048,6.9999,6.984,6.9813,6.997,7.0171,7.0382,7.0515,7.089,7.1121,7.1133,7.1168,7.1624,7.2202,5.0397,5.0996,5.0979,5.1345,5.1851,5.1909,5.1909,5.1909,5.1909,5.1909,5.2199,5.3065,5.3743,5.4253,5.48,5.5388,5.5711,5.5601,5.5491,5.5491,5.532,5.532,5.532,5.5377,5.5149,5.532,5.5377,5.532,5.5491,5.5491,5.5491,5.5491,5.5491,5.5491,5.5528,5.5786,5.597,5.6302,5.6431,5.6648,5.718,5.7573,5.7879,5.8725,5.9077,5.949,6.0431,6.0901,6.1135,6.1485,6.1719,6.1719,6.203,6.2437,6.3364,6.4056,6.4516,6.486,6.5147,6.5355,6.5355,6.5412,6.5412,6.535,6.506,6.4791,6.446,6.417,6.4087,6.3942,6.3776,6.3694,6.3673,6.3749,6.386,6.3971,6.4138,6.4443,6.4736,6.5035,6.5195,6.5436,6.5489,6.5412,6.5412,6.5412,6.5412,6.5412,6.5583,6.5583,6.564,6.564,6.6118,6.7073,6.8469,6.9494,7.0488,7.1277,7.1705,7.1646,7.1122,7.0721,7.0362,7.0441,7.0536,7.0671,7.0826,7.1071,7.1258,7.1331,7.1606,7.2008,7.2244,7.2471,7.2845,5.1113,5.1677,5.1677,5.1735,5.1909,5.1909,5.1909,5.1909,5.1909,5.2158,5.2563,5.2967,5.3637,5.4513,5.4803,5.524,5.5582,5.5582,5.5509,5.532,5.5073,5.4845,5.473,5.4616,5.4577,5.4673,5.4845,5.5149,5.5434,5.5491,5.5491,5.5491,5.5434,5.5434,5.5491,5.5711,5.591,5.6523,5.6706,5.6868,5.7345,5.7812,5.8192,5.884,5.9254,5.9902,6.0666,6.1252,6.1427,6.1719,6.1719,6.1952,6.2437,6.3055,6.369,6.4401,6.4799,6.5142,6.5318,6.5412,6.5412,6.5412,6.5412,6.5412,6.5329,6.5163,6.4977,6.4708,6.4501,6.4356,6.4232,6.419,6.4205,6.4261,6.4317,6.4373,6.4408,6.4693,6.502,6.5171,6.5287,6.5339,6.537,6.5412,6.5412,6.5412,6.5412,6.5526,6.5982,6.6152,6.6266,6.6266,6.6152,6.7085,6.8622,6.979,7.0625,7.1371,7.1807,7.1625,7.1297,7.1217,7.1073,7.117,7.1306,7.1573,7.1773,7.1883,7.2024,7.2108,7.2273,7.2712,7.3096,7.3347,7.3792,5.1561,5.1909,5.1909,5.1909,5.1909,5.1909,5.1909,5.1909,5.1909,5.2389,5.314,5.3256,5.3774,5.4616,5.4845,5.5073,5.5491,5.5491,5.5263,5.5016,5.473,5.4444,5.4215,5.41,5.4387,5.4598,5.4902,5.5263,5.5491,5.5491,5.5491,5.5434,5.532,5.5263,5.5395,5.5502,5.5868,5.6761,5.6945,5.7294,5.7583,5.7959,5.8307,5.884,5.949,6.0138,6.0783,6.1368,6.1602,6.1621,6.1543,6.1773,6.2215,6.2708,6.3378,6.4128,6.4703,6.5205,6.5272,6.5298,6.5298,6.5318,6.5355,6.5355,6.5412,6.5288,6.5267,6.5039,6.5039,6.4915,6.4894,6.4832,6.4832,6.4889,6.4889,6.4945,6.4945,6.5049,6.523,6.5236,6.5345,6.5365,6.5412,6.5412,6.5469,6.5868,6.5811,6.608,6.6457,6.6861,6.6896,6.7088,6.7151,6.7583,6.8994,6.9976,7.066,7.1269,7.1887,7.1856,7.1779,7.1831,7.1818,7.21,7.2425,7.2738,7.2916,7.2868,7.3067,7.3187,7.333,7.3464,7.3817,7.4194,7.4562,5.1909,5.1909,5.1909,5.1909,5.1909,5.1909,5.1909,5.1909,5.1967,5.2661,5.3583,5.3756,5.4158,5.473,5.5187,5.5377,5.5434,5.5263,5.5016,5.473,5.4369,5.41,5.3986,5.4043,5.4272,5.4673,5.513,5.532,5.5491,5.5377,5.5245,5.5245,5.5073,5.4845,5.5201,5.5531,5.5874,5.6682,5.7147,5.7528,5.7785,5.8028,5.8384,5.8899,5.949,6.0138,6.0783,6.131,6.166,6.1465,6.123,6.1458,6.1742,6.2174,6.2763,6.3453,6.3997,6.4466,6.4728,6.4893,6.4991,6.5069,6.5183,6.524,6.524,6.5355,6.5355,6.5334,6.5334,6.537,6.535,6.535,6.535,6.535,6.535,6.535,6.535,6.537,6.537,6.5391,6.5412,6.5412,6.5453,6.5432,6.5858,6.6236,6.6634,6.6974,6.73,6.7633,6.7866,6.8179,6.8434,6.9092,6.9738,7.0235,7.0898,7.1392,7.1923,7.2087,7.2283,7.2521,7.2875,7.3203,7.353,7.3594,7.3716,7.3657,7.3903,7.4047,7.3909,7.3863,7.4332,7.471,7.5167,5.1909,5.1909,5.1909,5.1909,5.1909,5.1909,5.1909,5.1967,5.2447,5.3083,5.3698,5.4272,5.473,5.532,5.5434,5.5434,5.5149,5.4959,5.4788,5.4541,5.3698,5.3544,5.3526,5.3583,5.3871,5.4444,5.513,5.5434,5.5377,5.5016,5.4788,5.477,5.477,5.4749,5.486,5.5358,5.6123,5.6758,5.722,5.7624,5.7977,5.8147,5.8384,5.8918,5.9509,6.0138,6.0783,6.1368,6.1388,6.1191,6.082,6.0968,6.1173,6.1491,6.1944,6.2461,6.3023,6.342,6.3701,6.4022,6.4124,6.4266,6.4381,6.4688,6.4803,6.5147,6.5183,6.5298,6.5298,6.5355,6.5391,6.5391,6.5391,6.5391,6.5391,6.5391,6.5391,6.5391,6.5412,6.5412,6.5412,6.5453,6.5515,6.5889,6.6618,6.7019,6.7518,6.786,6.8428,6.8598,6.8768,6.9181,6.9616,6.9947,7.0318,7.0617,7.1174,7.1646,7.2119,7.2508,7.2964,7.3483,7.3847,7.4153,7.4139,7.4076,7.4188,7.4361,7.4313,7.4323,7.4139,7.4185,7.4733,7.5223,7.5725]},{"header":{"parameterUnit":"m.s-1","parameterCategory":1,"la1":31.0,"la2":29.5877,"lo1":-88.7671,"lo2":-86.6584,"dy":0.0162,"dx":0.0185,"nx":115,"ny":88,"refTime":"2026-04-20T00:00:00:Z","depth":0,"parameterNumber":3,"parameterNumberName":"V-component_of_WINDS"},"data":[0.0,0.0,0.0,0.0,0.0,0.0,0.0,0.0,0.0,0.0,0.0,0.0,0.0,0.0,0.0,0.0,0.0,0.0,0.0,0.0,0.0,0.0,0.0,0.0,0.0,0.0,0.0,0.0,0.0,0.0,0.0,0.0,0.0,0.0,0.0,0.0,0.0,0.0,0.0,0.0,0.0,0.0,0.0,0.0,0.0,0.0,0.0,0.0,0.0,0.0,0.0,0.0,0.0,0.0,0.0,0.0,0.0,0.0,0.0,0.0,0.0,0.0,0.0,0.0,0.0,0.0,0.0,0.0,0.0,0.0,0.0,0.0,0.0,0.0,0.0,0.0,0.0,0.0,0.0,0.0,0.0,0.0,0.0,0.0,0.0,0.0,0.0,0.0,0.0,0.0,0.0,0.0,0.0,0.0,0.0,0.0,0.0,0.0,0.0,0.0,0.0,0.0,0.0,0.0,0.0,0.0,0.0,0.0,0.0,0.0,0.0,0.0,0.0,0.0,0.0,0.0,0.0,0.0,0.0,0.0,0.0,0.0,0.0,0.0,0.0,0.0,0.0,0.0,0.0,0.0,0.0,0.0,0.0,0.0,0.0,0.0,0.0,0.0,0.0,0.0,0.0,0.0,0.0,0.0,0.0,0.0,0.0,0.0,0.0,0.0,0.0,0.0,0.0,0.0,0.0,0.0,0.0,0.0,0.0,0.0,0.0,0.0,0.0,0.0,0.0,0.0,0.0,0.0,0.0,0.0,0.0,0.0,0.0,0.0,0.0,0.0,0.0,0.0,0.0,0.0,0.0,0.0,0.0,0.0,0.0,0.0,0.0,0.0,0.0,0.0,0.0,0.0,0.0,0.0,0.0,0.0,0.0,0.0,0.0,0.0,0.0,0.0,0.0,0.0,0.0,0.0,0.0,0.0,0.0,0.0,0.0,0.0,0.0,0.0,0.0,0.0,0.0,0.0,0.0,0.0,0.0,0.0,0.0,0.0,0.0,0.0,0.0,0.0,0.0,0.0,0.0,0.0,0.0,0.0,0.0,0.0,0.0,0.0,0.0,0.0,0.0,0.0,0.0,0.0,0.0,0.0,0.0,0.0,0.0,0.0,0.0,0.0,0.0,0.0,0.0,0.0,0.0,0.0,0.0,0.0,0.0,0.0,0.0,0.0,0.0,0.0,0.0,0.0,0.0,0.0,0.0,0.0,0.0,0.0,0.0,0.0,0.0,0.0,0.0,0.0,0.0,0.0,0.0,0.0,0.0,0.0,0.0,0.0,0.0,0.0,0.0,0.0,0.0,0.0,0.0,0.0,0.0,0.0,0.0,0.0,0.0,0.0,0.0,0.0,0.0,0.0,0.0,0.0,0.0,0.0,0.0,0.0,0.0,0.0,0.0,0.0,0.0,0.0,0.0,0.0,0.0,0.0,0.0,0.0,0.0,0.0,0.0,0.0,0.0,0.0,0.0,0.0,0.0,0.0,0.0,0.0,0.0,0.0,0.0,0.0,0.0,0.0,0.0,0.0,0.0,0.0,0.0,0.0,0.0,0.0,0.0,0.0,0.0,0.0,0.0,0.0,0.0,0.0,0.0,0.0,0.0,0.0,0.0,0.0,0.0,0.0,0.0,0.0,0.0,0.0,0.0,0.0,0.0,0.0,0.0,0.0,0.0,0.0,0.0,0.0,0.0,0.0,0.0,0.0,0.0,0.0,0.0,0.0,0.0,0.0,0.0,0.0,0.0,0.0,0.0,0.0,0.0,0.0,0.0,0.0,0.0,0.0,0.0,0.0,0.0,0.0,0.0,0.0,0.0,0.0,0.0,0.0,0.0,0.0,0.0,0.0,0.0,0.0,0.0,0.0,0.0,0.0,0.0,0.0,0.0,0.0,0.0,0.0,0.0,0.0,0.0,0.0,0.0,0.0,0.0,0.0,0.0,0.0,0.0,0.0,0.0,0.0,0.0,0.0,0.0,0.0,0.0,0.0,0.0,0.0,0.0,0.0,0.0,0.0,0.0,0.0,0.0,0.0,0.0,0.0,0.0,0.0,0.0,0.0,0.0,0.0,0.0,0.0,0.0,0.0,0.0,0.0,0.0,0.0,0.0,0.0,0.0,0.0,0.0,0.0,0.0,0.0,0.0,0.0,0.0,0.0,0.0,0.0,0.0,0.0,0.0,0.0,0.0,0.0,0.0,0.0,0.0,0.0,0.0,0.0,0.0,0.0,0.0,0.0,0.0,0.0,0.0,0.0,0.0,0.0,0.0,0.0,0.0,0.0,0.0,0.0,0.0,0.0,0.0,0.0,0.0,0.0,0.0,0.0,0.0,0.0,0.0,0.0,0.0,0.0,0.0,0.0,0.0,0.0,0.0,0.0,0.0,0.0,0.0,0.0,0.0,0.0,0.0,0.0,0.0,0.0,0.0,0.0,0.0,0.0,0.0,0.0,0.0,0.0,0.0,0.0,0.0,0.0,0.0,0.0,0.0,0.0,0.0,0.0,0.0,0.0,0.0,0.0,0.0,0.0,0.0,0.0,0.0,0.0,0.0,0.0,0.0,0.0,0.0,0.0,0.0,0.0,0.0,0.0,0.0,0.0,0.0,0.0,0.0,0.0,0.0,0.0,0.0,0.0,0.0,0.0,0.0,0.0,0.0,0.0,0.0,0.0,0.0,0.0,0.0,0.0,0.0,0.0,0.0,0.0,0.0,0.0,0.0,0.0,0.0,0.0,0.0,0.0,0.0,0.0,0.0,0.0,0.0,0.0,0.0,0.0,0.0,0.0,0.0,0.0,0.0,0.0,0.0,0.0,0.0,0.0,0.0,0.0,0.0,0.0,0.0,0.0,0.0,0.0,0.0,0.0,0.0,0.0,0.0,0.0,0.0,0.0,0.0,0.0,0.0,0.0,0.0,0.0,0.0,0.0,0.0,0.0,0.0,0.0,0.0,0.0,0.0,0.0,0.0,0.0,0.0,0.0,0.0,0.0,0.0,0.0,0.0,0.0,0.0,0.0,0.0,0.0,0.0,0.0,0.0,0.0,0.0,0.0,0.0,0.0,0.0,0.0,0.0,0.0,0.0,0.0,0.0,0.0,0.0,0.0,0.0,0.0,0.0,0.0,0.0,0.0,0.0,0.0,0.0,0.0,0.0,0.0,0.0,0.0,0.0,0.0,0.0,0.0,0.0,0.0,0.0,0.0,0.0,0.0,0.0,0.0,0.0,0.0,0.0,0.0,0.0,0.0,0.0,0.0,0.0,0.0,0.0,0.0,0.0,0.0,0.0,0.0,0.0,0.0,0.0,0.0,0.0,0.0,0.0,0.0,0.0,0.0,0.0,0.0,0.0,0.0,0.0,0.0,0.0,0.0,0.0,0.0,0.0,0.0,0.0,0.0,0.0,0.0,0.0,0.0,0.0,0.0,0.0,0.0,0.0,0.0,0.0,0.0,0.0,0.0,0.0,0.0,0.0,0.0,0.0,0.0,0.0,0.0,0.0,0.0,0.0,0.0,0.0,0.0,0.0,0.0,0.0,0.0,0.0,0.0,0.0,0.0,0.0,0.0,0.0,0.0,0.0,0.0,0.0,0.0,0.0,0.0,0.0,0.0,0.0,0.0,0.0,0.0,0.0,0.0,0.0,0.0,0.0,0.0,0.0,0.0,0.0,0.0,0.0,0.0,0.0,0.0,0.0,0.0,0.0,0.0,0.0,0.0,0.0,0.0,0.0,0.0,0.0,0.0,0.0,0.0,0.0,0.0,0.0,0.0,0.0,0.0,0.0,0.0,0.0,0.0,0.0,0.0,0.0,0.0,0.0,0.0,0.0,0.0,0.0,0.0,0.0,0.0,0.0,0.0,0.0,0.0,0.0,0.0,0.0,0.0,0.0,0.0,0.0,0.0,0.0,0.0,0.0,0.0,0.0,0.0,0.0,0.0,0.0,0.0,0.0,0.0,0.0,0.0,0.0,0.0,0.0,0.0,0.0,0.0,0.0,0.0,0.0,0.0,0.0,0.0,0.0,0.0,0.0,0.0,0.0,0.0,0.0,0.0,0.0,0.0,0.0,0.0,0.0,0.0,0.0,0.0,0.0,0.0,0.0,0.0,0.0,0.0,0.0,0.0,0.0,0.0,0.0,0.0,0.0,0.0,0.0,0.0,0.0,0.0,0.0,0.0,0.0,0.0,0.0,0.0,0.0,0.0,0.0,0.0,0.0,0.0,0.0,0.0,0.0,0.0,0.0,0.0,0.0,0.0,0.0,0.0,0.0,0.0,0.0,0.0,2.0195,0.0,0.0,0.0,0.0,0.0,0.0,0.0,0.0,0.0,0.0,0.0,0.0,0.0,0.0,0.0,0.0,0.0,0.0,0.0,0.0,0.0,0.0,0.0,0.0,0.0,0.0,0.0,0.0,0.0,0.0,0.0,0.0,0.0,0.0,0.0,0.0,0.0,0.0,0.0,0.0,0.0,0.0,0.0,0.0,0.0,0.0,0.0,0.0,0.0,0.0,0.0,0.0,0.0,0.0,0.0,0.0,0.0,0.0,0.0,0.0,0.0,0.0,0.0,0.0,0.0,0.0,0.0,0.0,0.0,0.0,0.0,0.0,0.0,0.0,0.0,0.0,0.0,0.0,0.0,0.0,0.0,0.0,0.0,0.0,0.0,0.0,0.0,0.0,0.0,0.0,0.0,0.0,0.0,0.0,0.0,0.0,0.0,0.0,0.0,0.0,0.0,0.0,0.0,0.0,0.0,0.0,0.0,0.0,0.0,0.0,1.9237,1.9527,1.9771,2.0144,2.0629,0.0,0.0,0.0,0.0,0.0,0.0,0.0,0.0,0.0,0.0,0.0,0.0,0.0,0.0,0.0,0.0,0.0,0.0,0.0,0.0,0.0,0.0,0.0,0.0,0.0,0.0,0.0,0.0,0.0,0.0,0.0,0.0,0.0,0.0,0.0,0.0,0.0,0.0,0.0,0.0,0.0,0.0,0.0,0.0,0.0,0.0,0.0,0.0,0.0,0.0,0.0,0.0,0.0,0.0,0.0,0.0,0.0,0.0,0.0,0.0,0.0,0.0,0.0,0.0,0.0,0.0,0.0,0.0,0.0,0.0,0.0,0.0,0.0,0.0,0.0,0.0,0.0,0.0,0.0,0.0,0.0,0.0,0.0,0.0,0.0,0.0,0.0,0.0,0.0,0.0,0.0,0.0,0.0,0.0,0.0,0.0,0.0,0.0,0.0,0.0,0.0,0.0,0.0,0.0,0.0,0.0,0.0,0.0,0.0,0.0,0.0,0.0,2.0238,2.063,2.1172,0.0,0.0,0.0,0.0,0.0,0.0,0.0,0.0,0.0,0.0,0.0,0.0,0.0,0.0,0.0,0.0,0.0,0.0,0.0,0.0,0.0,0.0,0.0,0.0,0.0,0.0,0.0,0.0,0.0,0.0,0.0,0.0,0.0,0.0,0.0,0.0,0.0,0.0,0.0,0.0,0.0,0.0,0.0,0.0,0.0,0.0,0.0,0.0,0.0,0.0,0.0,0.0,0.0,0.0,0.0,0.0,0.0,0.0,0.0,0.0,0.0,0.0,0.0,0.0,0.0,0.0,0.0,0.0,0.0,0.0,0.0,0.0,0.0,0.0,0.0,0.0,0.0,0.0,0.0,0.0,0.0,0.0,0.0,0.0,0.0,0.0,0.0,0.0,0.0,0.0,0.0,0.0,0.0,0.0,0.0,0.0,0.0,0.0,0.0,0.0,0.0,0.0,0.0,0.0,0.0,0.0,0.0,0.0,0.0,0.0,1.9999,2.05,2.0799,0.0,2.1744,0.0,0.0,0.0,0.0,0.0,0.0,0.0,0.0,0.0,0.0,0.0,0.0,0.0,0.0,0.0,0.0,0.0,0.0,0.0,0.0,0.0,0.0,0.0,0.0,0.0,0.0,0.0,0.0,0.0,0.0,0.0,0.0,0.0,0.0,0.0,0.0,0.0,0.0,0.0,0.0,0.0,0.0,0.0,0.0,0.0,0.0,0.0,0.0,0.0,0.0,0.0,0.0,0.0,0.0,0.0,0.0,0.0,0.0,0.0,0.0,0.0,0.0,0.0,0.0,0.0,0.0,0.0,0.0,0.0,0.0,0.0,0.0,0.0,0.0,0.0,0.0,0.0,0.0,0.0,0.0,0.0,0.0,0.0,0.0,0.0,0.0,0.0,0.0,0.0,0.0,0.0,0.0,0.0,0.0,0.0,0.0,0.0,0.0,0.0,0.0,0.0,0.0,0.0,0.0,0.0,0.0,0.0,0.0,0.0,0.0,0.0,2.1185,2.1727,2.2156,0.0,0.0,0.0,0.0,0.0,0.0,0.0,0.0,0.0,0.0,0.0,0.0,0.0,0.0,0.0,0.0,0.0,0.0,0.0,0.0,0.0,0.0,0.0,0.0,0.0,0.0,0.0,0.0,0.0,0.0,0.0,0.0,0.0,0.0,0.0,0.0,0.0,0.0,0.0,0.0,0.0,0.0,0.0,0.0,0.0,0.0,0.0,0.0,0.0,0.0,0.0,0.0,0.0,0.0,0.0,0.0,0.0,0.0,0.0,0.0,0.0,0.0,0.0,0.0,0.0,0.0,0.0,0.0,0.0,0.0,0.0,0.0,0.0,0.0,0.0,0.0,0.0,0.0,0.0,0.0,0.0,0.0,0.0,0.0,0.0,0.0,0.0,0.0,0.0,0.0,0.0,0.0,0.0,0.0,0.0,0.0,0.0,0.0,0.0,0.0,0.0,0.0,0.0,0.0,0.0,0.0,0.0,0.0,0.0,0.0,2.0562,0.0,2.1887,2.2567,2.2926,2.2911,0.0,0.0,0.0,0.0,0.0,0.0,0.0,0.0,0.0,0.0,0.0,0.0,0.0,0.0,0.0,0.0,0.0,0.0,0.0,0.0,0.0,0.0,0.0,0.0,0.0,0.0,0.0,0.0,0.0,0.0,0.0,0.0,0.0,0.0,0.0,0.0,0.0,0.0,0.0,0.0,0.0,0.0,0.0,0.0,0.0,0.0,0.0,0.0,0.0,0.0,0.0,0.0,0.0,0.0,0.0,0.0,0.0,0.0,0.0,0.0,0.0,0.0,0.0,0.0,0.0,0.0,0.0,0.0,0.0,0.0,0.0,0.0,0.0,0.0,0.0,0.0,0.0,0.0,0.0,0.0,0.0,0.0,0.0,0.0,0.0,0.0,0.0,0.0,0.0,0.0,0.0,0.0,0.0,0.0,0.0,0.0,0.0,0.0,0.0,0.0,0.0,0.0,0.0,0.0,0.0,0.0,0.0,0.0,0.0,2.1076,2.1771,2.2616,2.326,2.3367,0.0,0.0,0.0,0.0,0.0,0.0,0.0,0.0,0.0,0.0,0.0,0.0,0.0,0.0,0.0,0.0,0.0,0.0,0.0,0.0,0.0,0.0,0.0,0.0,0.0,0.0,0.0,0.0,0.0,0.0,0.0,0.0,0.0,0.0,0.0,0.0,0.0,0.0,0.0,0.0,0.0,0.0,0.0,0.0,0.0,0.0,0.0,0.0,0.0,0.0,0.0,0.0,0.0,0.0,0.0,0.0,0.0,0.0,0.0,0.0,0.0,0.0,0.0,0.0,0.0,0.0,0.0,0.0,0.0,0.0,0.0,0.0,0.0,0.0,0.0,0.0,0.0,0.0,0.0,0.0,0.0,0.0,0.0,0.0,0.0,0.0,0.0,0.0,0.0,0.0,0.0,0.0,0.0,0.0,0.0,0.0,0.0,0.0,0.0,0.0,0.0,0.0,0.0,0.0,0.0,0.0,0.0,0.0,0.0,2.0625,2.1992,2.3009,2.3523,2.4121,2.4218,0.0,0.0,0.0,0.0,0.0,0.0,0.0,0.0,0.0,0.0,0.0,0.0,0.0,0.0,0.0,0.0,0.0,0.0,0.0,0.0,0.0,0.0,0.0,0.0,0.0,0.0,0.0,0.0,0.0,0.0,0.0,0.0,0.0,0.0,0.0,0.0,0.0,0.0,0.0,0.0,0.0,0.0,0.0,0.0,0.0,0.0,0.0,0.0,0.0,0.0,0.0,0.0,0.0,0.0,0.0,0.0,0.0,0.0,0.0,0.0,0.0,0.0,0.0,0.0,0.0,0.0,0.0,0.0,0.0,0.0,0.0,0.0,0.0,0.0,0.0,0.0,0.0,0.0,0.0,0.0,0.0,0.0,0.0,0.0,0.0,0.0,0.0,0.0,0.0,0.0,0.0,0.0,0.0,0.0,0.0,0.0,0.0,0.0,0.0,0.0,0.0,0.0,0.0,0.0,0.0,0.0,0.0,0.0,0.0,2.1573,0.0,2.4065,0.0,2.4812,2.4906,0.0,0.0,0.0,0.0,0.0,0.0,0.0,0.0,0.0,0.0,0.0,0.0,0.0,0.0,0.0,0.0,0.0,0.0,0.0,0.0,0.0,0.0,0.0,0.0,0.0,0.0,0.0,0.0,0.0,0.0,0.0,0.0,0.0,0.0,0.0,0.0,0.0,0.0,0.0,0.0,0.0,0.0,0.0,0.0,0.0,0.0,0.0,0.0,0.0,0.0,0.0,0.0,0.0,0.0,0.0,0.0,0.0,0.0,0.0,0.0,0.0,0.0,0.0,0.0,0.0,0.0,0.0,0.0,0.0,0.0,0.0,0.0,0.0,0.0,0.0,0.0,0.0,0.0,0.0,0.0,0.0,0.0,0.0,0.0,0.0,0.0,0.0,0.0,0.0,0.0,0.0,0.0,0.0,0.0,0.0,0.0,0.0,0.0,0.0,0.0,0.0,0.0,0.0,0.0,0.0,0.0,0.0,0.0,2.2317,2.3492,2.4412,2.5012,2.5154,2.5415,2.5466,0.0,0.0,0.0,0.0,0.0,0.0,0.0,0.0,0.0,0.0,0.0,0.0,0.0,0.0,0.0,0.0,0.0,0.0,0.0,0.0,0.0,0.0,0.0,0.0,0.0,0.0,0.0,0.0,0.0,0.0,0.0,0.0,0.0,0.0,0.0,0.0,0.0,0.0,0.0,0.0,0.0,0.0,0.0,0.0,0.0,0.0,0.0,0.0,0.0,0.0,0.0,0.0,0.0,0.0,0.0,0.0,0.0,0.0,0.0,0.0,0.0,0.0,0.0,0.0,0.0,0.0,0.0,0.0,0.0,0.0,0.0,0.0,0.0,0.0,0.0,0.0,0.0,0.0,0.0,0.0,0.0,0.0,0.0,0.0,0.0,0.0,0.0,0.0,0.0,0.0,0.0,0.0,0.0,0.0,0.0,0.0,0.0,0.0,0.0,0.0,0.0,0.0,0.0,0.0,0.0,0.0,0.0,0.0,0.0,2.6195,2.6552,2.7182,2.8124,2.7895,2.7565,0.0,0.0,0.0,0.0,0.0,0.0,0.0,0.0,0.0,0.0,0.0,0.0,0.0,0.0,0.0,0.0,0.0,0.0,0.0,0.0,0.0,0.0,0.0,0.0,0.0,0.0,0.0,0.0,0.0,0.0,0.0,0.0,0.0,0.0,0.0,0.0,0.0,0.0,0.0,0.0,0.0,0.0,0.0,0.0,0.0,0.0,0.0,0.0,0.0,0.0,0.0,0.0,0.0,0.0,0.0,0.0,0.0,0.0,0.0,0.0,0.0,0.0,0.0,0.0,0.0,0.0,0.0,0.0,0.0,0.0,0.0,0.0,0.0,0.0,0.0,0.0,0.0,0.0,0.0,0.0,0.0,0.0,0.0,0.0,0.0,0.0,0.0,0.0,0.0,0.0,0.0,0.0,0.0,0.0,0.0,0.0,0.0,0.0,0.0,0.0,0.0,0.0,0.0,0.0,0.0,0.0,0.0,0.0,0.0,3.0874,3.0317,3.0409,3.1225,3.0723,3.0091,2.9269,0.0,0.0,0.0,0.0,0.0,0.0,0.0,0.0,0.0,0.0,0.0,0.0,0.0,0.0,0.0,0.0,0.0,0.0,0.0,0.0,0.0,0.0,0.0,0.0,0.0,0.0,0.0,0.0,0.0,0.0,0.0,0.0,0.0,0.0,0.0,0.0,0.0,0.0,0.0,0.0,0.0,0.0,0.0,0.0,0.0,0.0,0.0,0.0,0.0,0.0,0.0,0.0,0.0,0.0,0.0,0.0,0.0,0.0,0.0,0.0,0.0,0.0,0.0,0.0,0.0,0.0,0.0,0.0,0.0,0.0,0.0,0.0,0.0,0.0,0.0,0.0,0.0,0.0,0.0,0.0,0.0,0.0,0.0,0.0,0.0,0.0,0.0,0.0,0.0,0.0,0.0,0.0,0.0,0.0,0.0,0.0,0.0,0.0,0.0,0.0,0.0,0.0,0.0,0.0,0.0,0.0,0.0,0.0,3.7154,3.5687,3.4801,3.4508,3.3945,3.3044,0.0,0.0,0.0,0.0,0.0,0.0,0.0,0.0,0.0,0.0,0.0,0.0,0.0,0.0,0.0,0.0,0.0,0.0,0.0,0.0,0.0,0.0,0.0,0.0,0.0,0.0,0.0,0.0,0.0,0.0,0.0,0.0,0.0,0.0,0.0,0.0,0.0,0.0,0.0,0.0,0.0,0.0,0.0,0.0,0.0,0.0,0.0,0.0,0.0,0.0,0.0,0.0,0.0,0.0,0.0,0.0,0.0,0.0,0.0,0.0,0.0,0.0,0.0,0.0,0.0,0.0,0.0,0.0,0.0,0.0,0.0,0.0,0.0,0.0,0.0,0.0,0.0,0.0,0.0,0.0,0.0,0.0,0.0,0.0,0.0,0.0,0.0,0.0,0.0,0.0,0.0,0.0,0.0,0.0,0.0,0.0,0.0,0.0,0.0,0.0,0.0,0.0,0.0,0.0,0.0,0.0,0.0,0.0,0.0,4.2089,4.3764,4.318,4.0229,3.8385,3.6801,0.0,0.0,0.0,0.0,0.0,0.0,0.0,0.0,0.0,0.0,0.0,0.0,0.0,0.0,0.0,0.0,0.0,0.0,0.0,0.0,0.0,0.0,0.0,0.0,0.0,0.0,0.0,0.0,0.0,0.0,0.0,0.0,0.0,0.0,0.0,0.0,0.0,0.0,0.0,0.0,0.0,0.0,0.0,0.0,0.0,0.0,0.0,0.0,0.0,0.0,0.0,0.0,0.0,0.0,0.0,0.0,0.0,0.0,0.0,0.0,0.0,0.0,0.0,0.0,0.0,0.0,0.0,0.0,0.0,0.0,0.0,0.0,0.0,0.0,0.0,0.0,0.0,0.0,0.0,0.0,0.0,0.0,0.0,0.0,0.0,0.0,0.0,0.0,0.0,0.0,0.0,0.0,0.0,0.0,0.0,0.0,0.0,0.0,0.0,0.0,0.0,0.0,0.0,0.0,0.0,0.0,0.0,0.0,4.2168,4.646,4.9941,5.0602,4.8238,4.4349,4.1087,0.0,0.0,0.0,0.0,0.0,0.0,0.0,0.0,0.0,0.0,0.0,0.0,0.0,0.0,0.0,0.0,0.0,0.0,0.0,0.0,0.0,0.0,0.0,0.0,0.0,0.0,0.0,0.0,0.0,0.0,0.0,0.0,0.0,0.0,0.0,0.0,0.0,0.0,0.0,0.0,0.0,0.0,0.0,0.0,0.0,0.0,0.0,0.0,0.0,0.0,0.0,0.0,0.0,0.0,0.0,0.0,0.0,0.0,0.0,0.0,0.0,0.0,0.0,0.0,0.0,0.0,0.0,0.0,0.0,0.0,0.0,0.0,0.0,0.0,0.0,0.0,0.0,0.0,0.0,0.0,0.0,0.0,0.0,0.0,0.0,0.0,0.0,0.0,0.0,0.0,0.0,0.0,0.0,0.0,0.0,0.0,0.0,0.0,0.0,0.0,0.0,0.0,0.0,0.0,0.0,0.0,0.0,0.0,4.647,5.0475,5.4637,5.6866,5.6708,5.0781,4.5571,0.0,0.0,0.0,0.0,0.0,0.0,0.0,0.0,0.0,0.0,0.0,0.0,0.0,0.0,0.0,0.0,0.0,0.0,0.0,0.0,0.0,0.0,0.0,0.0,0.0,0.0,0.0,0.0,0.0,0.0,0.0,0.0,0.0,0.0,0.0,0.0,0.0,0.0,0.0,0.0,0.0,0.0,0.0,0.0,0.0,0.0,0.0,0.0,0.0,0.0,0.0,0.0,0.0,0.0,0.0,0.0,0.0,0.0,0.0,0.0,0.0,0.0,0.0,0.0,0.0,0.0,0.0,0.0,0.0,0.0,0.0,0.0,0.0,0.0,0.0,0.0,0.0,0.0,0.0,0.0,0.0,0.0,0.0,0.0,0.0,0.0,0.0,0.0,0.0,0.0,0.0,0.0,0.0,0.0,0.0,0.0,0.0,0.0,0.0,0.0,0.0,0.0,0.0,0.0,0.0,0.0,0.0,0.0,5.0126,5.5707,5.7937,5.9587,6.0729,5.4455,4.9396,0.0,0.0,0.0,0.0,0.0,0.0,0.0,0.0,0.0,0.0,0.0,0.0,0.0,0.0,0.0,0.0,0.0,0.0,0.0,0.0,0.0,0.0,0.0,0.0,0.0,0.0,0.0,0.0,0.0,0.0,0.0,0.0,0.0,0.0,0.0,0.0,0.0,0.0,0.0,0.0,0.0,0.0,0.0,0.0,0.0,0.0,0.0,0.0,2.9693,0.0,0.0,0.0,0.0,0.0,0.0,0.0,0.0,0.0,0.0,0.0,0.0,0.0,0.0,0.0,0.0,0.0,0.0,0.0,0.0,0.0,0.0,0.0,0.0,0.0,0.0,0.0,0.0,0.0,0.0,0.0,0.0,0.0,0.0,0.0,0.0,0.0,0.0,0.0,0.0,0.0,0.0,0.0,0.0,0.0,0.0,0.0,0.0,0.0,0.0,0.0,0.0,0.0,0.0,0.0,0.0,0.0,0.0,0.0,5.3843,5.9072,6.1468,6.2875,6.3122,5.8689,5.3905,0.0,0.0,0.0,0.0,0.0,0.0,0.0,0.0,0.0,0.0,0.0,0.0,0.0,0.0,0.0,0.0,0.0,0.0,0.0,0.0,0.0,0.0,0.0,0.0,0.0,0.0,0.0,0.0,0.0,0.0,0.0,0.0,0.0,0.0,0.0,0.0,0.0,0.0,0.0,0.0,0.0,0.0,0.0,0.0,0.0,0.0,0.0,0.0,0.0,0.0,0.0,0.0,0.0,0.0,0.0,0.0,0.0,0.0,0.0,0.0,0.0,0.0,0.0,0.0,0.0,0.0,0.0,0.0,0.0,0.0,0.0,0.0,0.0,0.0,0.0,0.0,0.0,0.0,0.0,0.0,0.0,0.0,0.0,0.0,0.0,0.0,0.0,0.0,0.0,0.0,0.0,0.0,0.0,0.0,0.0,0.0,0.0,0.0,0.0,0.0,0.0,0.0,0.0,0.0,0.0,0.0,0.0,5.2058,5.7583,6.1889,6.4875,6.6032,6.5316,6.2509,5.7992,5.1627,0.0,0.0,0.0,0.0,0.0,0.0,0.0,0.0,0.0,0.0,0.0,0.0,0.0,0.0,0.0,0.0,0.0,0.0,0.0,0.0,0.0,0.0,0.0,0.0,0.0,0.0,0.0,0.0,0.0,0.0,0.0,0.0,0.0,0.0,0.0,0.0,0.0,0.0,2.8541,3.1612,0.0,0.0,0.0,0.0,0.0,0.0,0.0,0.0,3.2604,0.0,0.0,0.0,0.0,0.0,0.0,0.0,0.0,0.0,0.0,0.0,0.0,0.0,0.0,0.0,0.0,0.0,0.0,0.0,0.0,0.0,0.0,0.0,0.0,0.0,0.0,0.0,0.0,0.0,0.0,0.0,0.0,0.0,0.0,0.0,0.0,0.0,0.0,0.0,0.0,0.0,0.0,0.0,0.0,0.0,0.0,0.0,0.0,0.0,0.0,0.0,0.0,0.0,0.0,0.0,0.0,4.8199,5.5295,6.1122,6.5521,6.7196,6.7912,6.7629,6.4249,5.9755,5.4219,0.0,0.0,0.0,0.0,0.0,0.0,0.0,0.0,0.0,0.0,0.0,0.0,0.0,0.0,0.0,0.0,0.0,0.0,0.0,0.0,0.0,0.0,0.0,0.0,0.0,0.0,0.0,0.0,0.0,0.0,0.0,0.0,0.0,0.0,0.0,0.0,0.0,0.0,0.0,3.3685,3.4953,0.0,0.0,0.0,0.0,0.0,0.0,0.0,0.0,3.4046,0.0,0.0,0.0,0.0,0.0,0.0,0.0,0.0,0.0,0.0,0.0,0.0,0.0,0.0,0.0,0.0,0.0,0.0,0.0,0.0,0.0,0.0,0.0,0.0,0.0,0.0,0.0,0.0,0.0,0.0,0.0,0.0,0.0,0.0,0.0,0.0,0.0,0.0,0.0,0.0,0.0,0.0,0.0,0.0,0.0,0.0,0.0,0.0,0.0,0.0,0.0,0.0,0.0,0.0,0.0,5.1019,5.8099,6.3902,6.8126,6.9737,6.9995,6.9011,6.5883,6.1274,0.0,0.0,0.0,0.0,0.0,0.0,0.0,0.0,0.0,0.0,0.0,0.0,0.0,0.0,0.0,0.0,0.0,0.0,0.0,0.0,0.0,0.0,0.0,0.0,0.0,0.0,0.0,0.0,0.0,0.0,0.0,0.0,0.0,0.0,0.0,0.0,0.0,0.0,0.0,0.0,3.5745,3.7025,3.7733,0.0,0.0,0.0,0.0,0.0,0.0,3.7161,3.6988,0.0,0.0,0.0,0.0,0.0,0.0,0.0,0.0,0.0,0.0,0.0,0.0,0.0,0.0,0.0,0.0,0.0,0.0,0.0,0.0,0.0,0.0,0.0,0.0,0.0,0.0,0.0,0.0,0.0,0.0,0.0,0.0,0.0,0.0,0.0,0.0,0.0,0.0,0.0,0.0,0.0,0.0,0.0,0.0,0.0,0.0,0.0,0.0,0.0,0.0,0.0,0.0,0.0,0.0,0.0,5.3668,6.0997,6.6623,7.0389,7.2209,7.2151,7.0129,6.7224,6.2323,0.0,0.0,0.0,0.0,0.0,0.0,0.0,0.0,0.0,0.0,0.0,0.0,0.0,0.0,0.0,0.0,0.0,0.0,0.0,0.0,0.0,0.0,0.0,0.0,0.0,0.0,0.0,0.0,0.0,0.0,0.0,0.0,0.0,0.0,0.0,0.0,0.0,0.0,0.0,0.0,0.0,3.904,4.0203,4.0244,0.0,0.0,0.0,0.0,4.0347,4.0541,0.0,0.0,0.0,0.0,0.0,0.0,0.0,0.0,0.0,0.0,0.0,0.0,0.0,0.0,0.0,0.0,0.0,0.0,0.0,0.0,0.0,0.0,0.0,0.0,0.0,0.0,0.0,0.0,0.0,0.0,0.0,0.0,0.0,0.0,0.0,0.0,0.0,0.0,0.0,0.0,0.0,0.0,0.0,0.0,0.0,0.0,0.0,0.0,0.0,0.0,0.0,0.0,0.0,0.0,0.0,0.0,5.6302,6.4483,6.9972,7.2467,7.4473,7.4189,7.1411,6.7874,6.2362,0.0,0.0,0.0,0.0,0.0,0.0,0.0,0.0,0.0,0.0,0.0,0.0,0.0,0.0,0.0,0.0,0.0,0.0,0.0,0.0,0.0,0.0,0.0,0.0,0.0,0.0,0.0,0.0,0.0,0.0,0.0,0.0,0.0,0.0,0.0,0.0,0.0,0.0,0.0,0.0,0.0,4.0675,4.2058,4.2923,4.3148,0.0,0.0,4.3561,4.3617,4.3495,0.0,0.0,0.0,0.0,0.0,0.0,0.0,0.0,0.0,0.0,0.0,0.0,0.0,0.0,0.0,0.0,0.0,0.0,0.0,0.0,0.0,0.0,0.0,0.0,0.0,0.0,0.0,0.0,0.0,0.0,0.0,0.0,0.0,0.0,0.0,0.0,0.0,0.0,0.0,0.0,0.0,0.0,0.0,0.0,0.0,0.0,0.0,0.0,0.0,0.0,0.0,0.0,0.0,0.0,0.0,5.2339,5.9229,6.6611,7.1656,7.4186,7.5884,7.5196,7.1953,6.8344,6.2716,0.0,0.0,0.0,0.0,0.0,0.0,0.0,0.0,0.0,0.0,0.0,0.0,0.0,0.0,0.0,0.0,0.0,0.0,0.0,0.0,0.0,0.0,0.0,0.0,0.0,0.0,0.0,0.0,0.0,0.0,0.0,0.0,0.0,0.0,0.0,0.0,0.0,0.0,0.0,0.0,0.0,0.0,4.489,4.5891,0.0,0.0,0.0,4.8119,4.8697,0.0,0.0,0.0,0.0,0.0,0.0,0.0,0.0,0.0,0.0,0.0,0.0,0.0,0.0,0.0,0.0,0.0,0.0,0.0,0.0,0.0,0.0,0.0,0.0,0.0,0.0,0.0,0.0,0.0,0.0,0.0,0.0,0.0,0.0,0.0,0.0,0.0,0.0,0.0,0.0,0.0,0.0,0.0,0.0,0.0,0.0,0.0,0.0,0.0,0.0,0.0,0.0,0.0,0.0,0.0,0.0,0.0,6.2077,6.8723,7.3343,7.5943,7.732,7.6189,7.2386,6.9162,0.0,0.0,0.0,0.0,0.0,0.0,0.0,0.0,0.0,0.0,0.0,0.0,0.0,0.0,0.0,0.0,0.0,0.0,0.0,0.0,0.0,0.0,0.0,0.0,0.0,0.0,0.0,2.6933,0.0,0.0,0.0,0.0,0.0,0.0,0.0,0.0,0.0,0.0,0.0,0.0,0.0,0.0,4.5303,4.7778,4.9116,5.0191,0.0,0.0,5.244,5.3303,5.2894,5.1756,0.0,0.0,0.0,0.0,0.0,0.0,0.0,0.0,0.0,0.0,0.0,0.0,0.0,0.0,0.0,0.0,0.0,0.0,0.0,0.0,0.0,0.0,0.0,0.0,0.0,0.0,0.0,0.0,0.0,0.0,0.0,0.0,0.0,0.0,0.0,0.0,0.0,0.0,0.0,0.0,0.0,0.0,0.0,0.0,0.0,0.0,0.0,0.0,0.0,0.0,0.0,0.0,0.0,0.0,0.0,6.4693,7.1219,7.5626,7.799,7.9088,7.7482,7.2971,7.0487,6.5005,0.0,0.0,0.0,0.0,0.0,0.0,0.0,0.0,0.0,0.0,0.0,0.0,0.0,0.0,0.0,0.0,0.0,0.0,0.0,0.0,0.0,0.0,0.0,0.0,0.0,0.0,0.0,0.0,0.0,0.0,0.0,0.0,0.0,0.0,0.0,0.0,0.0,0.0,0.0,0.0,0.0,4.7568,5.0525,5.2528,5.3819,0.0,0.0,5.5892,5.6501,5.5317,5.3859,5.2435,0.0,0.0,0.0,0.0,0.0,0.0,0.0,0.0,0.0,0.0,0.0,0.0,0.0,0.0,0.0,0.0,0.0,0.0,0.0,0.0,0.0,0.0,0.0,0.0,0.0,0.0,0.0,0.0,0.0,0.0,0.0,0.0,0.0,0.0,0.0,0.0,0.0,0.0,0.0,0.0,0.0,0.0,0.0,0.0,0.0,0.0,0.0,0.0,0.0,0.0,0.0,0.0,0.0,5.7953,6.6763,7.2626,7.6576,7.849,7.9355,7.7598,7.2991,6.9885,6.4816,0.0,0.0,0.0,0.0,0.0,0.0,0.0,0.0,0.0,0.0,0.0,0.0,0.0,0.0,0.0,0.0,0.0,0.0,0.0,0.0,0.0,0.0,0.0,0.0,0.0,0.0,0.0,0.0,3.363,3.4219,3.4728,0.0,0.0,0.0,0.0,0.0,0.0,0.0,0.0,0.0,0.0,5.115,5.3279,5.5333,0.0,0.0,5.8334,5.8949,5.9969,5.8377,5.648,5.4947,5.1244,0.0,0.0,0.0,0.0,0.0,0.0,0.0,0.0,0.0,0.0,0.0,0.0,0.0,0.0,0.0,0.0,0.0,0.0,0.0,0.0,0.0,0.0,0.0,0.0,0.0,0.0,0.0,0.0,0.0,0.0,0.0,0.0,0.0,0.0,0.0,0.0,0.0,0.0,0.0,0.0,0.0,0.0,0.0,0.0,0.0,0.0,0.0,0.0,0.0,0.0,0.0,0.0,5.9306,6.8478,7.3681,7.7293,7.9264,7.979,7.7944,7.3639,7.0391,6.568,0.0,0.0,0.0,0.0,0.0,0.0,0.0,0.0,0.0,0.0,0.0,0.0,0.0,0.0,0.0,0.0,0.0,0.0,0.0,0.0,0.0,0.0,0.0,0.0,0.0,0.0,0.0,0.0,3.5679,3.5701,3.5475,0.0,0.0,0.0,0.0,0.0,0.0,0.0,0.0,0.0,0.0,5.4597,5.6329,5.8375,5.9963,6.067,6.0936,6.129,6.185,6.0302,5.8494,5.6791,0.0,0.0,0.0,0.0,0.0,0.0,0.0,0.0,0.0,0.0,0.0,0.0,0.0,0.0,0.0,0.0,0.0,0.0,0.0,0.0,0.0,0.0,0.0,0.0,0.0,0.0,0.0,3.3387,0.0,0.0,3.1467,0.0,0.0,0.0,0.0,0.0,0.0,0.0,0.0,0.0,0.0,0.0,0.0,0.0,0.0,0.0,0.0,0.0,0.0,0.0,0.0,0.0,0.0,5.9774,6.9745,7.434,7.7905,8.0509,8.0664,7.8806,7.4943,7.2474,6.8128,6.1584,0.0,0.0,0.0,0.0,0.0,0.0,0.0,0.0,0.0,0.0,0.0,0.0,0.0,0.0,0.0,0.0,0.0,0.0,0.0,0.0,0.0,0.0,0.0,0.0,0.0,0.0,3.7444,3.79,3.779,0.0,0.0,0.0,0.0,0.0,0.0,0.0,0.0,0.0,0.0,5.4867,5.7708,5.9786,6.1762,6.2765,6.2234,6.2647,6.2706,6.1843,6.0788,5.948,0.0,0.0,0.0,0.0,0.0,0.0,0.0,0.0,0.0,0.0,0.0,0.0,0.0,0.0,0.0,0.0,0.0,0.0,0.0,0.0,0.0,0.0,0.0,0.0,0.0,0.0,0.0,3.7354,3.6565,0.0,0.0,0.0,0.0,0.0,0.0,0.0,0.0,0.0,0.0,0.0,4.7108,4.6063,0.0,0.0,0.0,0.0,0.0,0.0,0.0,0.0,0.0,0.0,0.0,0.0,6.2578,7.1279,7.5556,7.8622,8.0631,8.0691,7.8833,7.5002,7.2992,6.7924,5.9466,0.0,0.0,0.0,0.0,0.0,0.0,0.0,0.0,0.0,0.0,0.0,0.0,0.0,0.0,0.0,0.0,0.0,0.0,0.0,0.0,0.0,0.0,0.0,0.0,0.0,3.8256,0.0,0.0,0.0,0.0,0.0,0.0,0.0,0.0,0.0,0.0,0.0,5.2163,5.6074,5.8946,6.1279,6.2869,6.4006,6.4843,0.0,0.0,0.0,0.0,0.0,0.0,0.0,0.0,0.0,0.0,0.0,0.0,0.0,0.0,5.5466,5.0614,5.1324,5.2546,5.2285,0.0,0.0,0.0,0.0,0.0,0.0,0.0,0.0,0.0,0.0,0.0,0.0,0.0,0.0,4.0615,3.977,3.8783,0.0,0.0,0.0,0.0,0.0,0.0,0.0,0.0,4.8972,5.0452,5.1614,5.0651,4.995,0.0,4.8149,4.6019,0.0,0.0,0.0,0.0,0.0,0.0,0.0,0.0,6.5638,7.3412,7.7171,7.9672,8.0995,8.0829,7.9119,7.5858,7.3204,6.8217,6.0569,5.7181,5.2936,0.0,0.0,0.0,0.0,0.0,0.0,0.0,0.0,0.0,0.0,0.0,0.0,0.0,0.0,0.0,0.0,0.0,0.0,0.0,0.0,0.0,0.0,0.0,4.0577,0.0,0.0,0.0,0.0,0.0,0.0,0.0,0.0,0.0,4.9991,5.3061,5.6588,6.0004,6.2389,6.4241,6.5554,0.0,0.0,0.0,0.0,0.0,0.0,0.0,6.4519,6.4229,6.3956,6.4112,6.5111,6.5681,6.6122,6.6521,0.0,0.0,5.8829,5.907,6.0297,6.0062,5.9971,6.0142,6.0844,6.0775,6.1027,0.0,0.0,0.0,0.0,0.0,0.0,0.0,0.0,4.4275,4.3848,0.0,4.2548,0.0,0.0,0.0,0.0,4.4442,4.6456,0.0,0.0,5.3175,5.4425,5.5585,5.5033,5.4903,5.5134,5.4233,5.3804,5.3566,4.731,0.0,0.0,0.0,0.0,0.0,0.0,6.878,7.5931,7.9146,8.1083,8.1818,8.1122,7.9637,7.7365,7.3258,6.9126,6.4989,6.1349,5.7418,5.3206,4.9356,0.0,0.0,0.0,0.0,0.0,0.0,0.0,0.0,0.0,0.0,0.0,0.0,0.0,0.0,0.0,0.0,0.0,0.0,0.0,0.0,4.2928,0.0,0.0,0.0,0.0,0.0,0.0,0.0,0.0,0.0,0.0,5.4467,5.7288,6.0514,6.3327,0.0,0.0,0.0,0.0,6.9184,6.9215,6.9215,6.8759,6.7511,6.8603,6.9149,6.7895,0.0,0.0,7.0802,7.0617,7.0767,7.1345,7.341,7.3141,6.6893,6.6287,6.6729,6.6666,6.7075,6.7403,6.743,6.7601,6.7884,5.3515,0.0,0.0,0.0,0.0,4.8715,4.872,4.8744,4.8227,4.8031,4.7992,4.642,0.0,0.0,0.0,0.0,0.0,0.0,5.4359,5.6791,5.8538,5.9892,6.0859,6.0265,6.0162,6.0461,5.9756,5.9879,6.069,5.971,5.6498,5.1532,0.0,0.0,0.0,0.0,7.2517,7.8166,8.0355,8.1842,8.2916,8.1657,7.9772,7.7159,7.4695,7.1961,6.8881,6.6569,6.3099,5.8219,5.4578,0.0,0.0,0.0,0.0,0.0,0.0,0.0,0.0,0.0,0.0,0.0,0.0,0.0,0.0,0.0,0.0,0.0,0.0,0.0,4.698,4.7717,4.7911,0.0,0.0,0.0,0.0,0.0,0.0,0.0,0.0,0.0,6.4836,6.4816,6.5578,0.0,0.0,7.0585,7.1476,7.2151,7.2736,7.32,7.3323,0.0,7.246,7.2336,7.2305,7.2183,7.4496,7.6355,7.6289,7.7397,7.8283,7.8233,7.8604,7.8167,7.6312,7.5635,7.5347,7.4917,7.4685,7.4598,7.4622,7.445,7.4336,5.9049,5.5922,5.436,5.3406,5.296,5.2978,5.296,5.2871,5.2457,5.2269,5.2125,5.0979,5.0207,4.9857,5.0143,0.0,0.0,0.0,5.9518,6.1741,6.3158,6.4266,6.4984,6.4982,6.5152,6.5612,6.5883,6.6724,6.8093,6.9749,6.8453,6.4258,0.0,0.0,6.8234,7.2553,7.6902,8.1114,8.2456,8.3306,8.376,8.1923,7.9956,7.7936,7.6562,7.4792,7.2509,7.0533,6.7511,6.3253,5.9524,5.5483,0.0,0.0,0.0,0.0,0.0,0.0,0.0,0.0,0.0,0.0,0.0,3.8302,0.0,0.0,0.0,0.0,4.6803,4.9221,5.1978,5.229,0.0,0.0,0.0,0.0,0.0,0.0,0.0,6.2469,6.6422,6.9876,7.2055,7.2028,7.1937,7.2181,7.301,7.3845,7.4531,0.0,7.562,7.6151,7.637,7.6338,7.5994,7.6024,7.6396,7.7134,7.8752,7.9971,8.0095,8.0924,8.1498,8.1289,8.0875,8.0422,8.0182,7.986,7.9434,7.8825,7.847,7.8288,7.8099,7.7947,7.7977,6.4501,6.3636,6.0722,5.8903,5.7976,5.7685,5.7322,5.693,5.693,5.6577,5.5992,5.6048,5.5722,5.5327,5.6918,0.0,5.9985,6.2284,6.4534,6.6586,6.732,6.8022,6.8634,6.9365,7.0062,7.0811,7.2345,7.3964,7.5725,7.796,7.9369,7.9704,7.4897,7.3196,7.4907,7.8412,8.1607,8.4292,8.4999,8.5034,8.4321,8.2018,8.0316,7.9249,7.8535,7.7379,7.5665,7.3404,7.0859,6.7932,6.4103,5.9945,5.5472,0.0,0.0,0.0,0.0,0.0,0.0,0.0,0.0,0.0,0.0,0.0,0.0,0.0,0.0,0.0,5.2848,0.0,5.7023,5.7259,0.0,0.0,0.0,6.1229,6.3488,6.5385,6.7633,7.0389,0.0,0.0,7.693,7.8532,7.8744,7.671,7.6525,7.6807,7.7495,7.7905,7.8188,7.8592,7.8815,7.8847,7.862,7.9334,8.0363,8.1483,8.2206,8.2146,8.2081,8.1873,8.17,8.1666,8.1048,8.0562,8.0562,8.0313,7.9956,7.9662,7.9555,7.9412,7.9209,7.9301,7.9543,6.9647,6.9016,6.878,6.5853,6.126,6.0961,6.1074,6.1445,6.1476,6.1275,6.0934,6.1471,6.1677,6.1584,6.325,6.4319,6.4998,6.7825,6.9651,7.0649,7.1798,7.297,7.4108,7.4533,7.5641,7.7312,7.852,8.0196,8.2236,8.4711,8.6052,8.6257,8.6317,8.4501,8.1019,8.2488,8.4095,8.5693,8.5897,8.5324,8.3987,8.2555,8.1088,7.9528,7.9139,7.8244,7.6714,7.5364,7.3227,7.0149,6.7053,6.3186,5.8548,5.3539,0.0,0.0,0.0,0.0,0.0,0.0,0.0,0.0,0.0,4.4213,4.7255,0.0,5.1478,0.0,5.8956,6.2803,6.5995,6.584,0.0,0.0,6.7185,6.8123,6.9789,7.283,7.5122,7.5805,7.8656,8.0954,8.195,8.2426,8.2998,8.3637,8.1815,8.0831,8.1979,8.2041,8.2039,8.2328,8.2198,8.2,8.164,8.1624,8.1834,8.2174,8.2408,8.2575,8.2575,8.2273,8.207,8.2037,8.1457,8.101,8.094,8.1305,8.1402,8.108,8.0796,8.0764,8.1141,8.1275,8.1329,7.3889,7.3886,7.4265,7.2102,6.8313,6.6344,6.5578,6.5663,6.5885,6.5864,6.569,6.6447,6.6781,6.69,6.8833,7.0075,7.0773,7.3426,7.5097,7.5861,7.6742,7.7643,7.8474,7.9292,8.0537,8.2116,8.3929,8.6023,8.8301,9.042,9.1674,9.2145,9.3009,9.1633,8.8102,8.7259,8.7067,8.7325,8.6982,8.6067,8.4524,8.3759,8.2443,8.058,8.0046,7.9069,7.7608,7.5825,7.3872,7.1713,6.8969,6.5705,6.1934,5.786,5.415,0.0,0.0,0.0,0.0,0.0,0.0,0.0,0.0,0.0,0.0,0.0,5.9136,6.3443,6.6316,6.8908,7.1262,7.1121,7.132,7.2454,7.363,7.4963,7.6602,7.9198,8.1041,8.1537,8.3504,8.5005,8.5341,8.5533,8.6046,8.7175,8.5687,8.4625,8.4886,8.4885,8.4917,8.495,8.4917,8.4528,8.3779,8.3483,8.3188,8.2803,8.3094,8.3383,8.3415,8.3229,8.3077,8.3008,8.2354,8.1696,8.1726,8.1861,8.2219,8.298,8.299,8.2677,8.2103,8.2244,8.2456,7.7575,7.8084,7.8207,7.7615,7.6337,7.2829,7.0716,6.9709,7.0213,7.0493,7.0708,7.1261,7.1567,7.1812,7.3903,7.5387,7.6413,7.8687,8.0223,8.1201,8.1563,8.1955,8.2472,8.3706,8.4958,8.6163,8.8741,9.1208,9.3549,9.5108,9.6201,9.6781,9.6653,9.5862,9.4392,9.1864,9.0126,8.9163,8.8269,8.7177,8.5841,8.5336,8.403,8.1859,8.1029,7.989,7.8224,7.5795,7.393,7.2826,7.032,6.7931,6.5626,6.2966,6.0115,0.0,5.5471,0.0,0.0,0.0,0.0,0.0,0.0,0.0,0.0,6.4444,6.8009,7.2989,7.376,7.4272,7.5057,7.509,7.5665,7.7064,7.8983,8.0968,8.2846,8.4365,8.5621,8.6751,8.7492,8.7852,8.7826,8.8182,8.8536,8.8603,8.8277,8.7658,8.7011,8.6819,8.6722,8.6524,8.6559,8.5879,8.5035,8.4809,8.4486,8.3747,8.3997,8.4409,8.4409,8.4274,8.4165,8.4065,8.3269,8.2658,8.2714,8.2657,8.3213,8.5004,8.5457,8.5024,8.3622,8.3563,8.3624,8.1204,8.0817,8.1398,8.0908,7.9659,7.9196,7.6849,7.3548,7.4679,7.5838,7.6839,7.6463,7.6677,7.7471,7.8511,7.9382,8.0178,8.1988,8.3418,8.4402,8.4701,8.5739,8.736,8.7557,8.9,9.1409,9.3066,9.4679,9.6249,9.7771,9.8243,9.7855,9.7986,9.7112,9.5248,0.0,0.0,0.0,8.9812,8.8929,8.8373,8.6886,8.4961,8.2603,8.1766,0.0,7.8291,7.694,7.5425,7.3643,7.1741,0.0,0.0,0.0,0.0,0.0,0.0,0.0,0.0,0.0,0.0,0.0,7.075,7.0529,6.8253,7.1288,7.4775,7.7919,7.881,7.9701,8.0918,8.1036,8.1188,8.1496,8.2646,8.3997,8.5515,8.6712,8.7917,8.9253,8.9967,9.0293,9.0032,9.0327,9.0359,8.9806,8.9512,8.9217,8.8956,8.7979,8.7227,8.6827,8.6376,8.5629,8.5237,8.5239,8.5208,8.4947,8.4976,8.5105,8.5069,8.4619,8.4262,8.4259,8.3569,8.3361,8.4108,8.4633,8.539,8.6663,8.7326,8.7601,8.7208,8.7203,8.7218,8.3887,8.392,8.4429,8.3958,0.0,8.3215,8.1726,7.9031,7.865,7.9321,8.0618,8.0805,8.1334,8.218,8.3413,8.4135,8.4533,8.6064,8.7146,8.7839,8.8279,8.9374,9.1088,9.1619,9.2972,9.4962,9.6518,9.7904,9.9117,9.9883,10.0238,10.0203,9.9363,9.8251,9.694,9.5804,9.419,9.2104,9.1316,9.0432,8.9579,8.8632,8.7037,8.4735,8.3764,0.0,0.0,0.0,0.0,0.0,0.0,0.0,0.0,0.0,0.0,7.1149,7.0449,7.0391,7.1208,7.2798,7.4685,7.6866,7.893,7.8719,7.5496,7.8063,8.0479,8.1979,8.2016,8.2298,8.3312,8.3491,8.3614,8.4009,8.5517,8.7069,8.8147,8.9315,9.0488,9.1468,9.1959,9.2024,9.1463,9.1564,9.1239,9.0294,8.9936,8.9706,8.9344,8.8855,8.843,8.8264,8.7673,8.6956,8.6436,8.6204,8.5843,8.5486,8.561,8.5732,8.5593,8.5394,8.526,8.5225,8.502,8.5178,8.609,8.6825,8.7659,8.8818,8.9469,8.9811,8.9996,8.919,8.825,8.5974,8.6563,8.6777,8.6423,8.5691,8.6022,8.5639,8.4636,8.2445,0.0,0.0,8.4682,8.5437,8.6111,8.7562,8.8319,8.8575,8.9713,9.056,9.1119,9.1672,9.2776,9.4342,9.542,9.6725,9.8157,9.9685,10.0952,10.1879,10.1746,10.1937,10.2266,10.0532,9.9118,9.8281,9.6688,9.499,9.3326,9.2899,9.2021,9.0714,9.0352,8.9136,8.6991,8.5868,8.4833,8.3846,8.1948,8.0688,8.0201,7.9044,7.8365,7.8308,7.7651,7.6835,7.5931,7.5493,7.6073,7.7682,7.8749,8.0649,8.3668,8.4668,8.4217,8.2005,8.3609,8.4764,8.4956,8.4279,8.4083,8.4635,8.4883,8.5264,8.5985,8.8082,8.9804,9.0782,9.1795,9.2811,9.3529,9.3659,9.3297,9.2375,9.2344,9.1954,9.0814,9.0424,9.0065,8.9439,8.9308,8.9179,8.9114,8.8651,8.8321,8.7704,8.714,8.6646,8.5929,8.6211,8.6424,8.6208,8.6361,8.6592,8.6667,8.6869,8.7449,8.8271,8.8787,8.9765,9.127,9.15,9.1655,9.212,9.087,8.9431,8.7419,8.7456,8.7219,8.7249,8.7438,8.7804,8.8373,8.8798,8.6232,8.6028,8.7614,8.8328,8.8702,8.8772,8.9219,8.9942,9.0809,9.1323,9.235,9.3827,9.4232,9.5599,9.775,9.827,9.9855,10.2332,10.2987,10.3615,10.4216,10.3444,10.2982,10.2632,10.0941,9.92,9.762,9.6626,9.5882,9.5356,9.4799,9.4108,9.325,9.1734,9.0052,8.8205,8.6817,8.5158,8.33,8.2724,8.1824,8.0674,7.9935,8.0357,8.2134,8.1606,8.1964,8.3493,8.3344,8.3224,8.3164,8.3895,8.4883,8.6205,8.6501,8.605,8.4883,8.5562,8.5985,8.5728,8.6017,8.6402,8.6565,8.7144,8.7857,8.8858,9.0324,9.1923,9.3413,9.3872,9.4304,9.4964,9.5095,9.4469,9.3056,9.2966,9.2839,9.202,9.137,9.0846,9.0319,8.9365,8.8741,8.8608,8.8305,8.8038,8.7844,8.7532,8.7265,8.7127,8.7127,8.719,8.715,8.7375,8.7674,8.8054,8.837,8.9141,9.0284,9.0434,9.1314,9.2936,9.3156,9.3163,9.3732,9.3318,9.2573,8.8192,8.8526,8.8413,8.8665,8.9211,8.9569,9.0296,9.1136,9.0144,8.988,9.0329,9.1025,9.1506,9.1865,9.2154,9.264,9.3293,9.3879,9.5028,9.6615,9.7398,9.8928,10.1006,10.1567,10.2643,10.4128,10.4047,10.4313,10.4721,10.3394,10.2792,10.2939,10.1298,9.9459,9.7696,9.7117,9.6518,9.5839,9.553,9.4993,9.4069,9.3244,9.1953,9.0147,8.926,8.8096,8.6438,8.5935,8.5319,8.4532,8.4069,8.4273,8.5021,8.485,8.4848,8.5265,8.5331,8.54,8.5438,8.6239,8.6912,8.7396,8.7243,8.7146,8.7003,8.6789,8.6727,8.6919,8.7308,8.7826,8.8567,8.9608,9.0616,9.1409,9.2985,9.4266,9.5012,9.5541,9.5845,9.5986,9.602,9.5427,9.4078,9.4051,9.3791,9.297,9.2319,9.1892,9.1529,9.0936,9.015,8.9304,8.8744,8.8441,8.8237,8.7931,8.7622,8.7446,8.7412,8.757,8.7822,8.809,8.8409,8.8992,8.9849,9.0925,9.19,9.2681,9.3634,9.4475,9.4867,9.4882,9.4859,9.4524,9.379,8.9259,8.985,8.9763,9.02,9.0993,9.1425,9.2247,9.3325,9.3589,9.3503,9.3205,9.3332,9.3691,9.4202,9.4614,9.5022,9.5453,9.6171,9.7377,9.8995,10.0054,10.1705,10.365,10.4418,10.502,10.5491,10.5072,10.5081,10.5332,10.3553,10.2643,10.2765,10.1354,9.9822,9.8373,9.8002,9.7307,9.6225,9.619,9.5591,9.4455,9.4283,9.3361,9.1707,9.1096,9.0271,8.8971,8.8362,8.7933,8.7611,8.7315,8.711,8.6897,8.6747,8.6352,8.5768,8.5962,8.6415,8.6975,8.769,8.8273,8.8627,8.8407,8.8472,8.8983,8.8667,8.8344,8.8535,8.883,8.9577,9.0832,9.2106,9.3216,9.3911,9.5295,9.6188,9.6417,9.6887,9.7096,9.6809,9.6648,9.6188,9.5333,9.4973,9.4514,9.3727,9.3434,9.3171,9.2676,9.2544,9.179,9.0648,8.9796,8.9362,8.8962,8.8752,8.854,8.8132,8.8195,8.855,8.8864,8.9019,8.9533,9.0401,9.1635,9.2752,9.3423,9.4339,9.5364,9.5939,9.6036,9.5994,9.5933,9.5313,9.4477,9.1221,9.1489,9.1232,9.1695,9.2734,9.3437,9.4642,9.5969,9.6122,9.6463,9.6573,9.5371,9.476,9.4885,9.5455,9.611,9.6809,9.7368,9.8671,10.0358,10.1425,10.304,10.5064,10.5889,10.6804,10.7522,10.6897,10.6799,10.7389,10.5134,10.3252,10.1916,10.1009,10.0383,9.986,9.9427,9.8558,9.7314,9.7253,9.6462,9.4894,9.4185,9.3186,9.1806,9.0816,8.9651,8.8439,8.7933,8.7611,8.7349,8.705,8.699,8.717,8.6719,8.6476,8.6661,8.7069,8.7662,8.8537,8.882,8.9443,9.0639,9.0717,9.0881,9.1303,9.212,9.1988,9.1006,9.1299,9.2213,9.3354,9.4402,9.5311,9.5908,9.6803,9.7467,9.7685,9.7876,9.7786,9.744,9.7163,9.6542,9.5622,9.5168,9.4812,9.4419,9.4684,9.4617,9.3793,9.3429,9.2933,9.2082,9.1386,9.0722,9.0134,9.0216,9.007,9.0096,9.0227,9.0192,9.0317,9.0866,9.1671,9.2257,9.3404,9.4356,9.5045,9.5671,9.5822,9.6621,9.6812,9.6653,9.7019,9.6607,9.5674,9.2203,9.2725,9.2612,9.3521,9.504,9.6028,9.6911,9.7696,9.7557,9.7578,9.7709,9.7065,9.6387,9.5757,9.6904,9.7558,9.7768,9.8918,10.0352,10.1997,10.2897,10.4337,10.6161,10.6579,10.7201,10.7912,10.6806,10.6592,10.6871,10.501,10.3261,10.2042,10.1476,10.099,10.0399,9.9995,9.901,9.7446,9.7248,9.6346,9.4875,9.4526,9.3899,9.2759,9.1494,9.024,8.8922,8.8108,8.7582,8.7319,8.717,8.7335,8.7852,8.7645,8.7661,8.8029,8.8411,8.8811,8.923,8.99,9.0229,9.0228,9.1207,9.1828,9.2021,9.2968,9.3554,9.3776,9.3975,9.4433,9.5272,9.6128,9.6846,9.7322,9.802,9.8521,9.8614,9.9051,9.903,9.8277,9.786,9.7241,9.6286,9.5765,9.5505,9.5375,9.5607,9.5409,9.4815,9.4482,9.3853,9.3095,9.2753,9.2152,9.1108,9.0843,9.0862,9.069,9.0621,9.072,9.1475,9.1734,9.2382,9.368,9.4629,9.5442,9.608,9.6812,9.7203,9.757,9.7602,9.7515,9.7806,9.7401,9.6681,9.336,9.4123,9.4532,9.564,9.7204,9.7931,9.8589,9.9072,9.8791,9.8708,9.8791,9.9,9.8502,9.7733,9.8483,9.8811,9.9043,10.0326,10.1768,10.3269,10.3976,10.5173,10.678,10.6913,10.7306,10.7734,10.6485,10.5807,10.5827,10.4629,10.3278,10.2317,10.1945,10.1511,10.0947,10.0571,9.967,9.815,9.7563,9.6622,9.5407,9.4927,9.4237,9.3066,9.1942,9.0677,8.9211,8.8324,8.7792,8.7584,8.7554,8.7885,8.8548,8.8584,8.8824,8.927,8.9582,8.9884,9.0049,9.0714,9.1044,9.1011,9.2057,9.2777,9.3292,9.4203,9.5216,9.6094,9.6364,9.6656,9.6943,9.7565,9.8092,9.8547,9.9119,9.939,9.9424,9.9931,9.987,9.9147,9.8461,9.7643,9.6655,9.6132,9.5936,9.5936,9.5969,9.5936,9.5607,9.5209,9.4679,9.3918,9.3972,9.3371,9.199,9.192,9.1718,9.1613,9.164,9.1937,9.2563,9.2726,9.3242,9.477,9.569,9.6405,9.6974,9.7692,9.8023,9.8056,9.8056,9.8023,9.802,9.7729,9.7364,9.5013,9.6131,9.7327,9.8194,9.8878,9.8739,9.9348,10.0437,10.0132,10.0194,10.0558,10.1147,10.1221,10.0695,10.0026,9.9815,10.0572,10.1403,10.2614,10.3986,10.4369,10.5353,10.6842,10.6913,10.7306,10.7805,10.6449,10.4996,10.3783,10.3931,10.3637,10.2606,10.2158,10.1883,10.1543,10.1244,10.0655,9.9445,9.8472,9.7644,9.6841,9.5327,9.3791,9.2268,9.1715,9.065,8.912,8.8496,8.8283,8.825,8.8283,8.8614,8.9277,8.9409,8.971,9.0308,9.041,9.0774,9.1305,9.1319,9.1944,9.3543,9.375,9.4272,9.5311,9.6425,9.7147,9.7407,9.8198,9.8666,9.861,9.8799,9.9226,9.9832,10.0069,10.0168,10.0136,10.0305,10.0204,9.9908,9.8956,9.771,9.633,9.6001,9.6034,9.6001,9.6001,9.5969,9.5903,9.5607,9.5143,9.4877,9.4675,9.4376,9.3146,9.3076,9.3463,9.336,9.3198,9.3519,9.3877,9.43,9.498,9.5692,9.6343,9.7023,9.77,9.8023,9.8056,9.8092,9.8092,9.8092,9.8092,9.7766,9.7437,9.7266,9.8048,9.9005,9.9647,10.0041,10.0415,10.0855,10.1263,10.1026,10.1334,10.2,10.237,10.2744,10.3216,10.3235,10.2809,10.2269,10.2988,10.3504,10.3728,10.3819,10.4665,10.6021,10.6164,10.6556,10.7056,10.6174,10.4813,10.328,10.3166,10.2906,10.2317,10.1819,10.1521,10.1384,10.1136,10.0447,9.9409,9.8781,9.7718,9.6042,9.5225,9.3964,9.2182,9.1713,9.1091,9.026,8.9459,8.9045,8.8981,8.9012,8.9343,9.0041,9.0569,9.09,9.1134,9.1011,9.131,9.2162,9.2436,9.2899,9.3875,9.4998,9.5554,9.6065,9.725,9.8307,9.8596,9.9296,9.987,10.021,10.0071,9.9899,10.0202,10.0675,10.098,10.1081,10.1352,10.1521,10.0848,9.9519,9.8069,9.7187,9.6626,9.6262,9.6034,9.6001,9.6001,9.5936,9.5673,9.5342,9.5209,9.5042,9.4742,9.4343,9.4307,9.4469,9.4401,9.4333,9.4423,9.4679,9.4731,9.5245,9.6213,9.6894,9.7315,9.7894,9.8056,9.8092,9.8092,9.8092,9.8092,9.8092,9.7875,9.7657,9.8963,9.9456,10.0264,10.0796,10.1108,10.1519,10.173,10.1819,10.1902,10.2351,10.2998,10.3388,10.4168,10.5101,10.5553,10.5195,10.4312,10.4561,10.4486,10.4165,10.413,10.4843,10.5878,10.5843,10.6128,10.6602,10.5739,10.4383,10.3014,10.2701,10.2378,10.1945,10.1602,10.1134,10.0684,10.0307,9.9615,9.8709,9.8257,9.7291,9.593,9.5569,9.4861,9.3646,9.301,9.2058,9.097,9.0363,9.0166,9.0261,9.0398,9.0801,9.1529,9.2026,9.2192,9.1993,9.2098,9.2328,9.2848,9.3415,9.4008,9.4656,9.604,9.6926,9.6979,9.8403,9.9332,9.9863,10.0235,10.0912,10.1419,10.125,10.0948,10.1014,10.1453,10.1724,10.1792,10.2198,10.1998,10.1194,10.0028,9.8838,9.7784,9.7122,9.6529,9.6068,9.6001,9.6001,9.5969,9.5772,9.5541,9.5408,9.5342,9.5209,9.5043,9.5076,9.4941,9.484,9.4739,9.4929,9.5243,9.5296,9.5704,9.6638,9.725,9.7606,9.7865,9.8059,9.8092,9.8092,9.8092,9.8092,9.8092,9.8092,9.7766,10.0113,10.0299,10.1252,10.174,10.1954,10.1908,10.1935,10.2263,10.2986,10.3374,10.3764,10.4473,10.5456,10.6361,10.652,10.6581,10.655,10.6076,10.5648,10.546,10.5521,10.595,10.6735,10.6005,10.5908,10.6453,10.4998,10.3663,10.2658,10.2483,10.222,10.1792,10.1602,10.078,9.929,9.9077,9.8355,9.7586,9.713,9.6954,9.7231,9.6499,9.6067,9.5926,9.5323,9.3713,9.0924,9.1391,9.1844,9.2097,9.2444,9.3019,9.3449,9.3615,9.3449,9.3016,9.3668,9.3825,9.3553,9.4303,9.5288,9.64,9.7415,9.8248,9.8981,9.9947,10.0756,10.1107,10.135,10.169,10.2265,10.2333,10.2265,10.2468,10.2367,10.2367,10.2434,10.2468,10.2102,10.1136,10.0441,9.9547,9.8152,9.7358,9.6862,9.6332,9.6068,9.6001,9.6001,9.5936,9.5772,9.564,9.5607,9.564,9.564,9.5673,9.5408,9.5175,9.5074,9.5103,9.5679,9.5892,9.6331,9.7133,9.7574,9.793,9.793,9.8092,9.8092,9.8092,9.8092,9.8092,9.8092,9.802,9.7693,10.1593,10.1787,10.174,10.1838,10.2149,10.2589,10.2862,10.3013,10.3977,10.4827,10.5447,10.5873,10.6582,10.7434,10.7603,10.762,10.7698,10.7413,10.677,10.5853,10.5736,10.6199,10.6637,10.5911,10.5169,10.4586,10.363,10.2809,10.2308,10.2087,10.1765,10.1411,10.0997,10.0272,9.9206,9.8716,9.8146,9.7653,9.7087,9.6801,9.673,9.65,9.6049,9.5374,9.5262,9.4635,9.3573,9.3675,9.384,9.3964,9.3855,9.3837,9.3878,9.4038,9.4032,9.3897,9.4314,9.496,9.5381,9.5707,9.6689,9.8135,9.8705,9.9365,10.0357,10.0918,10.1335,10.174,10.1985,10.2299,10.2468,10.2536,10.2536,10.2536,10.2536,10.2536,10.2536,10.2504,10.2368,10.1969,10.1205,10.031,9.9447,9.8453,9.7326,9.6829,9.6366,9.6068,9.6035,9.6035,9.6001,9.5837,9.5969,9.5969,9.5903,9.5903,9.5805,9.5607,9.5474,9.5567,9.6081,9.6426,9.6864,9.7393,9.7836,9.8092,9.8092,9.8092,9.8092,9.8092,9.8092,9.8092,9.8092,9.7911,9.7693,10.2272,10.222,10.198,10.2121,10.2563,10.3119,10.3525,10.4012,10.5022,10.5873,10.6458,10.6946,10.7469,10.7993,10.8091,10.8091,10.8091,10.8091,10.7555,10.6735,10.6592,10.6877,10.7101,10.5914,10.4728,10.3659,10.2705,10.2113,10.1819,10.1486,10.1219,10.0948,10.0583,9.9854,9.8928,9.837,9.7893,9.7329,9.6986,9.6825,9.6675,9.685,9.6689,9.6131,9.6184,9.6122,9.5844,9.5906,9.574,9.5324,9.5272,9.5121,9.4867,9.5156,9.5213,9.5042,9.546,9.6009,9.6431,9.6993,9.7944,9.9322,10.0029,10.057,10.1396,10.1796,10.2203,10.2181,10.2326,10.2536,10.2536,10.2536,10.2536,10.2536,10.2536,10.2536,10.247,10.2373,10.2274,10.2009,10.138,10.0715,9.995,9.9186,9.8056,9.7525,9.6896,9.6432,9.6366,9.62,9.6068,9.6001,9.6001,9.6001,9.6001,9.6068,9.6134,9.6036,9.597,9.6197,9.6579,9.6701,9.7014,9.7561,9.8092,9.8092,9.8092,9.8092,9.8092,9.8092,9.8092,9.8092,9.8092,9.8092,9.7838,10.2246,10.1792,10.2069,10.2598,10.3225,10.3525,10.4207,10.5057,10.613,10.6653,10.6848,10.7567,10.8019,10.8091,10.8091,10.8091,10.8091,10.8038,10.8003,10.7834,10.7772,10.7683,10.7319,10.6014,10.4792,10.3623,10.2525,10.1856,10.1721,10.1381,10.0765,10.081,10.0626,9.9855,9.8875,9.8191,9.749,9.6861,9.6771,9.6825,9.6961,9.7504,9.7873,9.7806,9.7772,9.7614,9.7394,9.7454,9.7161,9.6256,9.6563,9.6639,9.6549,9.6841,9.6563,9.6059,9.6945,9.7065,9.7091,9.8082,9.9368,10.0279,10.1458,10.2401,10.2416,10.2898,10.3046,10.2593,10.25,10.2536,10.2536,10.2536,10.2504,10.247,10.2405,10.2405,10.2437,10.2078,10.1914,10.1783,10.1287,10.0685,10.0052,9.9551,9.8918,9.8321,9.7558,9.7062,9.683,9.6498,9.6101,9.6035,9.6101,9.6333,9.6432,9.6797,9.6896,9.6962,9.683,9.6958,9.7174,9.7261,9.7451,9.8005,9.8164,9.8128,9.8128,9.8164,9.8128,9.8092,9.8092,9.8092,9.8092,9.8092,9.7838,10.2131,10.2069,10.2677,10.3119,10.3552,10.4924,10.5802,10.6227,10.7177,10.7629,10.7762,10.7957,10.8091,10.8091,10.8091,10.8091,10.8038,10.7853,10.7809,10.7747,10.7559,10.6953,10.6366,10.5798,10.4863,10.372,10.321,10.2931,10.262,10.2196,10.2029,10.1977,10.1191,10.0618,9.9926,9.8641,9.7853,9.7445,9.6804,9.6852,9.7322,9.7493,9.7755,9.7972,9.8003,9.7941,9.7848,9.769,9.7532,9.7173,9.7245,9.7222,9.6969,9.7222,9.7342,9.7337,9.7558,9.8206,9.8727,9.9226,10.0483,10.2515,10.2814,10.3263,10.4186,10.3822,10.343,10.2931,10.2663,10.2536,10.2536,10.247,10.2373,10.211,10.2045,10.2045,10.2012,10.175,10.1552,10.1486,10.112,10.0785,10.045,9.9883,9.9282,9.885,9.8022,9.7194,9.7095,9.6498,9.6001,9.6233,9.6366,9.6664,9.6995,9.7426,9.7724,9.7857,9.7823,9.7785,9.7966,9.8072,9.8399,9.8846,9.8523,9.8448,9.8376,9.834,9.8268,9.8189,9.8221,9.8254,9.8157,9.8056,9.7693,10.2281,10.266,10.3119,10.3817,10.473,10.5997,10.6751,10.7239,10.7762,10.8091,10.8064,10.7959,10.7906,10.7906,10.78,10.7747,10.7685,10.7559,10.7479,10.7425,10.7207,10.676,10.6289,10.5889,10.5136,10.4303,10.3671,10.3213,10.2862,10.2606,10.2425,10.2263,10.1716,10.1243,10.0961,9.9518,9.8648,9.8489,9.7643,9.7319,9.769,9.7724,9.7817,9.7972,9.8003,9.8003,9.7941,9.7693,9.7474,9.7377,9.7537,9.763,9.7505,9.7879,9.8261,9.8563,9.8785,9.9339,10.0207,10.0848,10.1992,10.347,10.3837,10.4249,10.4483,10.4102,10.3604,10.2863,10.2599,10.2502,10.247,10.2339,10.2079,10.175,10.1585,10.1552,10.1684,10.1387,10.1254,10.112,10.0918,10.0682,10.0648,10.008,9.9812,9.9447,9.8486,9.789,9.7525,9.6664,9.6035,9.62,9.6598,9.6962,9.7327,9.7724,9.8387,9.8586,9.8715,9.8676,9.8598,9.8736,9.8824,9.8952,9.8808,9.8695,9.8584,9.8538,9.8492,9.8448,9.8448,9.8351,9.8254,9.7983,9.762,10.266,10.3349,10.3552,10.473,10.6263,10.6653,10.7239,10.7957,10.8055,10.8064,10.7985,10.7809,10.7702,10.7649,10.7425,10.7226,10.7226,10.7199,10.7098,10.6988,10.6794,10.6605,10.6555,10.595,10.5453,10.494,10.385,10.3308,10.3091,10.2722,10.2534,10.2544,10.2167,10.1922,10.1638,10.0466,9.9819,9.9599,9.8809,9.8347,9.8448,9.8448,9.8479,9.8479,9.8307,9.8406,9.8341,9.8087,9.7801,9.7522,9.7924,9.8304,9.8363,9.8981,9.9466,9.9947,10.0152,10.052,10.1466,10.2628,10.3516,10.4057,10.5022,10.5204,10.4403,10.3972,10.3539,10.2634,10.2536,10.247,10.2339,10.211,10.1783,10.142,10.112,10.1086,10.1187,10.1019,10.0851,10.0817,10.0479,10.0342,10.0308,10.0308,10.0275,9.9944,9.9016,9.8387,9.7823,9.7028,9.6399,9.6068,9.6598,9.726,9.7625,9.8022,9.8718,9.9248,9.9508,9.9502,9.9168,9.9118,9.9033,9.8985,9.8911,9.8828,9.8704,9.8657,9.8743,9.8739,9.8739,9.8545,9.8315,9.7976,9.762,10.3288,10.3747,10.5199,10.6068,10.6591,10.7372,10.786,10.8091,10.8091,10.7985,10.7809,10.7702,10.7568,10.7316,10.7199,10.7199,10.7117,10.6925,10.6655,10.6175,10.6147,10.5975,10.5911,10.5724,10.5638,10.5216,10.4796,10.4303,10.4034,10.3871,10.3983,10.3819,10.2966,10.2761,10.2761,10.1328,10.0649,10.0766,10.0132,9.9627,9.9561,9.9593,9.9593,9.959,9.915,9.9343,9.9834,9.9495,9.9556,9.9921,9.972,9.9679,10.02,10.052,10.0813,10.1052,10.112,10.1725,10.3042,10.3604,10.4126,10.5244,10.5236,10.4981,10.4204,10.3844,10.3376,10.2705,10.2502,10.2405,10.211,10.198,10.1618,10.1187,10.0952,10.0783,10.058,10.0479,10.0479,10.041,10.0376,10.0308,10.0308,10.0308,10.0275,10.0175,9.9645,9.8917,9.8155,9.7426,9.6962,9.6532,9.7227,9.7956,9.8221,9.8618,9.9281,9.9712,9.9939,10.0068,9.9734,9.9357,9.9168,9.9091,9.9053,9.8965,9.8831,9.9075,9.916,9.9096,9.9031,9.8837,9.8574,9.8133,9.7584,10.4198,10.5101,10.6243,10.6918,10.7301,10.786,10.8091,10.8091,10.8091,10.7968,10.7702,10.7568,10.7289,10.698,10.6842,10.6759,10.6759,10.6619,10.6345,10.5975,10.5889,10.5715,10.5418,10.5389,10.5301,10.5154,10.4971,10.4767,10.4561,10.4501,10.4432,10.444,10.3566,10.3261,10.3286,10.189,10.1204,10.1145,10.0641,10.017,10.017,10.017,10.033,10.0453,10.0205,10.0391,10.0783,10.0545,10.0968,10.1558,10.1459,10.1155,10.1406,10.163,10.1995,10.2643,10.278,10.344,10.4569,10.4924,10.5044,10.5635,10.5385,10.4716,10.4147,10.3682,10.3279,10.2739,10.247,10.2373,10.198,10.1684,10.1387,10.1019,10.0715,10.0513,10.0342,10.0308,10.0308,10.0308,10.0308,10.0308,10.0308,10.0308,10.0308,10.0242,9.9745,9.905,9.8851,9.8155,9.7724,9.7558,9.8221,9.8718,9.895,9.9314,9.991,10.0142,10.0174,10.024,10.0072,9.9658,9.9236,9.9227,9.9216,9.9089,9.9054,9.9335,9.9679,9.9711,9.9581,9.9225,9.8727,9.8121,9.7571,10.5302,10.6652,10.6968,10.7474,10.8019,10.8091,10.8091,10.8117,10.8233,10.812,10.7657,10.7414,10.7274,10.6738,10.6451,10.631,10.6282,10.6225,10.6061,10.5802,10.5686,10.5453,10.5183,10.4976,10.4887,10.4857,10.4827,10.4647,10.4561,10.4501,10.4501,10.4379,10.3827,10.3513,10.3158,10.231,10.1621,10.1555,10.1115,10.0808,10.0838,10.0838,10.0996,10.1309,10.1288,10.1507,10.1705,10.1664,10.1988,10.3013,10.3177,10.2837,10.2588,10.2601,10.316,10.4574,10.4556,10.5163,10.5838,10.5989,10.5635,10.5223,10.4956,10.4452,10.3682,10.3346,10.3043,10.2773,10.247,10.2274,10.1882,10.1618,10.1253,10.0851,10.0479,10.0342,10.0308,10.0308,10.0308,10.0308,10.0308,10.0308,10.0308,10.0308,10.0308,10.0242,9.9712,9.9348,9.9149,9.8884,9.842,9.8155,9.8619,9.9249,9.948,9.9612,10.0242,10.0407,10.0374,10.0438,10.0404,10.005,9.966,9.942,9.9339,9.9303,9.957,10.0108,10.0326,10.0359,10.003,9.961,9.8909,9.8177,9.7516,10.6507,10.7207,10.7705,10.801,10.8055,10.8091,10.8091,10.8198,10.8759,10.8369,10.745,10.7864,10.7391,10.662,10.6339,10.6282,10.6254,10.6118,10.5831,10.5506,10.5301,10.5006,10.4737,10.4647,10.4621,10.4561,10.4591,10.4561,10.4531,10.4501,10.447,10.4349,10.3827,10.3519,10.3265,10.2717,10.2264,10.2228,10.2025,10.2053,10.2244,10.2371,10.2497,10.2742,10.2488,10.2676,10.3138,10.2959,10.3112,10.4104,10.4203,10.4448,10.4594,10.4758,10.5134,10.5413,10.5741,10.6242,10.6841,10.6049,10.5453,10.5022,10.4487,10.3681,10.2976,10.2739,10.2705,10.2637,10.2437,10.2242,10.1552,10.1453,10.1086,10.0648,10.0376,10.0308,10.0308,10.0308,10.0308,10.0308,10.0308,10.0308,10.0308,10.0308,10.0308,10.0308,10.0076,9.9679,9.9447,9.9249,9.8983,9.8818,9.8818,9.9447,10.0043,10.0076,10.0341,10.0474,10.0539,10.0697,10.0623,10.0366,10.0113,10.0099,9.9907,9.9768,10.0201,10.078,10.1039,10.1071,10.0548,9.9924,9.9048,9.8242,9.7183,10.736,10.7763,10.8157,10.8222,10.8117,10.8091,10.8091,10.8126,10.8483,10.8094,10.7548,10.7561,10.7258,10.6493,10.6282,10.6282,10.6225,10.6032,10.5715,10.5389,10.5065,10.4767,10.4531,10.4501,10.4501,10.4501,10.4501,10.4501,10.4501,10.4501,10.441,10.4135,10.3738,10.3425,10.3173,10.2725,10.2631,10.2695,10.2791,10.2919,10.3268,10.3394,10.3613,10.3601,10.3611,10.3795,10.4024,10.3982,10.394,10.447,10.485,10.5137,10.5497,10.6054,10.6532,10.6539,10.6688,10.6949,10.7205,10.6341,10.577,10.5405,10.4359,10.3549,10.3077,10.284,10.2536,10.2502,10.247,10.2308,10.175,10.1519,10.1153,10.0716,10.041,10.0308,10.0308,10.0308,10.0308,10.0308,10.0308,10.0308,10.0308,10.0308,10.0308,10.0308,10.0308,10.0076,9.9745,9.9612,9.9481,9.948,9.9414,9.9679,10.0275,10.0407,10.0573,10.0705,10.0902,10.1026,10.111,10.0985,10.1057,10.1131,10.0828,10.0396,10.0618,10.1136,10.1427,10.1617,10.0949,10.0214,9.9207,9.8229,9.7173,10.7974,10.8195,10.8352,10.83,10.8117,10.8091,10.8091,10.8126,10.8305,10.7951,10.7289,10.7384,10.7081,10.6458,10.6282,10.6282,10.6254,10.5975,10.5628,10.536,10.4976,10.4677,10.4561,10.4501,10.4501,10.4501,10.4501,10.4501,10.447,10.4379,10.4231,10.3985,10.3644,10.3362,10.311,10.2855,10.2855,10.2983,10.311,10.3234,10.3613,10.4061,10.4211,10.4108,10.4349,10.4436,10.444,10.4647,10.4647,10.4957,10.531,10.5672,10.5764,10.6665,10.7287,10.7394,10.7394,10.7381,10.7157,10.6587,10.5913,10.5681,10.4565,10.3923,10.3415,10.2942,10.2536,10.2502,10.2339,10.2177,10.175,10.1486,10.1153,10.0783,10.0444,10.0308,10.0308,10.0308,10.0308,10.0308,10.0308,10.0308,10.0308,10.0308,10.0308,10.0308,10.0308,10.0308,10.0043,10.0109,10.0043,10.0109,10.0142,10.0142,10.0407,10.0639,10.0838,10.1103,10.1431,10.1757,10.1802,10.1809,10.1911,10.1907,10.1502,10.1173,10.14,10.1529,10.1853,10.1806,10.1214,10.037,9.9271,9.8196,9.7139,10.8435,10.8429,10.8248,10.8143,10.8091,10.8091,10.8091,10.8162,10.8733,10.8378,10.727,10.7809,10.7399,10.6564,10.6352,10.6317,10.6147,10.5907,10.5552,10.5306,10.4862,10.4561,10.4501,10.4501,10.4501,10.4501,10.4501,10.4501,10.444,10.4227,10.4047,10.3831,10.3457,10.3173,10.3268,10.3078,10.3141,10.3394,10.3491,10.3647,10.4061,10.4881,10.49,10.4582,10.444,10.457,10.4708,10.5057,10.5337,10.5482,10.5885,10.6448,10.6971,10.6887,10.7112,10.7291,10.7397,10.7398,10.7232,10.6558,10.6052,10.5851,10.5039,10.4295,10.3618,10.2976,10.247,10.247,10.2209,10.1849,10.1519,10.1153,10.0817,10.058,10.0376,10.0308,10.0308,10.0308,10.0308,10.0308,10.0308,10.0308,10.0308,10.0308,10.0308,10.0308,10.0341,10.0407,10.054,10.0705,10.0772,10.0871,10.0937,10.0904,10.1004,10.1136,10.1434,10.1666,10.2027,10.2487,10.2596,10.2633,10.2566,10.2461,10.2124,10.1933,10.203,10.216,10.2312,10.1957,10.1397,10.0418,9.9243,9.8188,9.7256,10.8403,10.8274,10.8143,10.8091,10.8091,10.8091,10.8091,10.8136,10.8289,10.7933,10.7332,10.7361,10.702,10.6444,10.6732,10.6618,10.6207,10.6047,10.5654,10.5164,10.4742,10.4501,10.4501,10.4501,10.4501,10.4501,10.4501,10.4501,10.4379,10.4135,10.3862,10.3488,10.3396,10.3236,10.3465,10.3299,10.3488,10.384,10.4332,10.4723,10.5015,10.531,10.5264,10.457,10.4535,10.4742,10.5126,10.5367,10.5761,10.5982,10.6485,10.6746,10.6902,10.6949,10.716,10.7066,10.7101,10.7101,10.7033,10.6629,10.646,10.6223,10.5682,10.4836,10.3821,10.2976,10.2371,10.2177,10.2012,10.1684,10.1253,10.1019,10.0715,10.0444,10.0308,10.0308,10.0308,10.0308,10.0308,10.0308,10.0341,10.0374,10.054,10.0838,10.0904,10.0904,10.1169,10.1534,10.1633,10.1764,10.1764,10.1698,10.1731,10.1732,10.1832,10.1964,10.2329,10.2594,10.2826,10.3214,10.3492,10.3527,10.3301,10.3184,10.2967,10.2807,10.2746,10.2522,10.2414,10.2016,10.1617,10.0561,9.9534,9.8768,9.7939,10.8248,10.8048,10.8279,10.8483,10.8662,10.851,10.8386,10.8244,10.788,10.7487,10.709,10.6822,10.6578,10.6444,10.6773,10.6653,10.6074,10.6401,10.5898,10.5219,10.485,10.4708,10.457,10.4501,10.4501,10.4501,10.4501,10.441,10.4288,10.4108,10.3769,10.3268,10.3606,10.3669,10.3735,10.41,10.4553,10.4899,10.5493,10.5654,10.5547,10.5543,10.5333,10.4953,10.485,10.5126,10.575,10.6071,10.6298,10.6551,10.6988,10.7076,10.6886,10.7028,10.7066,10.7001,10.6967,10.6967,10.6967,10.6832,10.69,10.6629,10.5986,10.4904,10.4058,10.3111,10.234,10.198,10.1782,10.1453,10.1053,10.0817,10.0547,10.041,10.0308,10.0308,10.0308,10.0308,10.0308,10.0308,10.0374,10.054,10.0805,10.1368,10.1567,10.1534,10.1898,10.2461,10.2559,10.2592,10.2459,10.2294,10.2228,10.2228,10.2327,10.2594,10.3057,10.3422,10.3654,10.3848,10.4028,10.401,10.3826,10.3713,10.3494,10.3196,10.2788,10.2634,10.2409,10.1967,10.1459,10.0787,9.9975,9.9178,9.8353,10.7959,10.7827,10.877,10.9492,10.9991,10.9482,10.8993,10.8502,10.7951,10.7316,10.6822,10.6543,10.6339,10.638,10.6493,10.6534,10.6239,10.6454,10.6026,10.562,10.539,10.5049,10.4712,10.4501,10.4501,10.4501,10.4501,10.4319,10.4139,10.4108,10.3954,10.3961,10.4066,10.4471,10.4836,10.5264,10.5792,10.6044,10.6405,10.6095,10.5785,10.5647,10.5578,10.5509,10.5543,10.5854,10.6612,10.688,10.704,10.715,10.7313,10.7327,10.7097,10.7033,10.6967,10.6933,10.69,10.69,10.69,10.69,10.69,10.6494,10.5716,10.4835,10.4429,10.3212,10.2409,10.1848,10.1618,10.1253,10.0918,10.0614,10.041,10.0342,10.0308,10.0308,10.0308,10.0308,10.0308,10.0308,10.0507,10.0805,10.1401,10.1997,10.2229,10.2196,10.266,10.3223,10.3057,10.3024,10.2892,10.2759,10.2693,10.266,10.2658,10.3057,10.3621,10.385,10.4013,10.4212,10.4438,10.4322,10.3892,10.3717,10.3429,10.3131,10.2835,10.2589,10.2295,10.1821,10.1293,10.0755,9.9852,9.8871,9.8108,10.8058,10.8413,10.8679,10.876,10.8717,10.8432,10.8272,10.8066,10.762,10.707,10.6479,10.6339,10.6282,10.6387,10.6844,10.6784,10.6541,10.7034,10.6434,10.5861,10.5493,10.5126,10.4712,10.4501,10.4501,10.4501,10.4501,10.447,10.4319,10.4139,10.42,10.4284,10.4553,10.4793,10.5324,10.6026,10.6557,10.6654,10.6647,10.6336,10.5854,10.6061,10.6061,10.5612,10.6164,10.6523,10.7086,10.7304,10.7397,10.7383,10.7396,10.73,10.7168,10.6967,10.6933,10.69,10.69,10.69,10.69,10.69,10.69,10.6595,10.5614,10.4701,10.4566,10.3151,10.2148,10.1618,10.132,10.1019,10.058,10.041,10.0308,10.0308,10.0308,10.0308,10.0308,10.0308,10.0372,10.0404,10.0869,10.1333,10.2031,10.2726,10.2826,10.2925,10.3455,10.3819,10.3654,10.3588,10.3521,10.3488,10.3455,10.3654,10.372,10.3985,10.425,10.4311,10.4337,10.4232,10.4226,10.3964,10.3604,10.3465,10.3232,10.2841,10.2522,10.2416,10.2212,10.187,10.1358,10.0786,9.9754,9.8699,9.8108,10.8013,10.8313,10.824,10.8295,10.8315,10.8048,10.7923,10.7798,10.7341,10.6786,10.6282,10.6282,10.6282,10.6457,10.6659,10.6977,10.6709,10.6896,10.6501,10.6056,10.5597,10.5191,10.4712,10.4501,10.4501,10.4501,10.4501,10.447,10.444,10.4227,10.4288,10.456,10.498,10.5201,10.5541,10.6385,10.7026,10.7026,10.6716,10.6509,10.6061,10.6095,10.6519,10.6175,10.6792,10.7155,10.7483,10.7602,10.7513,10.7394,10.7267,10.7135,10.7001,10.69,10.69,10.69,10.69,10.69,10.69,10.69,10.69,10.6731,10.5513,10.4803,10.4164,10.2955,10.1883,10.132,10.1019,10.0716,10.0376,10.0308,10.0308,10.0308,10.0308,10.0308,10.0308,10.0341,10.0436,10.0565,10.0896,10.0959,10.1747,10.2443,10.3418,10.3585,10.3985,10.4283,10.4283,10.4283,10.4349,10.4349,10.4383,10.4648,10.4946,10.4747,10.4543,10.4593,10.4484,10.3842,10.3629,10.3469,10.3261,10.3003,10.2697,10.2416,10.2196,10.2077,10.2073,10.2086,10.1434,10.0701,9.9888,9.8935,9.855,10.7747,10.7289,10.7576,10.8528,10.9398,10.8753,10.8289,10.7986,10.7215,10.6591,10.631,10.6282,10.6289,10.6267,10.6236,10.639,10.6645,10.6434,10.6134,10.5948,10.57,10.5156,10.4712,10.4501,10.4501,10.4501,10.4501,10.4501,10.4501,10.441,10.447,10.4608,10.4996,10.5517,10.572,10.7095,10.7816,10.7712,10.6923,10.6681,10.6336,10.613,10.6592,10.708,10.7622,10.7946,10.7842,10.7851,10.7693,10.7333,10.7101,10.6967,10.6933,10.69,10.69,10.69,10.69,10.69,10.69,10.69,10.6799,10.663,10.5413,10.457,10.4,10.2824,10.1618,10.1086,10.0884,10.0682,10.0444,10.0308,10.0308,10.0308,10.0308,10.0308,10.0308,10.0204,10.0298,10.0557,10.022,10.0149,10.0998,10.1987,10.3469,10.4176,10.4513,10.4681,10.4681,10.4681,10.4681,10.4813,10.4846,10.5144,10.5277,10.5009,10.4869,10.4913,10.4688,10.4104,10.3494,10.3176,10.2914,10.2562,10.2183,10.1853,10.1775,10.166,10.1891,10.2081,10.1313,10.0599,9.9817,9.9242,9.8896,10.7586,10.7199,10.7343,10.7545,10.7832,10.7703,10.7514,10.7285,10.676,10.6395,10.631,10.6282,10.6204,10.6061,10.5959,10.6076,10.632,10.6335,10.6064,10.5761,10.5605,10.5156,10.4708,10.4501,10.4501,10.4501,10.4501,10.4501,10.4501,10.4501,10.4501,10.4639,10.485,10.5436,10.613,10.6923,10.6888,10.6509,10.6405,10.6509,10.613,10.6647,10.724,10.7731,10.8273,10.8364,10.8026,10.7961,10.7698,10.7235,10.6933,10.6933,10.69,10.69,10.69,10.69,10.69,10.6765,10.6562,10.6391,10.6322,10.5988,10.5247,10.4236,10.3699,10.219,10.132,10.0918,10.0682,10.0479,10.0342,10.0308,10.0308,10.0308,10.0308,10.0308,10.0274,10.0067,10.0024,10.0482,10.0408,10.1101,10.1921,10.242,10.3632,10.4342,10.4648,10.4681,10.4681,10.4681,10.4714,10.4913,10.5078,10.5443,10.5572,10.5464,10.5441,10.5581,10.517,10.4601,10.3962,10.3072,10.27,10.2402,10.1864,10.1359,10.1549,10.1803,10.2015,10.2,10.139,10.1037,10.0594,9.9948,9.9333,10.7586,10.7226,10.7343,10.7098,10.6703,10.6925,10.6932,10.6655,10.643,10.6282,10.6254,10.6232,10.6265,10.6168,10.5803,10.6085,10.6302,10.5732,10.5779,10.5474,10.5298,10.4919,10.4604,10.4501,10.4501,10.4501,10.4501,10.4501,10.4501,10.4501,10.4501,10.4501,10.4535,10.4988,10.5712,10.5988,10.613,10.5888,10.6026,10.6233,10.6336,10.6854,10.7584,10.8107,10.8523,10.8641,10.8058,10.7797,10.7666,10.7135,10.69,10.69,10.69,10.69,10.69,10.69,10.6731,10.6561,10.6219,10.6014,10.5945,10.5843,10.4706,10.39,10.326,10.1887,10.1118,10.0648,10.0444,10.0342,10.0308,10.0308,10.0308,10.0308,10.0205,10.0238,10.0101,9.9892,9.968,10.0136,10.0796,10.1721,10.2687,10.3261,10.3901,10.4342,10.4681,10.4681,10.4681,10.4681,10.4714,10.4879,10.5274,10.5702,10.5921,10.6035,10.6112,10.6238,10.5694,10.4974,10.3684,10.2699,10.2517,10.221,10.1469,10.115,10.1664,10.1945,10.2,10.2016,10.1848,10.1505,10.1313,10.064,9.98,10.7747,10.7253,10.7568,10.7125,10.6451,10.6647,10.6591,10.6345,10.6282,10.6282,10.6282,10.6061,10.6197,10.6477,10.552,10.5635,10.6311,10.5204,10.5152,10.516,10.4919,10.4639,10.4535,10.4501,10.4501,10.4501,10.4501,10.4501,10.4501,10.4501,10.4501,10.4501,10.4501,10.4742,10.4953,10.5264,10.5471,10.5436,10.5854,10.6199,10.6543,10.6992,10.7794,10.8351,10.87,10.8382,10.7961,10.7731,10.7467,10.7168,10.69,10.69,10.69,10.69,10.69,10.6799,10.6561,10.6151,10.5874,10.5702,10.5528,10.529,10.4327,10.359,10.2952,10.2082,10.1346,10.081,10.0606,10.044,10.0308,10.0308,10.0308,10.0238,10.0067,9.9998,9.9894,9.9684,9.9367,9.9723,10.052,10.1483,10.2719,10.3494,10.4138,10.4411,10.4681,10.4681,10.4681,10.4681,10.4714,10.4813,10.5238,10.5858,10.6105,10.6313,10.65,10.6587,10.5919,10.5179,10.3755,10.2766,10.2663,10.2237,10.1136,10.0937,10.1569,10.1828,10.1795,10.1774,10.1696,10.1734,10.1428,10.0882,10.0238,10.7452,10.6952,10.7234,10.6925,10.6339,10.6395,10.6367,10.6282,10.6282,10.6282,10.6282,10.6197,10.6092,10.5785,10.5435,10.5323,10.5088,10.4837,10.4673,10.4639,10.4608,10.4535,10.4501,10.4501,10.4501,10.4501,10.4501,10.4501,10.4501,10.4501,10.4501,10.4501,10.4501,10.4501,10.4604,10.4742,10.4884,10.516,10.5785,10.6336,10.6992,10.7578,10.8242,10.8692,10.8705,10.8285,10.7928,10.7633,10.7368,10.7034,10.69,10.69,10.69,10.69,10.6832,10.6493,10.6013,10.5526,10.5421,10.5177,10.5001,10.483,10.4138,10.3703,10.3201,10.2569,10.1704,10.1303,10.1103,10.1004,10.0805,10.0705,10.0705,10.0602,10.0498,10.0394,10.029,10.0079,9.9864,10.0558,10.1288,10.2017,10.3189,10.3901,10.4477,10.4648,10.4681,10.4681,10.4681,10.4681,10.4714,10.478,10.5166,10.5749,10.6181,10.6415,10.6691,10.68,10.6166,10.5513,10.4554,10.37,10.3176,10.2491,10.1666,10.1456,10.1628,10.1719,10.1751,10.1414,10.1307,10.1428,10.1428,10.0977,10.0778,10.7234,10.6849,10.6952,10.6766,10.6339,10.6282,10.6282,10.6282,10.6282,10.6282,10.6254,10.6026,10.5878,10.5807,10.5367,10.5039,10.5049,10.4708,10.4535,10.4535,10.4501,10.4501,10.4501,10.4501,10.4501,10.4501,10.4501,10.4501,10.4501,10.4501,10.4501,10.4501,10.4501,10.4501,10.4604,10.485,10.5022,10.5298,10.575,10.6509,10.7336,10.8095,10.8477,10.8732,10.8543,10.8253,10.783,10.7501,10.7268,10.6967,10.69,10.69,10.6866,10.6765,10.6425,10.6046,10.5631,10.5281,10.5104,10.4859,10.4752,10.4581,10.4283,10.4153,10.3656,10.3059,10.2395,10.1896,10.183,10.1698,10.1434,10.1202,10.1236,10.1201,10.1097,10.0993,10.0852,10.0643,10.1071,10.1767,10.2395,10.306,10.38,10.4375,10.4681,10.4681,10.4681,10.4681,10.4681,10.4681,10.4681,10.4747,10.5127,10.5603,10.5997,10.6345,10.655,10.6693,10.659,10.5909,10.5152,10.4368,10.3656,10.3056,10.2414,10.2164,10.1742,10.1691,10.1646,10.1242,10.0984,10.1119,10.1286,10.1346,10.1224,10.7007,10.6766,10.6731,10.6599,10.631,10.6282,10.6282,10.6282,10.6282,10.6282,10.614,10.5709,10.5761,10.5764,10.5129,10.4997,10.4915,10.4708,10.4501,10.4501,10.4591,10.4591,10.4591,10.4561,10.4682,10.4591,10.4561,10.4591,10.4501,10.4501,10.4501,10.4501,10.4501,10.4501,10.457,10.4919,10.5264,10.575,10.5992,10.654,10.754,10.7995,10.8141,10.844,10.8382,10.8156,10.7633,10.7368,10.7235,10.7034,10.69,10.69,10.6765,10.6527,10.5978,10.5561,10.5281,10.5069,10.4892,10.4716,10.4716,10.4681,10.4681,10.4581,10.4118,10.3687,10.3157,10.2693,10.2561,10.2329,10.2064,10.1931,10.1898,10.1896,10.1827,10.1757,10.1652,10.1644,10.2106,10.2702,10.3202,10.3835,10.4171,10.4681,10.4681,10.4681,10.4681,10.4681,10.4574,10.4574,10.4538,10.4538,10.4791,10.5157,10.5559,10.587,10.6243,10.6422,10.6558,10.622,10.5443,10.4724,10.4071,10.3214,10.2391,10.2109,10.1858,10.1735,10.1413,10.0932,10.0737,10.0835,10.1049,10.1367,10.1772,10.671,10.6395,10.6395,10.6367,10.6282,10.6282,10.6282,10.6282,10.6282,10.6204,10.6004,10.5802,10.5552,10.5278,10.4995,10.4855,10.4673,10.4673,10.4535,10.4591,10.4677,10.4797,10.4857,10.4917,10.4981,10.4887,10.4797,10.4682,10.4531,10.4501,10.4501,10.4501,10.4531,10.4531,10.4501,10.4915,10.5428,10.6164,10.6509,10.6954,10.785,10.8443,10.8727,10.8511,10.8285,10.7928,10.7501,10.7168,10.7068,10.69,10.69,10.6765,10.6527,10.6117,10.5737,10.5351,10.4969,10.4757,10.4785,10.4681,10.4681,10.4681,10.4681,10.4681,10.4548,10.4283,10.3985,10.3554,10.3223,10.2991,10.2792,10.2726,10.2625,10.259,10.2555,10.252,10.2452,10.278,10.3174,10.354,10.3975,10.4311,10.4614,10.4681,10.4681,10.4681,10.4681,10.4609,10.4322,10.4214,10.4142,10.4142,10.4214,10.4546,10.504,10.5441,10.5823,10.6311,10.6583,10.6188,10.5702,10.4718,10.3776,10.2951,10.2191,10.2099,10.191,10.1594,10.1207,10.0859,10.0741,10.1003,10.1303,10.1652,10.215,10.6451,10.6282,10.6282,10.6282,10.6282,10.6282,10.6282,10.6282,10.6282,10.6089,10.5715,10.5657,10.5395,10.4917,10.4797,10.4677,10.4501,10.4501,10.4621,10.4707,10.4857,10.5006,10.5124,10.5183,10.5035,10.4882,10.4767,10.4621,10.4501,10.4501,10.4501,10.4531,10.4591,10.4621,10.4596,10.4937,10.5627,10.6612,10.6957,10.7612,10.8299,10.8718,10.8798,10.8511,10.8156,10.7797,10.7434,10.7101,10.6967,10.6731,10.6595,10.6191,10.5752,10.5142,10.483,10.4648,10.4432,10.4349,10.4584,10.4752,10.4752,10.4785,10.4716,10.4716,10.4681,10.4482,10.4449,10.4084,10.4084,10.3886,10.3853,10.3753,10.3753,10.3718,10.3718,10.3682,10.3682,10.3848,10.4011,10.4146,10.4446,10.4479,10.4681,10.4681,10.4645,10.4394,10.443,10.4352,10.4066,10.3947,10.3878,10.3801,10.3899,10.4318,10.4983,10.5223,10.5377,10.5909,10.6576,10.6031,10.5422,10.4393,10.3405,10.297,10.2598,10.2329,10.2106,10.1804,10.1613,10.143,10.1279,10.123,10.1601,10.2003,10.2508,10.6282,10.6282,10.6282,10.6282,10.6282,10.6282,10.6282,10.6282,10.6254,10.5911,10.5448,10.536,10.5154,10.4857,10.4617,10.4561,10.4531,10.4621,10.4707,10.4857,10.5001,10.5183,10.5242,10.5213,10.5095,10.4887,10.4647,10.4591,10.4501,10.4561,10.4587,10.4587,10.4677,10.4797,10.4919,10.5407,10.6198,10.6743,10.7336,10.8195,10.8678,10.8991,10.8801,10.8479,10.8156,10.7797,10.7434,10.7135,10.6933,10.646,10.6054,10.5516,10.5078,10.4505,10.4198,10.4054,10.4179,10.4303,10.46,10.4865,10.4896,10.4894,10.4823,10.4788,10.4788,10.4716,10.4716,10.4683,10.4683,10.4614,10.4581,10.4581,10.4581,10.4581,10.4581,10.4581,10.4581,10.4614,10.4614,10.4648,10.4681,10.4681,10.4747,10.4714,10.4631,10.4346,10.4093,10.3874,10.3756,10.3773,10.376,10.3743,10.3761,10.4263,10.4865,10.5238,10.5358,10.5968,10.6505,10.5874,10.5172,10.4296,10.3715,10.3579,10.3204,10.2582,10.2398,10.2199,10.207,10.1917,10.1727,10.1664,10.2192,10.2594,10.2986,10.6282,10.6282,10.6282,10.6282,10.6282,10.6282,10.6282,10.6254,10.6061,10.5744,10.5389,10.5095,10.4857,10.4591,10.4531,10.4531,10.4682,10.4737,10.4827,10.4912,10.5389,10.5512,10.5477,10.5448,10.5301,10.5006,10.4647,10.4531,10.4561,10.4707,10.4827,10.4792,10.4792,10.4891,10.4965,10.5498,10.6111,10.6747,10.7474,10.8233,10.8753,10.8928,10.8801,10.8513,10.819,10.7797,10.7434,10.7101,10.6595,10.5986,10.5344,10.4806,10.437,10.4002,10.3732,10.3696,10.3858,10.4257,10.4589,10.4988,10.5155,10.5388,10.5318,10.5175,10.5104,10.4892,10.4823,10.4752,10.4752,10.4716,10.4648,10.4648,10.4648,10.4648,10.4648,10.4648,10.4648,10.4648,10.4681,10.4681,10.4681,10.4747,10.4846,10.4935,10.5075,10.482,10.4592,10.4371,10.3999,10.3887,10.3775,10.3782,10.382,10.4068,10.4619,10.5312,10.5644,10.622,10.6419,10.5871,10.5177,10.4338,10.3889,10.3719,10.3104,10.2426,10.2346,10.2702,10.24,10.2296,10.2043,10.2107,10.2626,10.2945,10.3158]}]]